[[{"header":{"parameterUnit":"m.s-1","parameterCategory":1,"la1":30.6,"la2":28.766,"lo1":-90.7593,"lo2":-88.6598,"dy":0.0162,"dx":0.0183,"nx":116,"ny":114,"refTime":"2023-04-23T06:00:00:Z","depth":0,"parameterNumber":2,"parameterNumberName":"U-component_of_WINDS"},"data":[0.0,0.0,0.0,0.0,0.0,0.0,0.0,0.0,0.0,0.0,0.0,0.0,0.0,0.0,0.0,0.0,0.0,0.0,0.0,0.0,0.0,0.0,0.0,0.0,0.0,0.0,0.0,0.0,0.0,0.0,0.0,0.0,0.0,0.0,0.0,0.0,0.0,0.0,0.0,0.0,0.0,0.0,0.0,0.0,0.0,0.0,0.0,0.0,0.0,0.0,0.0,0.0,0.0,0.0,0.0,0.0,0.0,0.0,0.0,0.0,0.0,0.0,0.0,0.0,0.0,0.0,0.0,0.0,0.0,0.0,0.0,0.0,0.0,0.0,0.0,0.0,0.0,0.0,0.0,0.0,0.0,0.0,0.0,0.0,0.0,0.0,0.0,0.0,0.0,0.0,0.0,0.0,0.0,0.0,0.0,0.0,0.0,0.0,0.0,0.0,0.0,0.0,0.0,0.0,0.0,0.0,0.0,0.0,0.0,0.0,0.0,0.0,0.0,0.0,0.0,0.0,0.0,0.0,0.0,0.0,0.0,0.0,0.0,0.0,0.0,0.0,0.0,0.0,0.0,0.0,0.0,0.0,0.0,0.0,0.0,0.0,0.0,0.0,0.0,0.0,0.0,0.0,0.0,0.0,0.0,0.0,0.0,0.0,0.0,0.0,0.0,0.0,0.0,0.0,0.0,0.0,0.0,0.0,0.0,0.0,0.0,0.0,0.0,0.0,0.0,0.0,0.0,0.0,0.0,0.0,0.0,0.0,0.0,0.0,0.0,0.0,0.0,0.0,0.0,0.0,0.0,0.0,0.0,0.0,0.0,0.0,0.0,0.0,0.0,0.0,0.0,0.0,0.0,0.0,0.0,0.0,0.0,0.0,0.0,0.0,0.0,0.0,0.0,0.0,0.0,0.0,0.0,0.0,0.0,0.0,0.0,0.0,0.0,0.0,0.0,0.0,0.0,0.0,0.0,0.0,0.0,0.0,0.0,0.0,0.0,0.0,0.0,0.0,0.0,0.0,0.0,0.0,0.0,0.0,0.0,0.0,0.0,0.0,0.0,0.0,0.0,0.0,0.0,0.0,0.0,0.0,0.0,0.0,0.0,0.0,0.0,0.0,0.0,0.0,0.0,0.0,0.0,0.0,0.0,0.0,0.0,0.0,0.0,0.0,0.0,0.0,0.0,0.0,0.0,0.0,0.0,0.0,0.0,0.0,0.0,0.0,0.0,0.0,0.0,0.0,0.0,0.0,0.0,0.0,0.0,0.0,0.0,0.0,0.0,0.0,0.0,0.0,0.0,0.0,0.0,0.0,0.0,0.0,0.0,0.0,0.0,0.0,0.0,0.0,0.0,0.0,0.0,0.0,0.0,0.0,0.0,0.0,0.0,0.0,0.0,0.0,0.0,0.0,0.0,0.0,0.0,0.0,0.0,0.0,0.0,0.0,0.0,0.0,0.0,0.0,0.0,0.0,0.0,0.0,0.0,0.0,0.0,0.0,0.0,0.0,0.0,0.0,0.0,0.0,0.0,0.0,0.0,0.0,0.0,0.0,0.0,0.0,0.0,0.0,0.0,0.0,0.0,0.0,0.0,0.0,0.0,0.0,0.0,0.0,0.0,0.0,0.0,0.0,0.0,0.0,0.0,0.0,0.0,0.0,0.0,0.0,0.0,0.0,0.0,0.0,0.0,0.0,0.0,0.0,0.0,0.0,0.0,0.0,0.0,0.0,0.0,0.0,0.0,0.0,0.0,0.0,0.0,0.0,0.0,0.0,0.0,0.0,0.0,0.0,0.0,0.0,0.0,0.0,0.0,0.0,0.0,0.0,0.0,0.0,0.0,0.0,0.0,0.0,0.0,0.0,0.0,0.0,0.0,0.0,0.0,0.0,0.0,0.0,0.0,0.0,0.0,0.0,0.0,0.0,0.0,0.0,0.0,0.0,0.0,0.0,0.0,0.0,0.0,0.0,0.0,0.0,0.0,0.0,0.0,0.0,0.0,0.0,0.0,0.0,0.0,0.0,0.0,0.0,0.0,0.0,0.0,0.0,0.0,0.0,0.0,0.0,0.0,0.0,0.0,0.0,0.0,0.0,0.0,0.0,0.0,0.0,0.0,0.0,0.0,0.0,0.0,0.0,0.0,0.0,0.0,0.0,0.0,0.0,0.0,0.0,0.0,0.0,0.0,0.0,0.0,0.0,0.0,0.0,0.0,0.0,0.0,0.0,0.0,0.0,0.0,0.0,0.0,0.0,0.0,0.0,0.0,0.0,0.0,0.0,0.0,0.0,0.0,0.0,0.0,0.0,0.0,0.0,0.0,0.0,0.0,0.0,0.0,0.0,0.0,0.0,0.0,0.0,0.0,0.0,0.0,0.0,0.0,0.0,0.0,0.0,0.0,0.0,0.0,0.0,0.0,0.0,0.0,0.0,0.0,0.0,0.0,0.0,0.0,0.0,0.0,0.0,0.0,0.0,0.0,0.0,0.0,0.0,0.0,0.0,0.0,0.0,0.0,0.0,0.0,0.0,0.0,0.0,0.0,0.0,0.0,0.0,0.0,0.0,0.0,0.0,0.0,0.0,0.0,0.0,0.0,0.0,0.0,0.0,0.0,0.0,0.0,0.0,0.0,0.0,0.0,0.0,0.0,0.0,0.0,0.0,0.0,0.0,0.0,0.0,0.0,0.0,0.0,0.0,0.0,0.0,0.0,0.0,0.0,0.0,0.0,0.0,0.0,0.0,0.0,0.0,0.0,0.0,0.0,0.0,0.0,0.0,0.0,0.0,0.0,0.0,0.0,0.0,0.0,0.0,0.0,0.0,0.0,0.0,0.0,0.0,0.0,0.0,0.0,0.0,0.0,0.0,0.0,0.0,0.0,0.0,0.0,0.0,0.0,0.0,0.0,0.0,0.0,0.0,0.0,0.0,0.0,0.0,0.0,0.0,0.0,0.0,0.0,0.0,0.0,0.0,0.0,0.0,0.0,0.0,0.0,0.0,0.0,0.0,0.0,0.0,0.0,0.0,0.0,0.0,0.0,0.0,0.0,0.0,0.0,0.0,0.0,0.0,0.0,0.0,0.0,0.0,0.0,0.0,0.0,0.0,0.0,0.0,0.0,0.0,0.0,0.0,0.0,0.0,0.0,0.0,0.0,0.0,0.0,0.0,0.0,0.0,0.0,0.0,0.0,0.0,0.0,0.0,0.0,0.0,0.0,0.0,0.0,0.0,0.0,0.0,0.0,0.0,0.0,0.0,0.0,0.0,0.0,0.0,0.0,0.0,0.0,0.0,0.0,0.0,0.0,0.0,0.0,0.0,0.0,0.0,0.0,0.0,0.0,0.0,0.0,0.0,0.0,0.0,0.0,0.0,0.0,0.0,0.0,0.0,0.0,0.0,0.0,0.0,0.0,0.0,0.0,0.0,0.0,0.0,0.0,0.0,0.0,0.0,0.0,0.0,0.0,0.0,0.0,0.0,0.0,0.0,0.0,0.0,0.0,0.0,0.0,0.0,0.0,0.0,0.0,0.0,0.0,0.0,0.0,0.0,0.0,0.0,0.0,0.0,0.0,0.0,0.0,0.0,0.0,0.0,0.0,0.0,0.0,0.0,0.0,0.0,0.0,0.0,0.0,0.0,0.0,0.0,0.0,0.0,0.0,0.0,0.0,0.0,0.0,0.0,0.0,0.0,0.0,0.0,0.0,0.0,0.0,0.0,0.0,0.0,0.0,0.0,0.0,0.0,0.0,0.0,0.0,0.0,0.0,0.0,0.0,0.0,0.0,0.0,0.0,0.0,0.0,0.0,0.0,0.0,0.0,0.0,0.0,0.0,0.0,0.0,0.0,0.0,0.0,0.0,0.0,0.0,0.0,0.0,0.0,0.0,0.0,0.0,0.0,0.0,0.0,0.0,0.0,0.0,0.0,0.0,0.0,0.0,0.0,0.0,0.0,0.0,0.0,0.0,0.0,0.0,0.0,0.0,0.0,0.0,0.0,0.0,0.0,0.0,0.0,0.0,0.0,0.0,0.0,0.0,0.0,0.0,0.0,0.0,0.0,0.0,0.0,0.0,0.0,0.0,0.0,0.0,0.0,0.0,0.0,0.0,0.0,0.0,0.0,0.0,0.0,0.0,0.0,0.0,0.0,0.0,0.0,0.0,0.0,0.0,0.0,0.0,0.0,0.0,0.0,0.0,0.0,0.0,0.0,0.0,0.0,0.0,0.0,0.0,0.0,0.0,0.0,0.0,0.0,0.0,0.0,0.0,0.0,0.0,0.0,0.0,0.0,0.0,0.0,0.0,0.0,0.0,0.0,0.0,0.0,0.0,0.0,0.0,0.0,0.0,0.0,0.0,0.0,0.0,0.0,0.0,0.0,0.0,0.0,0.0,0.0,0.0,0.0,0.0,0.0,0.0,0.0,0.0,0.0,0.0,0.0,0.0,0.0,0.0,0.0,0.0,0.0,0.0,0.0,0.0,0.0,0.0,0.0,0.0,0.0,0.0,0.0,0.0,0.0,0.0,0.0,0.0,0.0,0.0,0.0,0.0,0.0,0.0,0.0,0.0,0.0,0.0,0.0,0.0,0.0,0.0,0.0,0.0,0.0,0.0,0.0,0.0,0.0,0.0,0.0,0.0,0.0,0.0,0.0,0.0,0.0,0.0,0.0,0.0,0.0,0.0,0.0,0.0,0.0,0.0,0.0,0.0,0.0,0.0,0.0,0.0,0.0,0.0,0.0,0.0,0.0,0.0,0.0,0.0,0.0,0.0,0.0,0.0,0.0,0.0,0.0,0.0,0.0,0.0,0.0,0.0,0.0,0.0,0.0,0.0,0.0,0.0,0.0,0.0,0.0,0.0,0.0,0.0,0.0,0.0,0.0,0.0,0.0,0.0,0.0,0.0,0.0,0.0,0.0,0.0,0.0,0.0,0.0,0.0,0.0,0.0,0.0,0.0,0.0,0.0,0.0,0.0,0.0,0.0,0.0,0.0,0.0,0.0,0.0,0.0,0.0,0.0,0.0,0.0,0.0,0.0,0.0,0.0,0.0,0.0,0.0,0.0,0.0,0.0,0.0,0.0,0.0,0.0,0.0,0.0,0.0,0.0,0.0,0.0,0.0,0.0,0.0,0.0,0.0,0.0,0.0,0.0,0.0,0.0,0.0,0.0,0.0,0.0,0.0,0.0,0.0,0.0,0.0,0.0,0.0,0.0,0.0,0.0,0.0,0.0,0.0,0.0,0.0,0.0,0.0,0.0,0.0,0.0,0.0,0.0,0.0,0.0,0.0,0.0,0.0,0.0,0.0,0.0,0.0,0.0,0.0,0.0,0.0,0.0,0.0,0.0,0.0,0.0,0.0,0.0,0.0,0.0,0.0,0.0,0.0,0.0,0.0,0.0,0.0,0.0,0.0,0.0,0.0,0.0,0.0,0.0,0.0,0.0,0.0,0.0,0.0,0.0,0.0,0.0,0.0,0.0,0.0,0.0,0.0,0.0,0.0,0.0,0.0,0.0,0.0,0.0,0.0,0.0,0.0,0.0,0.0,0.0,0.0,0.0,0.0,0.0,0.0,0.0,0.0,0.0,0.0,0.0,0.0,0.0,0.0,0.0,0.0,0.0,0.0,0.0,0.0,0.0,0.0,0.0,0.0,0.0,0.0,0.0,0.0,0.0,0.0,0.0,0.0,0.0,0.0,0.0,0.0,0.0,0.0,0.0,0.0,0.0,0.0,0.0,0.0,0.0,0.0,0.0,0.0,0.0,0.0,0.0,0.0,0.0,0.0,0.0,0.0,0.0,0.0,0.0,0.0,0.0,0.0,0.0,0.0,0.0,0.0,0.0,0.0,0.0,0.0,0.0,0.0,0.0,0.0,0.0,0.0,0.0,0.0,0.0,0.0,0.0,0.0,0.0,0.0,0.0,0.0,0.0,0.0,0.0,0.0,0.0,0.0,0.0,0.0,0.0,0.0,0.0,0.0,0.0,0.0,0.0,0.0,0.0,0.0,0.0,0.0,0.0,0.0,0.0,0.0,0.0,0.0,0.0,0.0,0.0,0.0,0.0,0.0,0.0,0.0,0.0,0.0,0.0,0.0,0.0,0.0,0.0,0.0,0.0,1.1113,1.0901,0.0,0.0,0.0,0.0,0.0,0.0,0.0,0.0,0.0,0.0,0.0,0.0,0.0,0.0,0.0,0.0,0.0,0.0,0.0,0.0,0.0,0.0,0.0,0.0,0.0,0.0,0.0,0.0,0.0,0.0,0.0,0.0,0.0,0.0,0.0,0.0,0.0,0.0,0.319,0.322,0.3247,0.3247,0.3234,0.3206,0.0,0.0,0.0,0.0,0.0,0.0,0.0,0.0,0.0,0.0,0.0,0.0,0.0,0.0,0.0,0.0,0.0,0.0,0.0,0.0,0.0,0.0,0.0,0.0,0.0,0.0,0.0,0.0,0.0,0.0,0.0,0.0,0.0,0.0,0.0,0.0,0.0,0.0,0.0,0.0,0.0,0.0,0.0,0.0,0.0,0.0,0.0,0.0,0.0,0.0,0.0,0.0,0.0,0.0,0.0,0.0,0.0,0.0,0.0,0.0,0.0,0.0,0.0,0.0,0.0,0.0,0.0,0.0,0.0,0.0,1.1614,1.1283,0.0,0.0,0.0,0.0,0.0,0.0,0.0,0.0,0.0,0.0,0.0,0.0,0.0,0.0,0.0,0.0,0.0,0.0,0.0,0.0,0.0,0.0,0.0,0.3005,0.3008,0.3019,0.3066,0.308,0.0,0.0,0.0,0.0,0.0,0.0,0.0,0.3179,0.3206,0.3206,0.3247,0.3304,0.3401,0.3396,0.3371,0.3312,0.325,0.0,0.0,0.0,0.0,0.0,0.0,0.0,0.0,0.0,0.0,0.0,0.0,0.0,0.0,0.0,0.0,0.0,0.0,0.0,0.0,0.0,0.0,0.0,0.0,0.0,0.0,0.0,0.0,0.0,0.0,0.0,0.0,0.0,0.0,0.0,0.0,0.0,0.0,0.0,0.0,0.0,0.0,0.0,0.0,0.0,0.0,0.0,0.0,0.0,0.0,0.0,0.0,0.0,0.0,0.0,0.0,0.0,0.0,0.0,0.0,0.0,0.0,0.0,1.3098,1.3135,1.3112,1.3295,1.3333,1.3256,1.2381,1.1947,1.1881,1.1683,0.0,0.0,0.0,0.0,0.0,0.0,0.0,0.0,0.0,0.0,0.0,0.0,0.0,0.0,0.0,0.0,0.0,0.0,0.0,0.0,0.0,0.3005,0.3025,0.308,0.3091,0.3092,0.3088,0.0,0.0,0.0,0.0,0.0,0.3193,0.3201,0.3206,0.3206,0.3439,0.36,0.374,0.3788,0.3807,0.3792,0.345,0.3339,0.345,0.0,0.0,0.0,0.0,0.0,0.0,0.0,0.0,0.0,0.0,0.0,0.0,0.0,0.0,0.0,0.0,0.0,0.0,0.0,0.0,0.0,0.0,0.0,0.0,0.0,0.0,0.0,0.0,0.0,0.0,0.0,0.0,0.0,0.0,0.0,0.0,0.0,0.0,0.0,0.0,0.0,0.8984,0.898,0.0,0.0,0.0,0.0,0.0,0.0,0.0,0.0,0.0,0.0,0.0,0.0,0.0,1.2965,1.3183,1.3712,1.3746,1.3329,1.4194,1.4088,1.3132,1.3991,1.4293,1.4134,1.4001,0.0,1.2315,1.2117,0.0,0.0,0.0,0.0,0.0,0.0,0.0,0.0,0.0,0.0,0.0,0.0,0.0,0.0,0.0,0.0,0.0,0.0,0.0,0.0,0.0,0.3125,0.3158,0.3153,0.3361,0.3405,0.3177,0.329,0.0,0.0,0.0,0.3206,0.3206,0.3206,0.3271,0.3431,0.3669,0.3831,0.3921,0.3977,0.402,0.4052,0.3858,0.367,0.3491,0.3414,0.0,0.0,0.0,0.0,0.0,0.0,0.0,0.0,0.0,0.0,0.0,0.0,0.0,0.0,0.0,0.0,0.0,0.0,0.0,0.0,0.0,0.0,0.0,0.0,0.0,0.0,0.0,0.0,0.0,0.0,0.0,0.0,0.0,0.0,0.0,0.0,0.0,0.0,0.0,0.7792,0.8045,0.8282,0.9216,0.9886,0.0,0.0,0.0,0.0,0.0,0.0,0.0,0.0,0.0,1.2626,1.303,1.3411,1.3726,1.4062,1.431,1.4416,1.4844,1.4839,1.4475,1.4909,1.4996,1.4813,1.4825,1.4262,1.3337,1.2991,1.2597,1.22,0.0,0.0,0.0,0.0,1.2104,1.2141,0.0,0.0,0.0,0.0,0.0,0.0,0.0,0.0,0.0,0.0,0.0,0.0,0.3153,0.3275,0.3342,0.3342,0.36,0.3652,0.3315,0.3447,0.3439,0.3236,0.3215,0.3206,0.3206,0.3266,0.3455,0.3725,0.3938,0.4065,0.4164,0.4239,0.4301,0.4339,0.4313,0.406,0.3676,0.3583,0.3466,0.3315,0.0,0.0,0.0,0.0,0.0,0.0,0.0,0.0,0.0,0.0,0.0,0.0,0.0,0.0,0.0,0.0,0.0,0.0,0.0,0.0,0.0,0.0,0.0,0.0,0.0,0.0,0.0,0.0,0.0,0.0,0.0,0.0,0.0,0.0,0.0,0.0,0.0,0.7358,0.7707,0.7897,0.9233,1.0151,0.0,0.0,0.0,0.0,0.0,0.0,1.2426,1.3053,1.3371,1.3332,1.3746,1.4102,1.4466,1.4596,1.4898,1.5365,1.5476,1.5497,1.5508,1.5697,1.5659,1.5365,1.5424,1.5095,1.4421,1.3766,1.3238,1.2793,1.2506,1.2367,1.2386,1.2553,1.2664,1.2784,0.0,0.0,0.0,0.0,0.0,0.0,0.0,0.0,0.0,0.0,0.0,0.3092,0.3362,0.345,0.3556,0.3757,0.3735,0.368,0.3575,0.3422,0.3304,0.329,0.3236,0.3206,0.3206,0.3452,0.3744,0.4066,0.4281,0.4461,0.4671,0.4718,0.4775,0.4775,0.4752,0.4556,0.4158,0.3815,0.3694,0.3663,0.3409,0.0,0.0,0.0,0.0,0.0,0.0,0.0,0.0,0.0,0.0,0.0,0.0,0.0,0.0,0.0,0.0,0.0,0.0,0.0,0.0,0.0,0.0,0.0,0.0,0.0,0.0,0.0,0.0,0.0,0.0,0.0,0.0,0.0,0.0,0.0,0.0,0.0,0.0,0.8365,1.0568,0.0,0.0,0.0,0.0,1.2229,1.2573,1.3034,1.3574,1.3964,1.4345,1.4788,1.5171,1.5504,1.5696,1.5897,1.5914,1.5771,1.6151,1.6021,1.5543,1.6287,1.6342,1.5888,1.6055,1.5893,1.5429,1.4263,1.3416,1.2856,1.245,1.2302,1.2285,1.2119,1.2285,1.2581,0.0,0.0,0.0,0.0,0.0,0.0,0.0,0.0,0.2916,0.2997,0.312,0.3262,0.3447,0.3692,0.3839,0.3935,0.4027,0.4008,0.3804,0.3689,0.3575,0.3496,0.3336,0.3336,0.3515,0.379,0.4055,0.43,0.4523,0.4702,0.4842,0.4923,0.4977,0.4977,0.4995,0.4872,0.4615,0.421,0.3937,0.3803,0.3531,0.3398,0.0,0.0,0.0,0.0,0.0,0.0,0.0,0.0,0.0,0.0,0.0,0.0,0.0,0.0,0.0,0.0,0.0,0.0,0.0,0.0,0.0,0.0,0.0,0.0,0.0,0.0,0.0,0.0,0.0,0.0,0.0,0.0,0.0,0.0,0.0,0.0,0.0,0.9001,1.0182,0.0,0.9224,1.0587,1.1597,1.1703,1.3299,1.4344,1.4544,1.5068,1.5438,1.5582,1.5986,1.6251,1.6318,1.6385,1.6311,1.6131,1.6137,1.6031,1.5821,1.6138,1.6119,1.5825,1.5918,1.5716,1.531,1.4873,1.4424,1.397,1.3676,1.3581,1.3572,1.3576,1.3637,1.3742,0.0,0.0,0.0,0.0,0.0,0.0,0.0,0.0,0.2925,0.3025,0.3202,0.3401,0.3598,0.3923,0.4142,0.4213,0.4292,0.4245,0.3993,0.382,0.3691,0.3561,0.3463,0.3542,0.3823,0.4123,0.4387,0.4608,0.4831,0.4977,0.5021,0.5158,0.5204,0.5204,0.5204,0.5172,0.5093,0.4689,0.4322,0.402,0.3747,0.3598,0.3531,0.0,0.0,0.0,0.0,0.0,0.0,0.0,0.0,0.0,0.0,0.0,0.0,0.0,0.0,0.0,0.0,0.0,0.0,0.0,0.0,0.0,0.0,0.0,0.0,0.0,0.0,0.0,0.0,0.0,0.0,0.0,0.0,0.0,0.0,0.822,0.8732,0.8833,0.9761,0.9911,0.8704,1.048,1.1766,1.1864,1.4148,1.5524,1.5617,1.6081,1.6361,1.6355,1.6633,1.673,1.6674,1.6674,1.6576,1.6397,1.6219,1.612,1.6177,1.6064,1.5934,1.5861,1.5796,1.5642,1.5415,1.5415,1.527,1.497,1.4493,1.4324,1.4315,1.4258,1.4258,1.4344,0.0,0.0,0.0,0.0,0.0,0.0,0.0,0.2897,0.2941,0.3083,0.3295,0.3531,0.3857,0.4193,0.4452,0.4605,0.4469,0.4322,0.4109,0.379,0.3561,0.3504,0.357,0.3774,0.4101,0.4436,0.4733,0.4994,0.5213,0.5303,0.5303,0.5365,0.5392,0.5392,0.5392,0.5425,0.5509,0.5226,0.4823,0.4319,0.4036,0.3903,0.386,0.0,0.0,0.0,0.0,0.0,0.0,0.0,0.0,0.0,0.0,0.0,0.0,0.0,0.0,0.0,0.0,0.0,0.0,0.0,0.0,0.0,0.0,0.0,0.0,0.0,0.0,0.0,0.0,0.0,0.0,0.0,0.0,0.0,0.5685,0.7459,0.8467,0.7879,0.9416,1.0136,0.9184,1.1136,1.2593,1.2847,1.5003,1.6495,1.6817,1.6995,1.7128,1.7136,1.7136,1.7011,1.6841,1.6833,1.6736,1.6592,1.6405,1.6405,1.6568,1.6185,1.6023,1.5999,1.5869,1.5829,1.5821,1.5829,1.5829,1.5699,1.4822,1.4427,1.4379,1.4066,1.4042,1.4225,0.0,0.0,0.0,0.0,0.0,0.0,0.2889,0.2933,0.3001,0.3098,0.3439,0.3774,0.4018,0.4384,0.4657,0.4734,0.4518,0.436,0.4264,0.3837,0.36,0.3655,0.3894,0.4191,0.4545,0.4766,0.5025,0.5283,0.5462,0.5531,0.5531,0.5591,0.5621,0.5621,0.5621,0.563,0.5638,0.5528,0.5303,0.5044,0.454,0.4259,0.4085,0.0,0.0,0.0,0.0,0.0,0.0,0.0,0.0,0.0,0.0,0.0,0.0,0.0,0.0,0.0,0.0,0.0,0.0,0.0,0.0,0.0,0.0,0.0,0.0,0.0,0.0,0.0,0.0,0.0,0.0,0.0,0.498,0.5478,0.7056,0.778,0.8069,0.7884,0.8598,0.9031,0.8916,1.0636,1.2455,1.4065,1.6009,1.7185,1.7368,1.7425,1.7514,1.7689,1.7697,1.7627,1.7578,1.7372,1.7153,1.6966,1.6649,1.6527,1.6584,1.6574,1.6444,1.6235,1.6324,1.6211,1.5942,1.6105,1.6154,1.6105,1.5601,1.5244,1.4946,1.4757,1.4538,1.4399,0.0,0.0,0.0,0.0,0.0,0.0,0.2853,0.2927,0.3034,0.3133,0.3545,0.393,0.4104,0.4485,0.4743,0.4754,0.4578,0.4365,0.4172,0.3861,0.3754,0.3861,0.4164,0.4493,0.4845,0.5087,0.5316,0.5534,0.5654,0.5684,0.5638,0.5725,0.5736,0.5689,0.5741,0.5763,0.576,0.57,0.5635,0.5537,0.5174,0.4834,0.4597,0.4255,0.4177,0.4191,0.397,0.3937,0.3926,0.3763,0.0,0.0,0.0,0.0,0.0,0.0,0.0,0.0,0.0,0.0,0.0,0.0,0.0,0.0,0.0,0.0,0.0,0.0,0.0,0.0,0.0,0.0,0.0,0.0,0.513,0.5654,0.6916,0.7116,0.7124,0.7152,0.7391,0.796,0.898,1.083,1.2812,1.495,1.6804,1.7875,1.7973,1.7118,1.6665,1.6764,1.6764,1.6733,1.6658,1.7296,1.7518,1.7331,1.7055,1.6958,1.7023,1.6939,1.6885,1.6755,1.6787,1.6682,1.6453,1.6477,1.6493,1.6495,0.0,0.0,0.0,0.0,1.5171,1.5017,0.0,0.0,0.0,0.0,0.0,0.0,0.2812,0.2916,0.3059,0.319,0.3608,0.3987,0.4183,0.4564,0.4756,0.4696,0.4578,0.4352,0.4031,0.391,0.3935,0.4134,0.4425,0.4744,0.5134,0.5373,0.5586,0.5726,0.5834,0.5837,0.5748,0.5856,0.5848,0.5751,0.5859,0.5957,0.5959,0.5851,0.5824,0.5805,0.5775,0.5544,0.5185,0.4741,0.4704,0.4789,0.4417,0.4207,0.412,0.4036,0.0,0.0,0.0,0.0,0.0,0.0,0.0,0.0,0.0,0.0,0.0,0.0,0.0,0.0,0.0,0.0,0.0,0.0,0.0,0.0,0.0,0.0,0.0,0.0,0.5436,0.5841,0.6041,0.6085,0.6101,0.6117,0.6221,0.7165,0.9253,1.1105,1.3043,1.5173,1.688,1.7804,1.7781,1.5944,0.0,0.0,0.0,1.4892,1.4938,1.6673,1.7606,1.7627,1.7494,1.7494,1.7587,1.7331,1.7266,1.738,1.7234,1.7145,1.7096,1.6922,1.6874,1.6833,1.6462,1.63,1.6267,1.5992,1.5861,1.5788,0.0,0.0,0.0,0.0,0.0,0.0,0.2864,0.3003,0.3122,0.3255,0.3642,0.3955,0.4096,0.4466,0.4693,0.4633,0.4482,0.4327,0.4091,0.4166,0.4289,0.4477,0.4858,0.5147,0.5327,0.5561,0.5775,0.5962,0.5984,0.6033,0.6104,0.6125,0.6125,0.6104,0.6125,0.6164,0.6207,0.6145,0.609,0.6036,0.5918,0.5689,0.5401,0.521,0.5098,0.5022,0.4818,0.4837,0.4937,0.4684,0.4608,0.4531,0.4264,0.3986,0.0,0.0,0.0,0.0,0.0,0.0,0.0,0.0,0.0,0.0,0.0,0.0,0.0,0.0,0.0,0.0,0.0,0.0,0.0,0.5435,0.5855,0.6169,0.6364,0.6478,0.6504,0.6273,0.6308,0.7169,0.9159,0.9755,1.0794,1.28,1.3305,1.3488,1.3429,1.3068,1.2822,1.2769,1.2763,1.3566,1.5208,1.5384,1.6267,1.7859,1.7635,0.0,1.7595,1.7676,1.7624,1.7396,1.7449,1.7327,1.712,1.7234,1.7283,1.7218,1.656,1.63,1.6292,1.6227,1.6113,1.5966,0.0,0.0,0.0,0.0,0.0,0.0,0.2796,0.298,0.3128,0.3231,0.3561,0.3847,0.3937,0.4188,0.4313,0.4256,0.4196,0.4064,0.3806,0.3981,0.4248,0.4533,0.4595,0.4838,0.5293,0.5151,0.5145,0.5332,0.5332,0.533,0.533,0.5404,0.5387,0.5337,0.5363,0.5406,0.5454,0.5428,0.5546,0.5756,0.5655,0.5735,0.5809,0.5597,0.5499,0.5455,0.5338,0.5294,0.5267,0.5124,0.4965,0.4812,0.4608,0.438,0.4114,0.0,0.0,0.0,0.0,0.0,0.0,0.0,0.0,0.0,0.0,0.0,0.0,0.0,0.0,0.4577,0.4888,0.0,0.5564,0.5987,0.6256,0.6466,0.6567,0.6637,0.666,0.648,0.6485,0.7297,0.9368,0.9574,1.0392,1.2473,1.2509,1.2417,1.2407,1.1387,1.078,1.0728,1.0728,1.1259,1.2272,1.3133,1.4597,1.658,1.6456,1.6934,1.7908,1.8005,1.7949,1.7786,1.7875,1.7762,1.751,1.7421,1.7331,1.721,1.6852,1.6706,1.6698,1.6609,1.6485,1.6404,0.0,0.0,0.0,0.0,0.0,0.0,0.0,0.2925,0.3103,0.3188,0.3417,0.3639,0.3757,0.3833,0.3864,0.382,0.3764,0.3714,0.363,0.3767,0.4061,0.4502,0.4252,0.4399,0.5052,0.4644,0.4478,0.4712,0.4712,0.4633,0.458,0.4617,0.4594,0.4575,0.4612,0.4649,0.4635,0.4635,0.4872,0.5303,0.5303,0.5583,0.6019,0.5736,0.5713,0.5867,0.5733,0.5613,0.5412,0.5363,0.5202,0.4967,0.4932,0.474,0.4458,0.4109,0.4009,0.0,0.0,0.0,0.0,0.0,0.0,0.0,0.0,0.0,0.4466,0.4704,0.4902,0.514,0.5531,0.5793,0.6037,0.6437,0.6559,0.6624,0.6736,0.6755,0.6739,0.6627,0.6599,0.7256,0.9006,0.9138,0.9785,1.1517,1.1509,1.1392,1.1397,0.9723,0.8758,0.8739,0.8739,0.8935,0.9322,1.0873,1.2645,1.4715,1.4661,1.549,1.7039,1.7008,1.6993,1.704,1.7421,1.7537,1.738,1.7403,1.7348,1.721,1.7136,1.7112,1.7096,1.6914,1.6858,1.6833,0.0,0.0,0.0,0.0,0.0,0.0,0.0,0.0,0.3056,0.3182,0.3188,0.3294,0.3602,0.3592,0.352,0.346,0.3293,0.3445,0.3984,0.3891,0.4086,0.4668,0.4474,0.438,0.4497,0.4441,0.4478,0.4712,0.4712,0.4747,0.4766,0.4772,0.4768,0.476,0.4764,0.477,0.4774,0.4774,0.4802,0.4865,0.4865,0.5109,0.5464,0.5435,0.5683,0.6046,0.5872,0.5695,0.5583,0.5575,0.5484,0.5322,0.5254,0.5104,0.488,0.4526,0.4237,0.3961,0.3823,0.3836,0.3946,0.406,0.4191,0.4412,0.0,0.5044,0.5175,0.5503,0.5714,0.5913,0.6011,0.6226,0.6425,0.6483,0.6591,0.6739,0.6799,0.6853,0.6867,0.6804,0.6648,0.6687,0.6945,0.6931,0.7008,0.7218,0.72,0.7137,0.7119,0.6915,0.6764,0.6707,0.6707,0.7596,0.937,0.9522,1.0643,1.2627,1.2554,1.2637,1.287,1.2803,1.2799,1.2899,1.4738,1.5528,1.5587,1.6978,1.7554,1.7506,1.7234,1.7112,1.7112,1.7088,1.708,1.7055,0.0,0.0,0.0,0.0,0.0,0.0,0.0,0.0,0.0,0.3087,0.3131,0.3132,0.3093,0.3078,0.302,0.2835,0.327,0.3482,0.3243,0.3605,0.3882,0.4038,0.375,0.3766,0.4119,0.3827,0.3723,0.3811,0.379,0.3795,0.3826,0.3826,0.3838,0.3857,0.3836,0.3861,0.3916,0.3875,0.4073,0.4348,0.4301,0.4755,0.5452,0.5393,0.5612,0.5924,0.5779,0.5676,0.0,0.5387,0.5319,0.5273,0.5248,0.5093,0.4831,0.461,0.4398,0.0,0.4199,0.4265,0.4344,0.449,0.4714,0.5011,0.5305,0.5529,0.573,0.5924,0.6158,0.6316,0.6493,0.663,0.6752,0.685,0.6878,0.6883,0.6872,0.6861,0.6807,0.6627,0.6627,0.6651,0.6739,0.6627,0.6589,0.6599,0.654,0.6478,0.648,0.6466,0.65,0.6475,0.6473,0.6873,0.7721,0.7646,0.8641,1.0598,1.0487,1.108,1.2223,1.2152,1.2092,1.214,1.304,1.3416,1.3545,1.5299,1.5944,1.5932,1.6918,1.721,1.7112,1.7112,1.7112,1.7096,0.0,0.0,0.0,0.0,0.0,0.0,0.0,0.0,0.0,0.0,0.3036,0.2952,0.2744,0.2627,0.2523,0.2421,0.2974,0.312,0.27,0.3161,0.3482,0.3565,0.324,0.3249,0.3679,0.3324,0.3144,0.3189,0.3167,0.3107,0.3107,0.3107,0.3175,0.321,0.318,0.3208,0.3272,0.3221,0.3426,0.3769,0.3709,0.4268,0.5069,0.4935,0.5085,0.5384,0.5564,0.5489,0.5289,0.5066,0.5003,0.5003,0.5003,0.4907,0.4763,0.46,0.4455,0.4362,0.4422,0.4518,0.4685,0.4891,0.5207,0.5551,0.5764,0.5978,0.6224,0.636,0.654,0.6662,0.6845,0.6918,0.697,0.7006,0.6992,0.6954,0.6891,0.6818,0.6662,0.6518,0.6443,0.6444,0.6502,0.658,0.6627,0.667,0.6597,0.654,0.6524,0.6518,0.6485,0.6485,0.6522,0.6511,0.6511,0.6451,0.7113,0.8594,0.8428,0.9116,1.0548,1.0493,1.0446,1.0493,1.1008,1.1291,1.1427,1.3319,1.4316,1.4806,1.6062,1.681,1.7089,1.6549,1.6665,1.7112,0.0,0.0,0.0,0.0,0.0,0.0,0.0,0.0,0.0,0.0,0.0,0.0,0.0,0.2347,0.2122,0.2372,0.2085,0.2131,0.2755,0.2625,0.2815,0.3478,0.3249,0.3128,0.3141,0.3171,0.3186,0.3189,0.3187,0.3187,0.3187,0.3187,0.3217,0.3272,0.324,0.3246,0.3273,0.3242,0.323,0.323,0.32,0.3496,0.3949,0.3714,0.3897,0.4341,0.514,0.5168,0.4786,0.4602,0.4504,0.4504,0.4504,0.4616,0.4682,0.4526,0.4362,0.4234,0.4297,0.4485,0.4797,0.5175,0.5551,0.5897,0.6191,0.6444,0.6616,0.685,0.694,0.6987,0.6992,0.7041,0.7027,0.6853,0.6875,0.6891,0.6828,0.6664,0.6567,0.6508,0.6047,0.5754,0.5757,0.6314,0.6672,0.6675,0.667,0.6643,0.6586,0.6529,0.6497,0.6497,0.6493,0.6511,0.6511,0.6451,0.642,0.6467,0.6343,0.6333,0.6378,0.6317,0.6288,0.6381,0.8368,0.9169,0.935,1.1216,1.3119,1.485,1.4604,1.566,1.7133,1.5123,1.555,1.7112,0.0,0.0,0.0,0.0,0.0,0.0,0.0,0.0,0.0,0.0,0.0,0.0,0.0,0.0,0.0,0.0,0.2223,0.2386,0.22,0.2559,0.2817,0.289,0.2966,0.2971,0.3051,0.3082,0.3157,0.3127,0.3157,0.3118,0.3157,0.3138,0.318,0.3273,0.3224,0.324,0.33,0.3232,0.3225,0.3251,0.3191,0.3422,0.3813,0.3669,0.3718,0.3944,0.0,0.3975,0.3857,0.3829,0.3838,0.3891,0.4203,0.4253,0.415,0.4112,0.4283,0.4485,0.4591,0.4954,0.5382,0.5684,0.5997,0.6318,0.6586,0.676,0.6894,0.6957,0.6826,0.6662,0.6752,0.6691,0.6554,0.613,0.6261,0.6229,0.5715,0.565,0.5505,0.5306,0.5213,0.5113,0.4972,0.5616,0.6067,0.6091,0.6497,0.6648,0.6589,0.6567,0.6383,0.5988,0.5984,0.5954,0.5954,0.5899,0.607,0.6418,0.6245,0.6166,0.6128,0.6106,0.6098,0.6146,0.6808,0.709,0.7277,0.9231,1.0357,1.0967,1.2215,1.2987,1.3312,1.2642,1.28,1.3331,0.0,0.0,0.0,0.0,0.0,0.0,0.0,0.0,0.0,0.0,0.0,0.0,0.0,0.0,0.0,0.0,0.0,0.2239,0.1892,0.232,0.2569,0.2495,0.2602,0.2722,0.2812,0.2823,0.2848,0.2889,0.289,0.2934,0.3014,0.3026,0.3091,0.3244,0.3145,0.3167,0.3235,0.3145,0.3116,0.3169,0.3027,0.3125,0.3331,0.3168,0.3131,0.0,0.292,0.2824,0.2858,0.3069,0.3178,0.3268,0.3533,0.3691,0.3777,0.3772,0.4085,0.4401,0.4473,0.4813,0.5213,0.5526,0.5788,0.6118,0.6497,0.6631,0.666,0.6672,0.6468,0.6279,0.6232,0.6027,0.5841,0.5642,0.5617,0.551,0.51,0.502,0.489,0.4735,0.4613,0.4451,0.4345,0.4763,0.5174,0.5514,0.5899,0.6133,0.6046,0.6044,0.5873,0.5478,0.541,0.5425,0.5425,0.534,0.5528,0.6028,0.6097,0.6136,0.6098,0.6098,0.6098,0.6098,0.6098,0.6098,0.6193,0.7518,0.8351,0.9039,1.0262,1.1058,1.1457,1.0659,1.0407,1.0495,0.0,0.0,0.0,0.0,0.0,0.0,0.0,0.0,0.0,0.0,0.0,0.0,0.0,0.0,0.0,0.0,0.0,0.0,0.1796,0.1918,0.206,0.2263,0.2307,0.2367,0.2494,0.2432,0.2409,0.2504,0.2562,0.265,0.2767,0.2852,0.2939,0.3071,0.2992,0.3013,0.3065,0.3021,0.2949,0.2887,0.2721,0.2602,0.2478,0.2274,0.2138,0.207,0.1864,0.1802,0.1877,0.2316,0.2594,0.2705,0.2638,0.3013,0.3495,0.3584,0.3776,0.4016,0.4012,0.4179,0.4418,0.481,0.5003,0.5261,0.5993,0.6093,0.6017,0.6015,0.5908,0.5726,0.0,0.5058,0.4891,0.5235,0.5003,0.4815,0.4896,0.4776,0.4663,0.0,0.0,0.0,0.0,0.0,0.4136,0.4849,0.5046,0.5096,0.51,0.505,0.4997,0.4942,0.4906,0.4859,0.4859,0.4728,0.491,0.5292,0.5813,0.6051,0.6051,0.6098,0.6098,0.6051,0.6051,0.6051,0.6003,0.6,0.7131,0.8857,0.8644,0.972,1.115,0.9142,0.836,0.8623,0.0,0.0,0.0,0.0,0.0,0.0,0.0,0.0,0.0,0.0,0.0,0.0,0.0,0.0,0.0,0.0,0.0,0.0,0.1731,0.1813,0.1889,0.1987,0.2158,0.2255,0.2265,0.2301,0.2327,0.2342,0.2417,0.2462,0.2515,0.2538,0.2586,0.265,0.262,0.268,0.2734,0.2665,0.2626,0.2602,0.2442,0.2361,0.2265,0.2178,0.2063,0.1956,0.1896,0.1848,0.186,0.2171,0.2545,0.2862,0.2884,0.3068,0.3299,0.346,0.3789,0.4098,0.4274,0.4563,0.4884,0.4997,0.512,0.5217,0.5434,0.5368,0.5271,0.5192,0.4954,0.4677,0.4561,0.4479,0.4365,0.4084,0.4122,0.4099,0.3831,0.377,0.0,0.3593,0.0,0.3434,0.3381,0.341,0.3556,0.3717,0.4517,0.5011,0.5046,0.508,0.4871,0.4419,0.434,0.4299,0.4299,0.4581,0.4714,0.4766,0.5289,0.5482,0.553,0.5908,0.586,0.5482,0.5482,0.5289,0.4999,0.4916,0.516,0.5585,0.5559,0.5823,0.6137,0.5612,0.5397,0.5455,0.0,0.0,0.0,0.0,0.0,0.0,0.0,0.0,0.0,0.0,0.0,0.0,0.0,0.0,0.0,0.0,0.0,0.0,0.0,0.1679,0.1742,0.18,0.1904,0.1964,0.1975,0.1983,0.2038,0.2076,0.2121,0.2177,0.2212,0.2286,0.2331,0.2376,0.2358,0.2378,0.2418,0.2394,0.2352,0.0,0.0,0.2073,0.2028,0.1981,0.1918,0.1869,0.1851,0.1884,0.1909,0.2118,0.2391,0.2644,0.2874,0.307,0.3252,0.3426,0.3673,0.3916,0.3941,0.4157,0.4338,0.4397,0.4403,0.4481,0.4672,0.4589,0.4475,0.4376,0.4108,0.3906,0.3737,0.3621,0.3551,0.3513,0.3519,0.3515,0.3381,0.333,0.3307,0.0,0.3296,0.0,0.325,0.3264,0.3294,0.3337,0.3928,0.4314,0.4284,0.4375,0.4218,0.3864,0.3795,0.373,0.3671,0.4138,0.4306,0.4244,0.4766,0.5006,0.5006,0.5289,0.5289,0.5006,0.5006,0.4861,0.4621,0.4547,0.4512,0.442,0.4424,0.4379,0.4336,0.4316,0.4279,0.4288,0.0,0.0,0.0,0.0,0.0,0.0,0.0,0.0,0.0,0.0,0.0,0.0,0.0,0.0,0.0,0.0,0.0,0.0,0.0,0.0,0.1663,0.1685,0.1641,0.1614,0.1692,0.1643,0.1655,0.1787,0.1789,0.184,0.1973,0.2088,0.2142,0.2135,0.2135,0.2151,0.2142,0.2152,0.2096,0.2041,0.1928,0.1834,0.1783,0.0,0.179,0.179,0.1802,0.1894,0.2002,0.2175,0.2226,0.2318,0.2745,0.3035,0.3212,0.3329,0.35,0.3607,0.3451,0.3465,0.3489,0.3516,0.3476,0.3558,0.3874,0.3845,0.3678,0.3488,0.3376,0.3285,0.3033,0.2771,0.274,0.325,0.3145,0.3094,0.3273,0.3255,0.3258,0.3418,0.3328,0.3305,0.333,0.3309,0.3317,0.3427,0.3407,0.342,0.3412,0.3441,0.344,0.3401,0.334,0.3205,0.3095,0.3548,0.3755,0.372,0.4244,0.448,0.448,0.4575,0.4575,0.448,0.448,0.448,0.4385,0.4379,0.4352,0.4306,0.4219,0.4224,0.4181,0.4136,0.4097,0.4108,0.0,0.0,0.0,0.0,0.0,0.0,0.0,0.0,0.0,0.0,0.3103,0.3054,0.0,0.0,0.0,0.0,0.0,0.0,0.0,0.0,0.0,0.162,0.1609,0.1597,0.1606,0.1597,0.16,0.164,0.1702,0.1731,0.1751,0.1764,0.1785,0.179,0.179,0.1808,0.1862,0.1797,0.1776,0.1763,0.1751,0.1729,0.1721,0.1707,0.0,0.0,0.1872,0.1903,0.1961,0.2256,0.2457,0.257,0.2811,0.3009,0.3145,0.3255,0.3356,0.3434,0.3459,0.3531,0.3576,0.3489,0.3459,0.3394,0.3285,0.3128,0.0,0.2748,0.2576,0.2476,0.2362,0.2411,0.2541,0.2938,0.298,0.3108,0.3419,0.3411,0.339,0.0,0.341,0.339,0.3396,0.3392,0.3403,0.3492,0.3469,0.3465,0.3415,0.3441,0.342,0.3339,0.3226,0.3163,0.3095,0.321,0.3227,0.3243,0.372,0.3958,0.3958,0.4385,0.4337,0.3958,0.3958,0.372,0.3335,0.3309,0.3277,0.3244,0.3164,0.3179,0.3148,0.307,0.3054,0.3045,0.0,0.0,0.0,0.0,0.0,0.0,0.0,0.1857,0.2049,0.2471,0.2531,0.2651,0.3019,0.2772,0.2558,0.0,0.0,0.0,0.0,0.0,0.0,0.0,0.1577,0.1594,0.1594,0.1609,0.1592,0.1592,0.0,0.1639,0.1639,0.1652,0.1659,0.1659,0.1659,0.1667,0.1706,0.1665,0.1659,0.1658,0.1644,0.1656,0.1711,0.0,0.0,0.0,0.0,0.1945,0.2022,0.2226,0.2445,0.2712,0.292,0.3081,0.3213,0.3333,0.3411,0.3472,0.3531,0.358,0.3594,0.3516,0.3408,0.3251,0.2944,0.0,0.0,0.2353,0.2282,0.221,0.2151,0.2275,0.2481,0.2658,0.2788,0.2977,0.3295,0.33,0.3318,0.3496,0.343,0.3412,0.3412,0.3412,0.3425,0.3508,0.3486,0.3483,0.3438,0.3472,0.3382,0.3322,0.3211,0.3152,0.3095,0.3112,0.3082,0.31,0.3338,0.3434,0.3434,0.372,0.3672,0.3434,0.3434,0.3291,0.3099,0.3083,0.3013,0.2981,0.2951,0.2921,0.2891,0.2863,0.2842,0.2781,0.0,0.0,0.0,0.0,0.0,0.0,0.0,0.0756,0.1086,0.1937,0.1999,0.2281,0.3031,0.2812,0.2599,0.0,0.0,0.0,0.0,0.0,0.0,0.0,0.0,0.0,0.1606,0.0,0.0,0.1592,0.1592,0.0,0.0,0.0,0.0,0.0,0.1592,0.1592,0.1592,0.1592,0.1592,0.0,0.0,0.1658,0.0,0.0,0.0,0.0,0.0,0.1966,0.2056,0.2171,0.2393,0.2695,0.2939,0.3151,0.3291,0.337,0.3449,0.3524,0.3576,0.3607,0.3596,0.354,0.3403,0.3159,0.2825,0.2635,0.0,0.2176,0.2147,0.2161,0.2125,0.2253,0.2401,0.2507,0.2593,0.2785,0.3144,0.3172,0.3238,0.3496,0.3434,0.0,0.342,0.3415,0.3425,0.3508,0.3474,0.3479,0.3522,0.3397,0.3345,0.3322,0.3199,0.3139,0.3095,0.3107,0.3124,0.31,0.31,0.31,0.31,0.31,0.31,0.31,0.31,0.31,0.31,0.31,0.3078,0.2995,0.3017,0.2939,0.2904,0.2875,0.2853,0.2833,0.0,0.0,0.0,0.0,0.0,0.0,0.0,0.0698,0.1055,0.2056,0.2035,0.2246,0.309,0.2891,0.2647,0.0,0.0,0.0,0.0,0.0,0.0,0.0,0.0,0.0,0.0,0.0,0.0,0.1592,0.1592,0.0,0.0,0.0,0.0,0.0,0.0,0.1592,0.1592,0.1592,0.0,0.0,0.0,0.0,0.0,0.0,0.0,0.0,0.0,0.1913,0.1947,0.2144,0.2319,0.2439,0.2597,0.2936,0.3283,0.3318,0.0,0.0,0.358,0.3594,0.3572,0.3535,0.3305,0.3041,0.2837,0.0,0.2382,0.2224,0.2143,0.2124,0.2175,0.22,0.2297,0.2554,0.2612,0.2736,0.3138,0.3208,0.3291,0.3476,0.0,0.0,0.3504,0.3427,0.3425,0.3508,0.3434,0.3442,0.3495,0.3388,0.3324,0.3321,0.316,0.3099,0.3093,0.3085,0.3103,0.31,0.31,0.31,0.31,0.31,0.31,0.31,0.31,0.31,0.31,0.31,0.3065,0.3011,0.3009,0.2973,0.2874,0.2844,0.2848,0.2861,0.0,0.0,0.0,0.0,0.0,0.0,-0.0736,-0.073,-0.0417,0.0517,0.0563,0.0818,0.1618,0.1614,0.1876,0.2666,0.0,0.0,0.0,0.0,0.0,0.0,0.0,0.0,0.0,0.0,0.1598,0.1592,0.1592,0.0,0.0,0.0,0.0,0.0,0.0,0.1592,0.1592,0.1592,0.0,0.0,0.0,0.0,0.0,0.0,0.0,0.0,0.0,0.0,0.1963,0.2061,0.2178,0.23,0.2305,0.2555,0.2931,0.3097,0.3253,0.3329,0.3502,0.3562,0.3565,0.3456,0.3243,0.3002,0.278,0.0,0.224,0.2163,0.2099,0.2049,0.2125,0.2147,0.2181,0.2343,0.2352,0.2473,0.2775,0.2887,0.3014,0.3305,0.3333,0.3363,0.3503,0.35,0.3452,0.3482,0.3474,0.3469,0.3475,0.3359,0.3302,0.3321,0.3189,0.3128,0.3095,0.3119,0.3088,0.31,0.31,0.31,0.31,0.31,0.31,0.31,0.31,0.31,0.31,0.31,0.3085,0.3061,0.2996,0.2964,0.2968,0.2893,0.2878,0.2868,0.0,0.0,0.0,0.0,0.0,-0.1558,-0.1561,-0.1642,-0.1389,-0.0483,-0.0377,-0.008,0.0661,0.0789,0.1213,0.2137,0.2259,0.0,0.0,0.0,0.0,0.0,0.0,0.0,0.0,0.0,0.1591,0.1603,0.1613,0.1592,0.0,0.0,0.1592,0.1592,0.0,0.0,0.0,0.0,0.0,0.0,0.0,0.0,0.0,0.0,0.0,0.0,0.0,0.0,0.0,0.0,0.0,0.2134,0.2069,0.2241,0.2532,0.2833,0.3055,0.3227,0.339,0.3491,0.3524,0.3412,0.3187,0.2938,0.0,0.0,0.2177,0.2121,0.2039,0.2027,0.2091,0.2089,0.2136,0.2183,0.2218,0.232,0.2559,0.2683,0.283,0.3129,0.3191,0.3308,0.3378,0.344,0.3479,0.3502,0.3486,0.3471,0.3511,0.3333,0.3276,0.3307,0.3249,0.3144,0.3095,0.3085,0.3103,0.31,0.31,0.31,0.31,0.31,0.31,0.31,0.31,0.31,0.31,0.31,0.3094,0.3083,0.3016,0.2983,0.2945,0.2924,0.2898,0.287,0.0,0.0,0.0,0.0,0.0,0.0,-0.1503,-0.1605,-0.1376,-0.0415,-0.0311,-0.0026,0.0725,0.0864,0.0834,0.0643,0.1355,0.0,0.0,0.0,0.0,0.0,0.0,0.0,0.0,0.0,0.1602,0.1596,0.1602,0.1592,0.1592,0.1592,0.1592,0.1592,0.0,0.0,0.0,0.0,0.0,0.0,0.0,0.0,0.0,0.0,0.0,0.0,0.0,0.0,0.0,0.0,0.0,0.0,0.0,0.2063,0.2185,0.2505,0.2819,0.3125,0.3245,0.3418,0.349,0.3344,0.3141,0.2952,0.2653,0.2401,0.2177,0.2121,0.2039,0.2027,0.2091,0.2089,0.2129,0.2191,0.2238,0.2358,0.2579,0.2707,0.2838,0.2991,0.3083,0.315,0.3221,0.3396,0.3502,0.3502,0.3446,0.3426,0.351,0.3313,0.3245,0.3276,0.322,0.3174,0.3095,0.3112,0.3082,0.31,0.31,0.31,0.31,0.31,0.31,0.31,0.31,0.31,0.31,0.31,0.3082,0.3007,0.3006,0.2969,0.2916,0.2916,0.2898,0.287,0.0,0.0,0.0,0.0,0.0,0.0,0.0,-0.1526,-0.1485,-0.1219,-0.1183,-0.1104,-0.0864,-0.0784,-0.0763,-0.0834,0.0322,0.0,0.0,0.0,0.0,0.0,0.0,0.0,0.0,0.0,0.1742,0.1602,0.1659,0.1637,0.1592,0.1639,0.1637,0.1592,0.1592,0.1592,0.0,0.0,0.0,0.0,0.0,0.0,0.1812,0.0,0.0,0.0,0.0,0.0,0.0,0.0,0.0,0.0,0.0,0.0,0.0,0.2199,0.2507,0.2789,0.2931,0.3028,0.3066,0.2976,0.2863,0.2689,0.2497,0.2318,0.2154,0.2053,0.2024,0.2022,0.2031,0.2075,0.2143,0.2245,0.2303,0.2338,0.2495,0.265,0.2807,0.2958,0.3234,0.3359,0.3383,0.348,0.3502,0.3502,0.3465,0.3482,0.345,0.331,0.3265,0.3276,0.3238,0.3143,0.3095,0.3084,0.3103,0.31,0.31,0.31,0.31,0.31,0.31,0.31,0.31,0.31,0.31,0.31,0.3082,0.3006,0.3006,0.2969,0.2916,0.2916,0.2885,0.2841,0.0,0.0,0.0,0.0,0.0,0.0,0.0,-0.1488,-0.1511,-0.1562,-0.1573,-0.1577,-0.1595,-0.1511,-0.1483,-0.154,-0.0674,0.0,0.0,0.0,0.0,0.0,0.0,0.0,0.0,0.1891,0.1819,0.1635,0.1689,0.17,0.1667,0.1713,0.17,0.1635,0.1635,0.1628,0.0,0.0,0.0,0.0,0.0,0.0,0.1814,0.0,0.0,0.0,0.0,0.0,0.0,0.0,0.0,0.0,0.0,0.0,0.0,0.0,0.2245,0.2459,0.2657,0.2735,0.2833,0.2766,0.2678,0.0,0.2386,0.2271,0.2134,0.2033,0.1987,0.1987,0.1987,0.2059,0.2121,0.2208,0.2256,0.2319,0.2458,0.26,0.2793,0.299,0.3225,0.3395,0.3401,0.3495,0.3509,0.3487,0.3457,0.3414,0.3352,0.3292,0.3258,0.3258,0.324,0.3152,0.3095,0.3093,0.3112,0.31,0.31,0.31,0.31,0.31,0.31,0.31,0.31,0.31,0.0,0.31,0.3082,0.3006,0.3006,0.2962,0.29,0.29,0.287,0.2783,0.0,0.0,0.0,0.0,0.0,0.0,0.0,-0.146,-0.1484,-0.1506,-0.1502,-0.1522,-0.158,-0.144,-0.1378,-0.1508,0.0,0.0,0.0,0.0,0.0,0.0,0.0,0.0,0.1832,0.19,0.1849,0.1688,0.169,0.1746,0.1801,0.1804,0.1773,0.1688,0.1688,0.1673,0.0,0.0,0.0,0.0,0.0,0.0,0.0,0.0,0.0,0.0,0.0,0.0,0.0,0.0,0.0,0.0,0.0,0.0,0.0,0.0,0.0,0.0,0.0,0.2546,0.2646,0.2656,0.2545,0.242,0.2295,0.2183,0.0,0.2022,0.1986,0.1987,0.2022,0.2045,0.2109,0.2116,0.2169,0.2249,0.2371,0.2578,0.2815,0.3076,0.3191,0.3219,0.3322,0.3403,0.3516,0.3515,0.3427,0.3382,0.3321,0.3211,0.3179,0.3179,0.3178,0.315,0.3095,0.3092,0.311,0.31,0.31,0.31,0.31,0.31,0.31,0.31,0.31,0.31,0.31,0.3097,0.3078,0.3003,0.2999,0.2946,0.2919,0.2914,0.2849,0.2821,0.0,0.0,0.0,0.0,0.0,0.0,0.0,0.0,0.0,0.0,-0.146,-0.1429,-0.1443,-0.095,-0.0636,0.0,0.0,0.0,0.0,0.0,0.0,0.0,0.0,0.0,0.2108,0.2129,0.1998,0.1688,0.169,0.1708,0.1715,0.1765,0.1773,0.1688,0.1688,0.1685,0.0,0.0,0.0,0.0,0.0,0.0,0.0,0.0,0.0,0.0,0.1814,0.1841,0.0,0.0,0.0,0.0,0.0,0.0,0.0,0.0,0.2018,0.2021,0.2084,0.0,0.2315,0.226,0.2203,0.2176,0.0,0.2078,0.2081,0.2028,0.2004,0.2026,0.2081,0.2091,0.2138,0.2228,0.226,0.2319,0.2462,0.2762,0.3025,0.318,0.3341,0.3426,0.3393,0.3464,0.3495,0.3514,0.346,0.3351,0.329,0.325,0.3179,0.3179,0.3209,0.318,0.3095,0.3119,0.3089,0.31,0.31,0.31,0.31,0.31,0.31,0.31,0.31,0.31,0.3099,0.3026,0.2999,0.3014,0.2923,0.2893,0.2913,0.2822,0.28,0.2789,0.0,0.0,0.0,0.0,0.0,0.0,0.0,0.0,0.0,0.0,0.0,-0.1391,-0.1391,-0.1077,0.0,0.0,0.0,0.0,0.0,0.0,0.0,0.0,0.0,0.2703,0.2216,0.2236,0.2072,0.1756,0.1745,0.174,0.1739,0.1783,0.1752,0.1707,0.1679,0.1675,0.0,0.0,0.0,0.0,0.1811,0.0,0.0,0.0,0.0,0.0,0.1813,0.181,0.0,0.19,0.193,0.1958,0.0,0.0,0.0,0.0,0.1988,0.1999,0.1999,0.2065,0.2159,0.2093,0.2087,0.208,0.2046,0.2063,0.2046,0.2015,0.1989,0.2004,0.2052,0.2066,0.2083,0.2243,0.2263,0.2378,0.2624,0.2861,0.3129,0.327,0.338,0.3454,0.349,0.3499,0.3484,0.344,0.338,0.332,0.3258,0.3239,0.3179,0.3179,0.3189,0.316,0.3093,0.3112,0.3082,0.31,0.31,0.31,0.31,0.31,0.31,0.31,0.31,0.31,0.3097,0.302,0.2988,0.3003,0.2911,0.2876,0.2849,0.2816,0.2795,0.2781,0.0,0.0,0.0,0.0,0.0,0.0,0.0,0.0,0.0,0.0,0.0,0.0,0.0,0.0,0.0,0.0,0.0,0.0,0.0,0.0,0.0,0.0,0.2385,0.2688,0.2156,0.2213,0.208,0.1791,0.1805,0.1811,0.1805,0.1814,0.1767,0.1703,0.1656,0.165,0.0,0.0,0.0,0.0,0.1812,0.0,0.0,0.0,0.0,0.0,0.0,0.0,0.0,0.187,0.1902,0.1904,0.1956,0.0,0.0,0.0,0.0,0.0,0.2017,0.2048,0.2106,0.2093,0.2074,0.2088,0.2084,0.2044,0.2008,0.2008,0.2008,0.2013,0.2031,0.2023,0.2074,0.2213,0.2288,0.2474,0.2803,0.2942,0.3143,0.3377,0.3434,0.3441,0.3544,0.352,0.3471,0.341,0.3348,0.329,0.3183,0.3175,0.3224,0.3224,0.3117,0.3087,0.3087,0.3106,0.3078,0.31,0.31,0.31,0.31,0.31,0.31,0.31,0.3094,0.3093,0.309,0.3007,0.2977,0.2998,0.2916,0.2872,0.2783,0.2774,0.2799,0.2776,0.0,0.0,0.0,0.0,0.0,0.0,0.0,0.0,0.0,0.0,0.0,0.0,0.0,0.0,0.0,0.0,0.0,0.0,0.0,0.0,0.0,-0.0542,0.1513,0.2426,0.1954,0.1961,0.1882,0.1728,0.1778,0.1793,0.1804,0.1854,0.1816,0.1705,0.1749,0.1745,0.17,0.0,0.0,0.0,0.1793,0.0,0.0,0.0,0.0,0.0,0.0,0.0,0.0,0.1817,0.1855,0.1898,0.1906,0.0,0.0,0.0,0.0,0.0,0.2062,0.2079,0.2091,0.2016,0.2011,0.2019,0.2027,0.2013,0.2008,0.2008,0.2008,0.2038,0.2142,0.2164,0.2222,0.2356,0.2504,0.2733,0.296,0.3155,0.3294,0.3284,0.3448,0.3513,0.3464,0.3493,0.3493,0.3431,0.3317,0.3268,0.3182,0.3208,0.3194,0.3194,0.3135,0.3104,0.3104,0.3122,0.3104,0.31,0.31,0.31,0.31,0.31,0.31,0.3099,0.3025,0.3014,0.3009,0.2953,0.2927,0.2917,0.2863,0.2793,0.2778,0.2727,0.2705,0.2699,0.0,0.0,0.0,0.0,0.0,0.0,0.0,0.0,0.0,0.0,0.0,0.0,0.0,0.0,0.0,0.0,0.0,0.0,0.0,0.0,-0.0801,-0.0982,0.0241,0.0963,0.103,0.1677,0.1915,0.1761,0.1775,0.182,0.1868,0.1847,0.1826,0.1756,0.1753,0.1718,0.1707,0.1764,0.0,0.0,0.0,0.0,0.0,0.0,0.0,0.0,0.0,0.0,0.0,0.0,0.1841,0.1904,0.1891,0.0,0.0,0.0,0.0,0.0,0.1981,0.2026,0.2059,0.205,0.2071,0.2113,0.2066,0.2055,0.2055,0.2055,0.2055,0.2088,0.2193,0.2218,0.2331,0.2578,0.2767,0.2919,0.3021,0.3133,0.324,0.3337,0.3405,0.3449,0.3461,0.343,0.3449,0.3421,0.3295,0.3238,0.3209,0.3195,0.318,0.3164,0.312,0.3097,0.3097,0.3115,0.31,0.31,0.3083,0.3083,0.31,0.31,0.309,0.3026,0.3013,0.2998,0.2979,0.2934,0.2906,0.2889,0.2845,0.2785,0.2779,0.2778,0.2773,0.2735,0.0,0.0,0.0,0.0,0.0,0.0,0.0,0.0,0.0,0.0,0.0,0.0,0.0,0.0,0.0,0.0,0.0,0.0,0.0,0.0,-0.1893,-0.1887,-0.1391,-0.0842,-0.0225,0.1006,0.1557,0.1374,0.1682,0.1873,0.191,0.1864,0.1804,0.1787,0.1744,0.1729,0.1718,0.1782,0.1808,0.0,0.0,0.0,0.0,0.0,0.0,0.0,0.0,0.0,0.0,0.0,0.0,0.0,0.0,0.0,0.0,0.1902,0.1907,0.1896,0.1924,0.1959,0.2031,0.2086,0.211,0.2157,0.216,0.2143,0.2139,0.2174,0.2177,0.2197,0.2248,0.2358,0.2523,0.2782,0.2957,0.3082,0.315,0.3193,0.327,0.3415,0.3392,0.3403,0.3448,0.3425,0.3413,0.3399,0.3268,0.321,0.3189,0.3175,0.3156,0.3084,0.3103,0.3086,0.3086,0.3104,0.3093,0.31,0.3028,0.3029,0.31,0.3092,0.3029,0.3006,0.2991,0.2972,0.2995,0.2919,0.2894,0.2916,0.2848,0.2834,0.2781,0.2795,0.2797,0.2808,0.0,0.0,0.0,0.0,0.0,0.0,0.0,0.0,0.0,0.0,0.0,0.0,0.0,0.0,0.0,0.0,0.0,0.0,0.0,0.0,-0.3902,-0.4501,-0.3544,-0.2604,-0.177,-0.0431,0.022,0.014,0.1371,0.1998,0.2003,0.1937,0.1845,0.1793,0.179,0.18,0.1805,0.1809,0.179,0.1797,0.0,0.0,0.0,0.0,0.0,0.0,0.0,0.0,0.0,0.0,0.0,0.0,0.0,0.0,0.1894,0.1891,0.191,0.1913,0.2056,0.2037,0.2026,0.2091,0.2048,0.2078,0.2234,0.2249,0.223,0.2369,0.2375,0.2412,0.2476,0.2656,0.2795,0.2973,0.3097,0.3245,0.3335,0.345,0.3504,0.3491,0.3493,0.3471,0.3426,0.3388,0.3395,0.3287,0.3225,0.319,0.3189,0.3135,0.3103,0.3101,0.3119,0.3103,0.3103,0.3025,0.3024,0.31,0.3097,0.3097,0.3099,0.3022,0.3009,0.3003,0.2947,0.2921,0.2917,0.2889,0.292,0.2919,0.2916,0.2853,0.2781,0.2795,0.2785,0.2785,0.0,0.0,0.0,0.0,0.0,0.0,0.0,0.0,0.0,0.0,0.0,0.0,0.0,0.0,0.0,0.0,0.0,0.0,0.0,-0.3658,-0.4044,-0.4402,-0.4051,-0.384,-0.3878,-0.2131,-0.1249,-0.1309,-0.0707,-0.0402,-0.0334,0.0326,0.0662,0.07,0.1451,0.1799,0.1807,0.1794,0.1805,0.1798,0.18,0.0,0.0,0.0,0.0,0.0,0.0,0.0,0.0,0.0,0.1809,0.181,0.1832,0.1868,0.1879,0.1853,0.188,0.1925,0.1972,0.1985,0.203,0.208,0.2098,0.2139,0.2274,0.2308,0.2349,0.2481,0.2512,0.2541,0.2622,0.2777,0.2967,0.3052,0.317,0.3299,0.3333,0.3407,0.3508,0.3448,0.3429,0.3416,0.3412,0.335,0.3352,0.3277,0.3221,0.3172,0.3134,0.311,0.3089,0.3118,0.3106,0.31,0.31,0.3022,0.3013,0.3024,0.3024,0.3024,0.3024,0.3011,0.2986,0.2949,0.2926,0.2906,0.2889,0.2879,0.2863,0.2845,0.2845,0.2827,0.2799,0.2788,0.2795,0.2806,0.0,0.0,0.0,0.0,0.0,0.0,0.0,0.0,0.0,0.0,0.0,0.0,0.0,0.0,0.0,0.0,0.0,0.0,-0.3463,-0.3868,-0.4188,-0.4351,-0.4431,-0.4676,-0.519,-0.3808,-0.2919,-0.2548,-0.2115,-0.186,-0.1773,-0.1025,-0.0431,0.0057,0.0866,0.1444,0.1808,0.181,0.1812,0.1798,0.18,0.1794,0.0,0.0,0.0,0.0,0.0,0.0,0.0,0.0,0.1812,0.1814,0.1832,0.1874,0.188,0.1849,0.1877,0.1885,0.1885,0.193,0.1992,0.2052,0.2125,0.2217,0.2381,0.2444,0.2523,0.2693,0.2729,0.2706,0.2769,0.2879,0.3031,0.3103,0.3209,0.3328,0.3347,0.3395,0.3474,0.34,0.338,0.3371,0.3382,0.3326,0.3281,0.3262,0.3208,0.3152,0.31,0.3088,0.3122,0.31,0.31,0.3096,0.3085,0.3017,0.3002,0.2992,0.2992,0.2992,0.2992,0.2983,0.2956,0.2916,0.2906,0.2891,0.2919,0.2919,0.2861,0.2842,0.2842,0.2825,0.2797,0.2797,0.2804,0.2808,0.0,0.0,0.0,0.0,0.0,0.0,0.0,0.0,0.0,0.0,0.0,0.0,0.0,0.0,0.0,0.0,0.0,0.0,-0.4361,-0.452,-0.4638,-0.4704,-0.4905,-0.5126,-0.5397,-0.5463,-0.4857,-0.3526,-0.2462,-0.1889,-0.1832,-0.1895,-0.1204,0.0059,0.0029,0.066,0.1784,0.1872,0.185,0.1798,0.18,0.1794,0.0,0.0,0.0,0.0,0.0,0.0,0.0,0.0,0.1803,0.1799,0.1892,0.191,0.1892,0.1892,0.191,0.1887,0.1885,0.1887,0.1931,0.1994,0.2113,0.2267,0.2552,0.2602,0.2679,0.2952,0.2962,0.292,0.292,0.2968,0.3039,0.3082,0.3223,0.3341,0.3401,0.3385,0.3418,0.3418,0.3418,0.3354,0.3324,0.3321,0.3295,0.3183,0.3125,0.3081,0.3099,0.3117,0.31,0.31,0.31,0.3085,0.3006,0.3006,0.2991,0.3007,0.3007,0.3007,0.3006,0.293,0.2915,0.2913,0.2886,0.2919,0.2919,0.2919,0.2919,0.2919,0.2919,0.2855,0.2785,0.2783,0.2808,0.2784,0.0,0.0,0.0,0.0,0.0,0.0,0.0,0.0,0.0,0.0,0.0,0.0,0.0,0.0,0.0,0.0,0.0,0.0,-0.4388,-0.452,-0.4638,-0.4704,-0.4941,-0.5047,-0.4972,-0.5183,-0.5232,-0.5111,-0.4704,-0.4453,-0.439,-0.3605,-0.298,-0.244,-0.0847,0.0113,0.0593,0.1459,0.1819,0.1798,0.18,0.1794,0.18,0.0,0.0,0.0,0.0,0.0,0.0,0.0,0.0,0.0,0.182,0.1906,0.1973,0.1909,0.1909,0.1879,0.1836,0.19,0.1999,0.205,0.2222,0.2382,0.2611,0.2669,0.275,0.3025,0.3058,0.3046,0.3046,0.3078,0.3066,0.3093,0.3205,0.3288,0.3284,0.3332,0.3343,0.3279,0.329,0.3299,0.329,0.3269,0.3242,0.3204,0.3116,0.312,0.3117,0.3104,0.309,0.3021,0.3021,0.3006,0.3021,0.2954,0.2938,0.293,0.2909,0.2945,0.2945,0.289,0.2863,0.2823,0.2836,0.2842,0.2844,0.2866,0.2919,0.2917,0.2851,0.2823,0.2795,0.273,0.2773,0.278,0.0,0.0,0.0,0.0,0.0,0.0,0.0,0.0,0.0,0.0,0.0,0.0,0.0,0.0,0.0,0.0,0.0,0.0,0.0,-0.452,-0.4638,-0.4704,-0.4932,-0.5035,-0.4972,-0.5209,-0.5427,-0.5565,-0.5553,-0.5516,-0.5455,-0.4782,-0.3884,-0.2799,-0.1436,-0.0258,0.0764,0.1524,0.1829,0.1798,0.18,0.1801,0.1817,0.0,0.0,0.0,0.0,0.0,0.0,0.0,0.0,0.0,0.1798,0.184,0.1931,0.1889,0.1881,0.1848,0.1848,0.1925,0.2007,0.2132,0.2322,0.2534,0.275,0.2841,0.2924,0.3124,0.3135,0.3122,0.3086,0.3093,0.3101,0.3114,0.3195,0.3251,0.3182,0.3277,0.3292,0.3186,0.3246,0.3262,0.3275,0.3238,0.3201,0.3172,0.3131,0.3081,0.3067,0.3063,0.3049,0.2972,0.2971,0.2957,0.2973,0.2909,0.29,0.29,0.2882,0.2868,0.2856,0.2868,0.2848,0.2803,0.2833,0.2846,0.2848,0.2867,0.2919,0.2917,0.2853,0.2827,0.2799,0.2738,0.2778,0.2781,0.0,0.0,0.0,0.0,0.0,0.0,0.0,0.0,0.0,0.0,0.0,0.0,0.0,0.0,0.0,0.0,0.0,0.0,0.0,0.0,-0.4646,-0.4704,-0.4909,-0.5071,-0.5224,-0.5451,-0.5443,-0.5191,-0.537,-0.5443,-0.5369,-0.5342,-0.4069,-0.1849,-0.1696,-0.0413,0.1637,0.1799,0.1836,0.1793,0.1793,0.1804,0.1804,0.1806,0.0,0.0,0.0,0.0,0.0,0.0,0.0,0.0,0.1794,0.1793,0.181,0.1865,0.1842,0.1819,0.1877,0.1958,0.203,0.2183,0.2432,0.2704,0.2962,0.304,0.3116,0.317,0.3142,0.3118,0.3093,0.3126,0.3116,0.3091,0.3142,0.3178,0.3172,0.3174,0.3175,0.3172,0.3172,0.3232,0.3257,0.3212,0.3167,0.3084,0.308,0.307,0.3011,0.3007,0.2946,0.2913,0.2915,0.2901,0.287,0.2917,0.2919,0.2919,0.2919,0.2856,0.2782,0.2856,0.2855,0.2786,0.2857,0.2916,0.2919,0.2919,0.2919,0.2919,0.2871,0.2853,0.2785,0.2782,0.2808,0.2787,0.0,0.0,0.0,0.0,0.0,0.0,0.0,0.0,0.0,0.0,0.0,0.0,0.0,0.0,0.0,0.0,0.0,0.0,0.0,0.0,-0.4687,-0.4708,-0.4945,-0.5165,-0.5349,-0.5267,-0.5161,-0.503,-0.5183,-0.5264,-0.5221,-0.43,-0.3576,-0.3027,-0.1244,-0.0143,0.045,0.1357,0.1757,0.1787,0.1794,0.1797,0.18,0.1795,0.181,0.0,0.0,0.0,0.0,0.0,0.0,0.0,0.18,0.1808,0.1805,0.1817,0.1812,0.1817,0.1883,0.1988,0.2138,0.2358,0.2692,0.2955,0.3039,0.3101,0.3081,0.3119,0.3161,0.3197,0.3182,0.3191,0.3139,0.31,0.3142,0.3164,0.3119,0.3182,0.3189,0.3115,0.3112,0.3105,0.3138,0.3125,0.3095,0.304,0.3024,0.3001,0.301,0.3007,0.2984,0.2885,0.2904,0.2891,0.2838,0.2861,0.2919,0.2919,0.2919,0.2845,0.2795,0.2825,0.2834,0.2785,0.2836,0.2852,0.2919,0.2919,0.2919,0.2916,0.2848,0.2834,0.2782,0.2801,0.2804,0.2815,0.0,0.0,0.0,0.0,0.0,0.0,0.0,0.0,0.0,0.0,0.0,0.0,0.0,0.0,0.0,0.0,0.0,0.0,0.0,0.0,-0.472,-0.4892,-0.5157,-0.5284,-0.5251,-0.5243,-0.5128,-0.4908,-0.5047,-0.511,-0.5128,-0.3975,-0.3164,-0.2553,-0.086,0.0255,0.0913,0.1508,0.1776,0.1805,0.1793,0.1799,0.1801,0.1789,0.1767,0.1753,0.171,0.0,0.0,0.0,0.0,0.0,0.0,0.0,0.1802,0.1804,0.1801,0.1812,0.1915,0.2049,0.2243,0.2577,0.2836,0.3028,0.3106,0.3099,0.3116,0.31,0.3157,0.3201,0.3172,0.3129,0.3128,0.3099,0.3119,0.3128,0.3097,0.3107,0.316,0.3096,0.3081,0.312,0.3119,0.308,0.3041,0.3009,0.298,0.295,0.2967,0.2964,0.2938,0.2833,0.2859,0.2852,0.2807,0.2837,0.2852,0.2852,0.2852,0.2827,0.2784,0.2785,0.2764,0.2849,0.2834,0.2845,0.2919,0.2919,0.2919,0.2917,0.2856,0.2851,0.2848,0.2833,0.2837,0.2848,0.0,0.0,0.0,0.0,0.0,0.0,0.0,0.0,0.0,0.0,0.0,0.0,0.0,0.0,0.0,0.0,0.0,0.0,0.0,0.0,0.0,-0.5092,-0.532,-0.5341,-0.511,-0.5251,-0.5161,-0.4834,-0.492,-0.501,-0.5106,-0.3983,-0.2834,-0.1664,-0.0571,0.0617,0.1804,0.1787,0.1784,0.1791,0.1789,0.1772,0.1772,0.1772,0.0,0.1697,0.1697,0.17,0.1708,0.1767,0.0,0.0,0.0,0.0,0.1787,0.1787,0.181,0.1819,0.1964,0.2123,0.2331,0.2687,0.2866,0.3014,0.3071,0.3061,0.3081,0.3076,0.313,0.3171,0.3092,0.3091,0.3091,0.308,0.3087,0.3088,0.3073,0.3076,0.3074,0.3064,0.3095,0.3088,0.3054,0.304,0.2995,0.2984,0.2932,0.2893,0.292,0.287,0.2842,0.2792,0.2815,0.2814,0.2784,0.2808,0.2821,0.2821,0.2771,0.2803,0.2782,0.2699,0.2769,0.2849,0.2823,0.2827,0.2851,0.2856,0.2861,0.2867,0.2917,0.2919,0.2919,0.2919,0.2919,0.2919,0.0,0.0,0.0,0.0,0.0,0.0,0.0,0.0,0.0,0.0,0.0,0.0,0.0,0.0,0.0,0.0,0.0,0.0,0.0,0.0,0.0,-0.51,-0.5141,-0.5155,-0.5199,-0.5096,-0.5028,-0.4979,-0.4888,-0.4956,-0.5172,-0.3899,-0.2751,-0.1663,-0.0529,0.0659,0.1799,0.1667,0.165,0.17,0.1704,0.1706,0.1706,0.0,0.0,0.0,0.1693,0.171,0.1708,0.1767,0.1804,0.0,0.0,0.0,0.1811,0.1791,0.1807,0.1811,0.1879,0.2183,0.2482,0.2691,0.2833,0.2931,0.3011,0.2996,0.3011,0.3032,0.307,0.3091,0.311,0.3076,0.3077,0.3121,0.3108,0.3066,0.3036,0.3047,0.3092,0.3039,0.3005,0.2999,0.2951,0.296,0.2992,0.2896,0.286,0.2851,0.2917,0.2849,0.2831,0.2778,0.2782,0.2814,0.2784,0.2788,0.2789,0.2789,0.2762,0.2762,0.2781,0.2654,0.2652,0.2712,0.2708,0.2709,0.2715,0.2785,0.2811,0.2837,0.2864,0.2919,0.2919,0.2919,0.2919,0.2919,0.0,0.0,0.0,0.0,0.0,0.0,0.0,0.0,0.0,0.0,0.0,0.0,0.0,0.0,0.0,0.0,0.0,0.0,0.0,0.0,0.0,-0.4923,-0.5006,-0.5051,-0.5092,-0.504,-0.497,-0.4896,-0.483,-0.4976,0.0,-0.474,-0.392,-0.2873,-0.1586,-0.0382,0.0681,0.0697,0.1097,0.1688,0.1688,0.1688,0.0,0.0,0.0,0.0,0.0,0.0,0.166,0.1717,0.1754,0.1732,0.1735,0.0,0.0,0.0,0.18,0.1853,0.2014,0.2259,0.2512,0.2705,0.2815,0.2883,0.2993,0.3018,0.2977,0.301,0.3003,0.3037,0.3024,0.3046,0.3052,0.3056,0.3024,0.3033,0.301,0.3003,0.3045,0.2988,0.2984,0.2971,0.2943,0.2938,0.2926,0.29,0.2871,0.286,0.2919,0.2861,0.2838,0.2804,0.2819,0.2762,0.2758,0.2774,0.2774,0.2758,0.2727,0.272,0.2731,0.2691,0.2654,0.2693,0.272,0.268,0.2696,0.2752,0.2776,0.2803,0.2799,0.2818,0.2848,0.2848,0.2859,0.2919,0.0,0.0,0.0,0.0,0.0,0.0,0.0,0.0,0.0,0.0,0.0,0.0,0.0,0.0,0.0,0.0,0.0,0.0,0.0,0.0,0.0,-0.4773,-0.4867,-0.4942,-0.4937,-0.4937,-0.4904,-0.4809,-0.4809,0.0,-0.5409,-0.5409,-0.5043,0.0,-0.298,-0.1717,0.0,0.0,0.0,0.0,0.0,0.0,0.0,0.0,0.0,0.0,0.0,0.0,0.0,0.0,0.1688,0.1693,0.1696,0.1704,0.0,0.0,0.0,0.1839,0.2063,0.2236,0.2371,0.2628,0.2737,0.2806,0.2941,0.2974,0.2985,0.2985,0.2985,0.2982,0.293,0.2965,0.2988,0.3011,0.3007,0.301,0.2972,0.2953,0.2988,0.2949,0.2936,0.297,0.2963,0.2902,0.2893,0.2893,0.2867,0.2902,0.2919,0.2852,0.2826,0.2796,0.2795,0.2772,0.2684,0.2733,0.2725,0.2661,0.268,0.2669,0.2669,0.2662,0.2671,0.2692,0.2684,0.2694,0.2673,0.268,0.2744,0.277,0.2755,0.273,0.2763,0.2779,0.2838,0.2898,0.0,0.0,0.0,0.0,0.0,0.0,0.0,0.0,0.0,0.0,0.0,0.0,0.0,-0.4437,-0.4304,-0.43,0.0,0.0,0.0,0.0,0.0,-0.4712,-0.472,0.0,-0.4813,-0.4817,-0.4813,-0.4809,-0.4809,0.0,-0.5409,-0.5409,-0.554,-0.5739,-0.446,-0.3138,-0.1842,0.0,0.0,0.0,0.0,0.0,0.0,0.0,0.0,0.0,0.0,0.0,0.0,0.0,0.0,0.0,0.0,0.1704,0.1704,0.0,0.0,0.0,0.1881,0.2002,0.2174,0.2351,0.2511,0.2638,0.2772,0.2881,0.2924,0.2924,0.2924,0.287,0.2841,0.2905,0.301,0.3007,0.3007,0.2988,0.2934,0.2924,0.2902,0.2801,0.2819,0.2825,0.2796,0.2816,0.2789,0.2789,0.2806,0.2814,0.2916,0.2792,0.2727,0.2781,0.2744,0.2698,0.2695,0.2639,0.2611,0.2608,0.2607,0.2607,0.2605,0.262,0.2607,0.2613,0.2585,0.2609,0.2613,0.2683,0.2713,0.27,0.277,0.2765,0.2707,0.2763,0.2811,0.2796,0.0,0.0,0.0,0.0,0.0,0.0,0.0,0.0,0.0,0.0,0.0,0.0,0.0,-0.4403,-0.4338,-0.4304,-0.43,0.0,0.0,0.0,0.0,-0.4638,-0.4646,-0.4687,-0.4805,-0.4809,-0.4809,-0.4809,-0.4809,-0.4968,-0.5268,-0.5353,-0.5512,-0.5673,-0.5149,-0.4249,-0.3066,-0.1713,0.0,0.0,0.0,0.0,0.0,0.0,0.0,0.0,0.0,0.0,0.0,0.0,0.0,0.0,0.0,0.0,0.0,0.1697,0.1753,0.1829,0.1873,0.2004,0.2121,0.2294,0.2436,0.2552,0.2664,0.2716,0.2787,0.2787,0.2801,0.2812,0.2801,0.2841,0.287,0.2851,0.2891,0.2846,0.2845,0.2827,0.2815,0.2812,0.2822,0.2781,0.2814,0.2778,0.2837,0.2856,0.2811,0.2792,0.2815,0.2785,0.275,0.2671,0.2638,0.2594,0.2578,0.2556,0.2545,0.2545,0.2566,0.2615,0.2615,0.2583,0.2586,0.2587,0.2608,0.2608,0.2593,0.2622,0.2652,0.2638,0.2649,0.2671,0.2697,0.2719,0.2776,0.2787,0.0,0.0,0.0,0.0,0.0,0.0,0.0,0.0,0.0,0.0,0.0,0.0,0.0,0.0,-0.4342,-0.4304,-0.43,-0.43,-0.43,-0.43,-0.4381,-0.4589,-0.4597,-0.4655,-0.4805,-0.4781,-0.4781,-0.4809,-0.4781,-0.4907,-0.5175,-0.5263,-0.5386,-0.552,-0.5369,-0.4964,0.0,0.0,0.0,-0.0569,0.0,0.0,0.1636,0.0,0.0,0.0,0.0,0.0,0.0,0.0,0.0,0.0,0.0,0.0,0.0,0.0,0.0,0.1768,0.1849,0.1928,0.203,0.2236,0.2348,0.2442,0.2545,0.2598,0.2629,0.2658,0.2681,0.2744,0.2765,0.2767,0.2728,0.2781,0.2784,0.2784,0.2782,0.2766,0.2752,0.2752,0.2752,0.2752,0.2752,0.2752,0.2765,0.2796,0.2761,0.2747,0.2767,0.2748,0.2701,0.262,0.2598,0.2559,0.25,0.2489,0.2484,0.2484,0.2504,0.2559,0.257,0.2548,0.2563,0.2571,0.2562,0.2563,0.2615,0.2594,0.2619,0.2606,0.2606,0.263,0.2668,0.2688,0.2744,0.2755,0.0,0.0,0.0,0.0,0.0,0.0,0.0,0.0,0.0,-0.4411,0.0,0.0,0.0,0.0,0.0,-0.4308,-0.4308,-0.4304,-0.43,-0.43,-0.4381,-0.4589,0.0,0.0,-0.4805,-0.4728,-0.4728,-0.4809,-0.4728,-0.4847,-0.51,-0.5104,-0.5202,-0.5393,-0.519,-0.5276,-0.5502,0.0,-0.3098,-0.193,0.0,0.0649,0.1648,0.0,0.0,0.0,0.1812,0.1804,0.0,0.1718,0.0,0.0,0.0,0.0,0.0,0.0,0.0,0.0,0.0,0.0,0.0,0.2124,0.2203,0.2241,0.2453,0.2481,0.253,0.2579,0.2598,0.2618,0.2679,0.2644,0.2633,0.2763,0.2778,0.2758,0.2698,0.269,0.2668,0.2608,0.2602,0.2602,0.2602,0.2602,0.2616,0.2605,0.2605,0.2629,0.2687,0.2632,0.2574,0.2597,0.2536,0.2505,0.2503,0.2436,0.2383,0.2383,0.2383,0.2438,0.2505,0.2506,0.2484,0.251,0.248,0.2517,0.2597,0.2598,0.2617,0.2603,0.2605,0.2606,0.2614,0.2672,0.2718,0.2701,0.0,0.0,0.0,0.0,0.0,0.0,-0.418,-0.4358,-0.4512,0.0,0.0,0.0,-0.4415,-0.4471,-0.4519,-0.4519,-0.4519,-0.4466,-0.4308,-0.43,-0.4381,-0.4589,-0.4597,-0.4655,-0.4805,-0.4785,-0.4785,-0.4809,-0.4785,-0.4813,-0.4887,-0.4977,-0.5071,-0.5186,-0.5171,-0.5236,-0.5226,-0.3921,0.0,-0.2915,-0.0836,0.0132,0.0,0.0,0.0,0.0,0.0,0.1804,0.1785,0.0,0.1783,0.1775,0.0,0.0,0.0,0.0,0.0,0.0,0.1702,0.0,0.0,0.0,0.0,0.0,0.2132,0.2218,0.2319,0.2429,0.247,0.2472,0.2593,0.2612,0.2623,0.2647,0.2652,0.2646,0.263,0.2627,0.262,0.2604,0.2581,0.2593,0.2593,0.2593,0.2606,0.2677,0.2639,0.2613,0.2609,0.253,0.244,0.2462,0.2424,0.2393,0.2371,0.2326,0.2322,0.2322,0.238,0.2395,0.2441,0.2427,0.244,0.241,0.2439,0.245,0.2476,0.2521,0.2556,0.2587,0.259,0.262,0.2682,0.2699,0.2699,0.2695,0.0,0.0,0.0,0.0,0.0,-0.4634,-0.4491,-0.4561,-0.4598,0.0,0.0,0.0,-0.4529,-0.463,-0.4667,-0.463,-0.4654,-0.4553,-0.4346,-0.4334,-0.4422,-0.4589,-0.4597,-0.4655,-0.4805,-0.4777,-0.4773,-0.4809,-0.4773,-0.4777,-0.4809,-0.4888,-0.4945,-0.4972,0.0,0.0,0.0,0.0,0.0,0.0,-0.1947,0.0,0.0,0.0727,0.1357,0.0,0.0,0.0,0.1879,0.1843,0.181,0.0,0.0,0.0,0.0,0.0,0.0,0.0,0.0,0.0,0.0,0.0,0.0,0.0,0.1975,0.2064,0.2144,0.2277,0.2328,0.2343,0.2484,0.2506,0.2512,0.2525,0.2517,0.2526,0.2577,0.2585,0.2579,0.2567,0.257,0.2572,0.2572,0.2522,0.2526,0.2597,0.2555,0.2526,0.2561,0.2459,0.2386,0.2386,0.2382,0.235,0.2296,0.2296,0.2296,0.2296,0.235,0.2365,0.2416,0.2397,0.2412,0.2385,0.241,0.2405,0.2408,0.2443,0.2491,0.2545,0.2592,0.2637,0.2675,0.2688,0.2692,0.2691,0.0,0.0,-0.4712,-0.472,-0.4777,-0.4809,-0.4749,-0.4753,-0.4741,0.0,-0.4671,-0.4708,-0.4773,-0.4817,-0.4826,-0.4748,-0.4749,-0.4635,-0.4452,-0.4432,-0.4468,-0.4609,-0.4609,-0.4663,-0.4805,-0.4736,-0.4736,-0.4809,-0.4736,-0.4736,-0.4809,-0.4809,-0.4809,-0.4809,0.0,0.0,0.0,0.0,0.0,-0.3645,-0.3252,-0.1936,0.0,0.0,0.0964,0.1908,0.1963,0.1992,0.2005,0.1919,0.1866,0.0,0.0,0.0,0.0,0.0,0.1647,0.0,0.0,0.0,0.0,0.0,0.0,0.0,0.194,0.1977,0.2003,0.2146,0.2162,0.2216,0.233,0.2372,0.2367,0.239,0.2382,0.2451,0.2568,0.2585,0.2574,0.2507,0.248,0.2502,0.2502,0.2439,0.2435,0.25,0.2436,0.2431,0.2496,0.2427,0.2371,0.2371,0.2316,0.2288,0.2292,0.2292,0.2293,0.2296,0.2296,0.2348,0.2373,0.2373,0.2388,0.2374,0.2384,0.2373,0.2373,0.2373,0.2427,0.2512,0.2586,0.2596,0.2609,0.2682,0.2692,0.2688,0.0,0.0,-0.4704,-0.4773,-0.4919,-0.5022,-0.4958,-0.5047,-0.5106,-0.509,-0.5086,-0.5122,-0.5239,-0.5171,-0.5103,-0.5114,-0.5006,-0.4847,-0.4667,-0.4585,-0.4585,-0.4679,-0.4683,-0.4728,-0.4805,-0.4793,-0.4793,-0.4809,-0.4793,-0.4793,-0.4809,-0.4809,-0.4809,-0.4809,-0.4809,-0.4809,0.0,0.0,0.0,-0.4608,-0.2644,-0.1733,-0.1312,0.0766,0.1714,0.1966,0.1947,0.1943,0.1977,0.1914,0.1869,0.1804,0.0,0.0,0.0,0.1742,0.0,0.0,0.0,0.0,0.0,0.0,0.0,0.0,0.1844,0.1853,0.1867,0.1999,0.2024,0.2059,0.2153,0.2206,0.2229,0.2244,0.2282,0.233,0.244,0.245,0.2448,0.2403,0.2436,0.2432,0.2432,0.2389,0.2387,0.2432,0.2405,0.239,0.2433,0.2346,0.2316,0.2316,0.2245,0.2238,0.2298,0.2298,0.2311,0.2296,0.2296,0.2299,0.2305,0.2305,0.2308,0.2314,0.2308,0.2305,0.2305,0.2305,0.2395,0.2523,0.2578,0.2596,0.2609,0.2682,0.2692,0.2688,0.0,0.0,-0.4789,-0.4923,-0.5057,-0.5151,-0.5204,-0.5292,-0.5333,-0.5289,-0.5321,-0.535,-0.5409,-0.5377,-0.5293,-0.5163,-0.5092,-0.4945,-0.4724,-0.4667,-0.4659,-0.4708,-0.4708,-0.4769,-0.49,-0.4834,-0.483,-0.4904,-0.483,-0.4809,-0.4809,-0.4809,-0.4809,-0.4809,-0.4809,-0.4809,-0.4813,0.0,-0.4981,-0.501,-0.382,0.0,-0.2592,-0.0688,0.0456,0.108,0.1727,0.1985,0.1993,0.1963,0.1924,0.0,0.1821,0.1792,0.1793,0.0,0.1779,0.1756,0.0,0.0,0.0,0.1745,0.0,0.0,0.0,0.1806,0.1825,0.1932,0.1918,0.1918,0.2023,0.2056,0.2071,0.2084,0.215,0.2219,0.2281,0.2367,0.2386,0.2386,0.2359,0.234,0.234,0.2365,0.2357,0.2357,0.2371,0.2358,0.2315,0.2298,0.2283,0.2233,0.2218,0.2217,0.2233,0.2233,0.224,0.2253,0.2268,0.2312,0.2312,0.2289,0.2296,0.2296,0.2296,0.2296,0.2296,0.2296,0.2378,0.2451,0.2535,0.259,0.2609,0.2653,0.2679,0.2686,0.0,0.0,-0.4866,-0.5075,-0.5155,-0.5252,-0.539,-0.548,-0.5508,-0.5443,-0.552,-0.5553,-0.5496,0.0,0.0,0.0,0.0,-0.5148,0.0,-0.4856,-0.479,-0.4757,-0.4741,-0.4798,-0.4966,-0.4846,-0.4846,-0.497,-0.4846,-0.4809,-0.4809,-0.4809,-0.4809,-0.4809,-0.4809,-0.4817,-0.4842,0.0,0.0,-0.5169,-0.5232,-0.4606,-0.3523,-0.2272,-0.1044,0.0216,0.1537,0.1844,0.1668,0.192,0.2012,0.1995,0.1867,0.1875,0.0,0.0,0.0,0.0,0.0,0.0,0.0,0.0,0.0,0.1821,0.0,0.0,0.0,0.1876,0.1834,0.1809,0.1944,0.1913,0.188,0.1951,0.2003,0.2088,0.2138,0.2252,0.2358,0.2371,0.2328,0.2265,0.2271,0.2286,0.2275,0.2282,0.232,0.2315,0.2214,0.2263,0.2262,0.2202,0.2197,0.2195,0.2202,0.2202,0.2208,0.222,0.2273,0.2288,0.23,0.2275,0.2285,0.2296,0.2291,0.2292,0.2296,0.2296,0.2324,0.2373,0.2453,0.2549,0.2614,0.2586,0.2625,0.2684,-0.4809,-0.4809,0.0,-0.5075,-0.5155,-0.5272,-0.5467,-0.554,-0.5597,-0.5585,-0.5735,-0.5835,0.0,0.0,0.0,0.0,0.0,0.0,-0.585,0.0,0.0,-0.4962,-0.4863,-0.4805,-0.4826,-0.4813,-0.4813,-0.4826,-0.4813,-0.4809,-0.4809,-0.4809,-0.4809,-0.4809,-0.4809,-0.4854,-0.4983,-0.4995,-0.5147,-0.5357,-0.5443,-0.4693,-0.3404,-0.2233,-0.0974,0.034,0.1568,0.1249,0.0402,0.1597,0.1997,0.201,0.0,0.1986,0.1964,0.1896,0.0,0.0,0.0,0.0,0.0,0.0,0.1849,0.0,0.1811,0.0,0.1808,0.1822,0.0,0.1727,0.1796,0.0,0.0,0.1744,0.1826,0.1918,0.1924,0.2042,0.2157,0.2213,0.2213,0.2219,0.2213,0.2213,0.2222,0.2213,0.2232,0.2228,0.2209,0.2223,0.2208,0.2206,0.2213,0.2213,0.2204,0.2206,0.2232,0.2285,0.2226,0.2242,0.2289,0.2242,0.2248,0.2295,0.2307,0.2309,0.2296,0.2296,0.23,0.2315,0.2436,0.256,0.2601,0.2593,0.2625,0.2684,-0.4809,-0.4854,0.0,0.0,-0.5226,-0.5382,-0.5532,-0.5679,-0.5772,-0.5772,-0.5841,-0.5904,0.0,0.0,0.0,0.0,0.0,-0.5972,0.0,0.0,0.0,-0.5077,-0.4965,-0.4941,-0.4968,-0.4862,-0.4834,-0.4912,-0.4834,-0.4809,-0.4809,-0.4809,-0.4838,-0.4912,-0.5069,-0.512,-0.5085,-0.5349,-0.5406,-0.5289,-0.548,-0.5207,-0.4527,-0.3426,-0.2202,-0.0967,-0.0498,-0.0681,-0.1077,-0.0522,0.0184,0.0832,0.0,0.0,0.0,0.191,0.0,0.0,0.0,0.0,0.0,0.0,0.0,0.0,0.1819,0.0,0.1809,0.18,0.0,0.0,0.0,0.0,0.0,0.0,0.1774,0.1843,0.1854,0.1899,0.1989,0.2171,0.2141,0.2087,0.2152,0.2136,0.2146,0.214,0.2177,0.2183,0.2142,0.2178,0.2192,0.2208,0.2195,0.2195,0.2207,0.2208,0.2221,0.2247,0.2217,0.2232,0.2255,0.2213,0.2233,0.2308,0.2296,0.2307,0.2296,0.2296,0.2307,0.2364,0.2421,0.2476,0.2533,0.2597,0.2628,0.2637,0.0,0.0,0.0,0.0,-0.5218,-0.5373,-0.5545,-0.5691,-0.5823,-0.5872,-0.588,0.0,-0.6073,-0.6191,0.0,0.0,-0.6731,-0.6571,0.0,0.0,-0.5723,0.0,0.0,0.0,0.0,-0.4966,-0.4892,-0.4932,-0.4842,-0.4822,-0.4846,-0.4822,-0.4883,-0.4999,-0.5235,-0.5247,-0.5157,-0.5558,-0.5574,-0.5382,-0.5573,-0.5626,-0.5467,-0.4319,-0.3522,-0.2905,-0.2225,-0.2216,-0.2459,-0.2106,-0.1354,-0.056,-0.0585,0.0093,0.0877,0.0,0.0,0.0,0.1284,0.0,0.0,0.0,0.0,0.0,0.0,0.0,0.0,0.0,0.1771,0.0,0.0,0.0,0.0,0.0,0.0,0.1808,0.1814,0.1794,0.184,0.208,0.2033,0.2019,0.2081,0.2072,0.2075,0.2085,0.2106,0.2117,0.2099,0.216,0.2195,0.2189,0.2189,0.2189,0.2189,0.2189,0.2193,0.2201,0.2215,0.2196,0.2213,0.2183,0.2241,0.2278,0.2278,0.2294,0.2285,0.2293,0.2346,0.2369,0.2399,0.2429,0.2467,0.2557,0.2596,0.2601,-0.4974,-0.49,0.0,0.0,0.0,-0.5206,-0.5471,-0.5516,-0.5586,-0.5791,-0.5816,0.0,0.0,0.0,0.0,0.0,0.0,-0.7958,-0.7742,0.0,-0.6212,0.0,0.0,-0.5199,0.0,0.0,-0.4924,-0.4813,-0.4809,-0.4854,-0.4991,-0.485,-0.4883,-0.5003,-0.5063,-0.5153,-0.5224,-0.5431,-0.5606,-0.5795,-0.5804,-0.5827,-0.5743,-0.4331,-0.4626,-0.5425,-0.2895,-0.28,-0.3638,-0.2347,-0.1969,-0.2025,-0.2024,-0.1948,-0.1894,-0.1966,0.0,0.0,-0.0316,0.0,0.0286,0.1586,0.1909,0.1891,0.1829,0.1805,0.1814,0.0,0.0,0.0,0.0,0.0,0.0,0.0,0.0,0.0,0.0,0.1753,0.1716,0.181,0.1926,0.1989,0.2018,0.1989,0.1989,0.1989,0.1997,0.2038,0.2093,0.2099,0.2128,0.2186,0.2189,0.2189,0.2189,0.2189,0.2203,0.2199,0.2204,0.2187,0.2206,0.2184,0.2191,0.2212,0.2212,0.2229,0.2294,0.2285,0.2297,0.23,0.2368,0.2398,0.2436,0.2567,0.2618,0.2598,0.0,0.0,0.0,0.0,0.0,-0.526,-0.5528,-0.5877,-0.622,-0.6603,-0.6927,0.0,0.0,-0.8025,-0.8316,0.0,0.0,-0.8259,-0.8128,-0.753,0.0,0.0,0.0,-0.5941,0.0,0.0,0.0,-0.4924,-0.4924,-0.4966,-0.4995,-0.4854,-0.4891,-0.5067,-0.5371,-0.5546,-0.5686,-0.5969,-0.6107,-0.6112,-0.5938,-0.5894,-0.5905,-0.5383,-0.5491,-0.5794,-0.4896,-0.4865,-0.5155,-0.4765,-0.4075,-0.3431,-0.3466,-0.2875,-0.2137,-0.2148,-0.2181,-0.2063,-0.1587,-0.1465,-0.1167,0.0219,0.0553,0.075,0.1601,0.1809,0.1801,0.1799,0.0,0.0,0.0,0.0,0.0,0.0,0.0,0.0,0.0,0.1709,0.1729,0.18,0.1879,0.1943,0.1932,0.193,0.1922,0.1872,0.191,0.1955,0.1976,0.2052,0.2106,0.2127,0.2167,0.2189,0.2189,0.2189,0.2193,0.2204,0.2193,0.2199,0.2185,0.2197,0.2211,0.2215,0.2215,0.2244,0.2292,0.2301,0.2316,0.2299,0.2367,0.2384,0.2405,0.2496,0.2536,0.2542,-0.5198,0.0,0.0,0.0,-0.5299,-0.5538,-0.5714,-0.6284,-0.6832,-0.7195,-0.7688,-0.8216,-0.8753,0.0,-0.9142,0.0,-0.9255,-0.8893,-0.8494,-0.8127,0.0,-0.715,-0.6887,0.0,0.0,0.0,0.0,0.0,-0.5129,-0.5067,-0.5067,-0.4941,-0.4965,-0.5112,-0.5391,-0.5627,-0.5853,-0.6107,-0.6224,-0.6236,-0.6002,-0.5922,-0.5967,-0.591,-0.5906,-0.5935,-0.5935,-0.5935,-0.5947,-0.6036,-0.5541,-0.49,-0.4946,-0.4347,-0.3664,-0.3664,-0.3664,-0.3542,-0.3052,-0.2927,-0.2617,-0.1214,-0.0911,-0.0584,0.0767,0.1086,0.1231,0.1752,0.1866,0.0,0.0,0.0,0.0,0.0,0.0,0.0,0.0,0.1732,0.176,0.1799,0.1838,0.1861,0.1872,0.188,0.1864,0.1812,0.1836,0.1858,0.1869,0.2005,0.2074,0.2095,0.2156,0.2189,0.2189,0.2189,0.2189,0.2189,0.2189,0.2189,0.2189,0.2189,0.2199,0.2184,0.2195,0.2222,0.226,0.2282,0.2301,0.232,0.235,0.2369,0.2426,0.2469,0.2504,0.2514,-0.5425,-0.5546,-0.5558,-0.5301,-0.5678,-0.6027,-0.604,-0.6761,-0.7389,-0.7557,-0.8109,-0.8715,-0.9252,-0.9706,-1.0003,-1.0056,-1.0161,-0.9818,-0.8929,-0.8679,0.0,0.0,-0.7444,-0.7164,-0.6939,0.0,0.0,0.0,0.0,-0.522,-0.522,-0.5059,-0.5048,-0.512,-0.5183,-0.5414,-0.5741,-0.5881,-0.6054,-0.6189,-0.601,-0.5925,-0.5894,-0.589,-0.5943,-0.5988,-0.5984,-0.5988,-0.6036,-0.6153,-0.6243,-0.6284,-0.6321,-0.6325,-0.6325,-0.6325,-0.6325,-0.6025,-0.4676,-0.4347,-0.4068,-0.2653,-0.2358,-0.2034,-0.0638,-0.0305,0.0093,0.1513,0.174,0.1729,0.0,0.0,0.0,0.0,0.0,0.0,0.0,0.1762,0.1798,0.1802,0.1798,0.1806,0.1812,0.1864,0.1872,0.1811,0.1803,0.1804,0.1805,0.1925,0.2034,0.2091,0.2154,0.2189,0.2189,0.2189,0.2189,0.2189,0.2189,0.2189,0.2189,0.2189,0.2189,0.219,0.2185,0.2199,0.2204,0.2264,0.2289,0.2293,0.2285,0.2352,0.2424,0.2485,0.2488,0.2514,-0.6152,-0.6261,-0.6312,-0.6254,-0.6237,-0.6308,-0.6568,-0.7255,-0.7905,-0.8389,-0.9301,-1.007,-1.0564,-1.0719,-1.0805,-1.0829,-1.0525,0.0,0.0,0.0,0.0,-0.8616,-0.8467,-0.8138,-0.7573,-0.722,0.0,-0.6055,0.0,-0.5494,-0.5341,-0.5114,-0.5055,-0.5187,-0.5304,-0.5646,-0.6149,-0.6276,-0.6376,-0.6416,-0.638,-0.6202,-0.5979,-0.5914,-0.5943,-0.598,-0.5947,-0.5963,-0.6036,-0.6153,-0.6243,-0.6329,-0.6431,-0.6452,-0.6452,-0.6452,-0.6452,-0.6385,-0.6015,-0.5915,-0.5597,-0.4136,-0.3819,-0.3504,-0.2095,-0.1749,-0.1654,-0.1266,-0.1136,-0.0764,0.0182,0.0384,0.0717,0.0,0.0,0.0,0.0,0.0,0.1667,0.1711,0.173,0.1738,0.1805,0.1806,0.183,0.1807,0.1763,0.1741,0.1799,0.1933,0.2015,0.203,0.2134,0.2189,0.2189,0.2189,0.2189,0.2189,0.2189,0.2189,0.2189,0.2189,0.2189,0.2189,0.2197,0.2213,0.2203,0.2206,0.2271,0.2293,0.2285,0.2328,0.2417,0.2494,0.2488,0.2514,-0.6498,-0.673,-0.6971,-0.7074,-0.7195,-0.7307,-0.7368,-0.7907,-0.8512,-0.9134,-0.993,-1.0604,-1.0835,-1.1052,-1.1134,-1.1031,-1.0726,0.0,-0.9926,0.0,0.0,-0.9092,-0.909,-0.8798,-0.8166,-0.7728,0.0,-0.6685,0.0,-0.5888,-0.566,-0.5414,-0.531,-0.5324,-0.5471,-0.5868,-0.6448,-0.6708,-0.6779,-0.6701,-0.6692,-0.6554,0.0,-0.6183,-0.616,-0.6204,-0.6025,-0.6004,-0.6097,-0.6288,-0.6366,-0.6386,-0.6473,-0.6489,-0.6489,-0.6489,-0.6489,-0.6489,-0.6489,-0.6489,-0.6305,-0.5457,-0.528,-0.4936,-0.3512,-0.3177,-0.3005,-0.2331,-0.2143,-0.1876,-0.1075,-0.0473,0.0313,0.0,0.0,0.0,0.0,0.0,0.0,0.0,0.1716,0.1749,0.1786,0.1765,0.1746,0.172,0.1739,0.1753,0.1757,0.1874,0.1956,0.1956,0.2118,0.2182,0.2168,0.2174,0.2215,0.2189,0.2189,0.2189,0.2189,0.2189,0.2189,0.2189,0.2189,0.2199,0.2184,0.2193,0.222,0.2275,0.228,0.2324,0.2408,0.2438,0.2477,0.2514,-0.6769,-0.7135,-0.7561,-0.7733,-0.8225,-0.8543,-0.8368,-0.87,-0.919,-0.9731,-1.032,-1.0691,-1.0691,-1.1079,-1.1199,-1.0965,-1.0804,-1.05,-0.9932,-1.0215,-1.0085,-0.9405,-0.9459,-0.9237,-0.8649,-0.8012,-0.7568,0.0,0.0,-0.6289,-0.6033,-0.5831,-0.5674,-0.5585,-0.5692,-0.6077,-0.6693,-0.7084,-0.716,-0.7029,-0.6988,-0.6929,-0.6867,-0.6591,-0.6487,-0.6504,-0.6217,-0.6156,-0.6255,-0.6415,-0.6477,-0.6489,-0.6489,-0.6489,-0.6489,-0.6489,-0.6489,-0.6489,-0.6489,-0.6489,-0.6489,-0.6489,-0.6489,-0.6164,-0.4895,-0.4586,-0.424,-0.2953,-0.2657,-0.2546,-0.2262,-0.1164,0.0028,0.0,0.0,0.0,0.0,0.0,0.0,0.0,0.1509,0.0,0.1775,0.1737,0.1689,0.1639,0.1732,0.1764,0.1705,0.1816,0.1895,0.1895,0.2099,0.217,0.2121,0.2162,0.2211,0.22,0.2192,0.2189,0.2189,0.2189,0.2189,0.2189,0.2189,0.2189,0.2193,0.2186,0.2214,0.2226,0.2276,0.2352,0.2382,0.2413,0.2459,0.2508,-0.7522,-0.777,-0.7982,-0.8028,-0.8437,-0.8938,-0.9419,-0.9769,-1.0025,-1.0231,-1.0817,-1.1188,-1.1188,-1.1357,-1.1374,-1.109,-1.1052,-1.0867,0.0,0.0,0.0,-0.9726,-0.9677,-0.94,-0.8865,-0.8339,-0.7917,0.0,0.0,-0.6494,-0.6154,-0.603,-0.5969,-0.6008,-0.6026,-0.6371,-0.6941,-0.7309,-0.7331,-0.716,-0.7266,-0.7143,-0.6903,-0.6837,-0.682,-0.6796,-0.6647,-0.6444,-0.6296,-0.6329,-0.6423,-0.6489,-0.6489,-0.6489,-0.6489,-0.6489,-0.6489,-0.6489,-0.6489,-0.6489,-0.6489,-0.6489,-0.6489,-0.6414,-0.6164,-0.6127,-0.6056,-0.5774,-0.5606,-0.5157,-0.4067,-0.2579,-0.1463,-0.1364,-0.1167,-0.1047,0.0,0.0,0.0,0.0,0.0,0.0613,0.1609,0.1746,0.1764,0.1754,0.1795,0.1764,0.1705,0.1824,0.1894,0.1894,0.2046,0.2146,0.2184,0.221,0.2191,0.2194,0.2213,0.2189,0.2189,0.2189,0.2189,0.2189,0.2189,0.2189,0.2193,0.2186,0.2238,0.2283,0.2292,0.2352,0.2382,0.2413,0.2446,0.2518,-0.7964,-0.8068,0.0,-0.8426,-0.8921,-0.9503,-1.0041,-1.0536,-1.0786,-1.059,-1.0819,-1.0971,-1.0948,-1.1166,-1.1199,-1.1025,-1.0949,-1.084,-1.0661,-1.0541,-1.034,-1.0002,-0.9851,-0.9536,-0.9022,-0.854,-0.8146,-0.7869,0.0,-0.6827,-0.6464,-0.6325,-0.6216,-0.6167,-0.6442,-0.6788,-0.7172,-0.7474,-0.7555,-0.7469,-0.761,-0.7566,-0.7388,-0.7235,-0.7178,-0.7148,-0.6746,-0.6558,-0.6491,-0.6423,-0.6386,-0.6423,-0.6473,-0.6489,-0.6489,-0.6489,-0.6489,-0.6489,-0.6489,-0.6489,-0.6489,-0.6489,-0.6489,-0.6489,-0.6489,-0.6489,-0.6473,-0.6427,-0.6313,-0.5837,-0.4443,-0.354,-0.2776,-0.2161,-0.1917,-0.1812,0.0,0.0,-0.1659,0.0,0.0,0.0,0.0512,0.0789,0.1135,0.1657,0.1765,0.1781,0.1707,0.179,0.1861,0.1907,0.1994,0.2076,0.2153,0.2185,0.22,0.2198,0.2203,0.2189,0.2189,0.2189,0.2189,0.2189,0.2189,0.2197,0.2217,0.2244,0.2259,0.2296,0.2296,0.2305,0.236,0.2369,0.2433,0.2451,-0.8318,-0.8356,-0.8507,-0.8934,-0.9514,-1.0068,-1.0411,-1.1068,-1.1363,-1.0938,-1.0867,-1.0824,-1.0795,-1.096,-1.1063,-1.0965,-1.0804,-1.0712,-1.0663,-1.0585,-1.0451,-1.0177,-0.9932,-0.9558,-0.9109,-0.8654,-0.8312,0.0,-0.7584,-0.7143,-0.6762,-0.6669,-0.653,-0.6401,-0.6845,-0.7138,-0.7322,-0.7568,-0.7676,-0.7709,-0.7853,-0.7903,-0.7872,-0.7623,-0.7568,-0.7561,-0.7008,-0.6842,-0.6887,-0.6693,-0.6461,-0.6333,-0.646,-0.6489,-0.6489,-0.6489,-0.6489,-0.6489,-0.6489,-0.6489,-0.6489,-0.6489,-0.6489,-0.6489,-0.6489,-0.6489,-0.6468,-0.6362,-0.6329,-0.5951,-0.4755,-0.4499,-0.4116,-0.3063,-0.2778,-0.2687,-0.268,0.0,0.0,0.0,0.0,0.0,-0.0962,-0.0273,0.04,0.1121,0.1563,0.1764,0.1716,0.1765,0.1831,0.188,0.195,0.205,0.2119,0.2191,0.2208,0.2208,0.2195,0.2189,0.2189,0.2189,0.2189,0.2189,0.2196,0.2219,0.2223,0.2271,0.2307,0.2296,0.2296,0.2296,0.2303,0.2363,0.2386,0.2394,-0.871,-0.8899,-0.9125,-0.9562,-1.0003,-1.0416,-1.0625,-1.1128,-1.1483,-1.1439,-1.1335,-1.1303,-1.1401,-1.121,-1.1096,-1.1085,-1.0971,-1.0808,-1.0631,-1.0506,-1.0291,-1.0047,-0.9813,-0.9514,-0.9109,-0.8764,-0.8377,0.0,-0.7627,-0.73,-0.6975,-0.6964,-0.6948,-0.6932,-0.7111,-0.7209,-0.7316,-0.7452,-0.76,-0.7709,-0.7853,-0.7903,-0.7913,-0.7992,-0.8046,-0.8021,-0.7845,-0.7699,-0.7525,-0.7119,-0.6655,-0.6333,-0.646,-0.6489,-0.6489,-0.6489,-0.6489,-0.6489,-0.6489,-0.6489,-0.6489,-0.6489,-0.6489,-0.6489,-0.6489,-0.6489,-0.6485,-0.6477,-0.6374,-0.6251,-0.6046,-0.5803,-0.5606,-0.5488,-0.5131,-0.4897,-0.4889,-0.5005,-0.4742,-0.3849,0.0,0.0,-0.2458,-0.0872,0.0,-0.0207,0.1046,0.1807,0.1801,0.1804,0.1812,0.1818,0.1928,0.2061,0.2183,0.2193,0.2188,0.2201,0.2215,0.2189,0.2189,0.2189,0.2189,0.219,0.2184,0.2229,0.2282,0.2289,0.2307,0.2296,0.2296,0.2296,0.2303,0.2363,0.2386,0.2394,-0.9362,-0.9432,-0.9612,-1.0151,-1.0402,-1.0659,-1.0998,-1.133,-1.1499,-1.1499,-1.139,-1.1308,-1.1243,-1.109,-1.0965,-1.0889,-1.077,-1.0693,-1.0666,-1.0422,-1.0199,-1.0025,-0.9796,-0.9465,-0.9,-0.8807,-0.8497,-0.8012,-0.7741,-0.7481,-0.7164,-0.7051,-0.7051,-0.7117,-0.716,-0.7291,-0.7424,-0.7578,-0.7655,-0.7709,-0.7853,-0.7903,-0.7913,-0.8039,-0.8083,-0.8073,-0.7858,-0.7755,-0.7644,-0.7346,-0.6975,-0.6633,-0.6527,-0.6489,-0.6489,-0.6489,-0.6489,-0.6489,-0.6489,-0.6489,-0.6489,-0.6489,-0.6489,-0.6489,-0.6489,-0.6489,-0.6489,-0.6489,-0.6456,-0.637,-0.628,-0.6129,-0.5986,-0.588,-0.5696,-0.5529,-0.539,-0.5604,0.0,-0.526,0.0,-0.4656,-0.366,-0.2096,-0.0846,-0.0109,0.1091,0.1804,0.1804,0.1789,0.1844,0.1919,0.1738,0.1709,0.185,0.1851,0.1828,0.1849,0.2099,0.2189,0.2189,0.2189,0.2199,0.2219,0.2233,0.2268,0.2292,0.2309,0.2287,0.2296,0.2296,0.2307,0.2365,0.2408,0.2435,0.2457,-0.9938,-0.996,-1.0146,-1.0708,-1.0806,-1.0937,-1.1313,-1.1444,-1.1488,-1.145,-1.1341,-1.1204,-1.1156,-1.0982,-1.0804,-1.0755,-1.0645,-1.0631,-1.0677,-1.0384,-1.015,-1.0025,-0.9758,-0.9427,-0.8979,-0.8851,-0.8585,-0.8137,-0.7935,-0.7682,-0.7408,-0.7236,-0.7187,-0.7291,-0.7291,-0.7377,-0.7578,-0.7665,-0.772,-0.7758,-0.787,-0.7903,-0.7913,-0.8039,-0.8083,-0.8073,-0.7938,-0.7894,-0.7882,-0.7674,-0.7445,-0.7195,-0.6769,-0.6652,-0.6619,-0.6518,-0.6489,-0.6489,-0.6489,-0.6489,-0.6489,-0.6489,-0.6489,-0.6489,-0.6489,-0.6489,-0.6489,-0.6489,-0.6489,-0.6468,-0.637,-0.6284,-0.6161,-0.5955,-0.588,-0.5779,-0.5652,-0.5877,0.0,-0.6161,-0.6039,-0.5629,-0.4824,-0.3409,-0.2002,-0.0688,0.0519,0.1361,0.1789,0.179,0.1848,0.1976,0.1618,0.1481,0.1604,0.1613,0.1616,0.1616,0.2019,0.2193,0.2203,0.2211,0.2193,0.2217,0.2268,0.2296,0.2305,0.2288,0.2296,0.2296,0.2296,0.2346,0.2369,0.2409,0.2438,0.2461,-1.0286,-1.0511,-1.074,-1.1221,-1.1308,-1.1352,-1.1477,-1.1499,-1.1455,-1.1335,-1.1177,-1.1145,-1.1303,-1.0954,-1.0744,-1.0905,-1.0735,-1.0599,-1.0599,-1.0335,-1.015,-1.0025,-0.9677,-0.9378,-0.9103,-0.8894,-0.8595,-0.8199,-0.8143,-0.7957,-0.7693,-0.7573,-0.7484,-0.7484,-0.7484,-0.7584,-0.7698,-0.7703,-0.7769,-0.7903,-0.7903,-0.7903,-0.7913,-0.8039,-0.8083,-0.8115,-0.8329,-0.8383,-0.8366,-0.8153,-0.8089,-0.7956,-0.7221,-0.6982,-0.692,-0.6585,-0.6489,-0.6489,-0.6489,-0.6489,-0.6489,-0.6489,-0.6489,-0.6489,-0.6489,-0.6489,-0.6489,-0.6489,-0.6489,-0.6489,-0.6485,-0.6378,-0.6227,-0.6017,-0.5943,-0.5913,-0.5985,-0.6054,-0.6161,-0.627,-0.6014,-0.5863,-0.6068,-0.4676,-0.3413,-0.2523,-0.1117,0.0324,0.1735,0.1794,0.1823,0.1885,0.1633,0.1535,0.1615,0.1604,0.1616,0.1616,0.2019,0.2204,0.22,0.2195,0.2209,0.2212,0.2278,0.2307,0.2296,0.2296,0.2296,0.2296,0.2296,0.2296,0.2304,0.2363,0.2386,0.2394,-1.0797,-1.0905,-1.0998,-1.1275,-1.1313,-1.1259,-1.1221,-1.1215,-1.1199,-1.1161,-1.1052,-1.0992,-1.1031,-1.0814,-1.0712,-1.0749,-1.0579,-1.0511,-1.0593,-1.0253,-0.9986,-0.9861,-0.9715,-0.9421,-0.8984,-0.8897,-0.8686,-0.8329,-0.8236,-0.8057,-0.7848,-0.7804,-0.7832,-0.7913,-0.7913,-0.7948,-0.8036,-0.8036,-0.8053,-0.8117,-0.8117,-0.8068,-0.805,-0.8225,-0.823,-0.8126,-0.8421,-0.8486,-0.8405,-0.8419,-0.8456,-0.8356,-0.7889,-0.7421,-0.6982,-0.6886,-0.6686,-0.6489,-0.6489,-0.6489,-0.6489,-0.6489,-0.6489,-0.6489,-0.6489,-0.6489,-0.6489,-0.6489,-0.6489,-0.6489,-0.6489,-0.6614,-0.6556,-0.6084,-0.6402,-0.656,-0.608,-0.6341,-0.654,-0.6459,-0.645,-0.6443,-0.6323,-0.5278,-0.394,-0.2335,-0.1169,0.0084,0.1378,0.1663,0.1718,0.1549,0.1247,0.0997,0.0835,0.0839,0.0842,0.0842,0.1257,0.1582,0.1883,0.2157,0.2277,0.2278,0.2307,0.2288,0.2296,0.2296,0.2296,0.2296,0.2296,0.2345,0.2369,0.2409,0.2436,0.2461,-1.1041,-1.1069,-1.1085,-1.1286,-1.1281,-1.1183,-1.1112,-1.1101,-1.1085,-1.1041,-1.0965,-1.0858,-1.0814,-1.0739,-1.0695,-1.0695,-1.0558,-1.0522,-1.0593,-1.0264,-0.9975,-0.9807,-0.9688,-0.9421,-0.8995,-0.8897,-0.8774,-0.8552,-0.835,-0.8172,-0.8008,-0.8008,-0.8051,-0.8154,-0.8154,-0.8166,-0.8204,-0.8204,-0.8204,-0.8204,-0.8204,-0.8187,-0.8138,-0.8291,-0.8253,-0.8155,-0.8426,-0.8481,-0.8437,-0.8552,-0.859,-0.8556,-0.8356,-0.7889,-0.7388,-0.7221,-0.7054,-0.6857,-0.6719,-0.6686,-0.6652,-0.6518,-0.6489,-0.6489,-0.6489,-0.6489,-0.6489,-0.6489,-0.6489,-0.6552,-0.6652,-0.6838,-0.6836,-0.651,-0.6828,-0.6965,-0.6458,-0.6661,-0.6806,-0.6606,-0.6724,-0.673,-0.6426,-0.6024,-0.507,-0.3354,-0.2096,-0.0921,0.0251,0.1179,0.1519,0.1234,0.0882,0.0649,0.0505,0.0507,0.0509,0.0509,0.0899,0.1224,0.1475,0.1752,0.187,0.1862,0.1886,0.1968,0.2114,0.2114,0.2187,0.2296,0.215,0.2197,0.233,0.2069,0.2054,0.2228,-1.1041,-1.0998,-1.0987,-1.121,-1.1161,-1.1085,-1.1079,-1.1079,-1.1036,-1.0879,-1.0905,-1.082,-1.0706,-1.069,-1.0684,-1.0684,-1.0612,-1.0588,-1.0588,-1.0324,-1.0079,-0.9796,-0.9617,-0.9383,-0.9103,-0.8905,-0.8808,-0.8792,-0.853,-0.8329,-0.8226,-0.822,-0.822,-0.8226,-0.8226,-0.8226,-0.8226,-0.8226,-0.8226,-0.8226,-0.8226,-0.822,-0.8215,-0.8226,-0.8215,-0.822,-0.835,-0.8394,-0.8437,-0.8552,-0.859,-0.859,-0.859,-0.839,-0.8056,-0.766,-0.7526,-0.7426,-0.7121,-0.702,-0.6953,-0.6656,-0.6556,-0.6556,-0.6556,-0.6556,-0.6556,-0.6556,-0.6556,-0.6652,-0.6987,-0.7054,-0.7119,-0.7176,-0.7239,-0.7221,-0.7029,-0.7027,-0.6975,-0.6751,-0.6855,-0.6813,-0.6532,-0.6884,-0.6604,-0.525,-0.3819,-0.2499,-0.1389,0.0268,0.11,0.0867,0.0573,0.0426,0.0471,0.0478,0.0481,0.0483,0.0884,0.1067,0.1056,0.1155,0.116,0.1112,0.1162,0.1422,0.175,0.175,0.1932,0.2187,0.1895,0.1932,0.2158,0.1463,0.1439,0.1786,-1.089,-1.0938,-1.0938,-1.0992,-1.0982,-1.0933,-1.0798,-1.0782,-1.0771,-1.0739,-1.0739,-1.0728,-1.0695,-1.0655,-1.0642,-1.0642,-1.0533,-1.0468,-1.0468,-1.0199,-0.996,-0.972,-0.9693,-0.947,-0.9109,-0.8952,-0.8818,-0.8633,-0.8486,-0.8448,-0.8503,-0.8416,-0.8421,-0.8503,-0.8503,-0.8503,-0.8503,-0.8503,-0.8503,-0.8503,-0.8503,-0.8454,-0.835,-0.847,-0.8394,-0.8231,-0.847,-0.8492,-0.8437,-0.8552,-0.859,-0.859,-0.859,-0.8556,-0.8423,-0.8056,-0.7727,-0.7493,-0.7393,-0.7393,-0.7359,-0.7292,-0.7259,-0.7259,-0.7259,-0.7259,-0.7259,-0.7259,-0.7259,-0.7292,-0.7359,-0.7622,-0.7687,-0.7273,-0.7623,-0.7723,-0.7088,-0.7232,-0.7319,-0.717,-0.7289,-0.7367,-0.7399,-0.76,-0.7095,-0.5602,-0.5158,-0.3967,-0.1726,-0.1205,-0.0514,0.0479,0.0487,0.0364,0.0135,0.0102,0.0104,0.0106,0.0535,0.0718,0.0723,0.1055,0.1202,0.1162,0.1203,0.1241,0.1349,0.1349,0.1386,0.146,0.1386,0.1386,0.1427,0.1276,0.1249,0.1367,-1.0852,-1.0831,-1.0809,-1.0911,-1.0831,-1.0771,-1.0706,-1.0695,-1.0695,-1.0695,-1.0695,-1.0695,-1.0695,-1.0628,-1.0599,-1.0599,-1.0489,-1.0362,-1.0307,-1.0128,-0.9916,-0.972,-0.9654,-0.947,-0.9184,-0.9006,-0.88,-0.859,-0.8524,-0.8524,-0.8584,-0.8524,-0.853,-0.859,-0.859,-0.859,-0.859,-0.859,-0.859,-0.859,-0.859,-0.8552,-0.8503,-0.8562,-0.8508,-0.841,-0.8541,-0.8546,-0.8508,-0.8568,-0.859,-0.859,-0.859,-0.859,-0.8556,-0.839,-0.8189,-0.7956,-0.7827,-0.776,-0.7727,-0.756,-0.7493,-0.7493,-0.7493,-0.7493,-0.7493,-0.7493,-0.7493,-0.756,-0.7727,-0.7956,-0.8002,-0.7657,-0.7928,-0.7924,-0.7245,-0.7341,-0.7462,-0.7397,-0.7573,-0.7731,-0.7881,-0.8019,-0.776,-0.681,-0.6121,-0.5151,-0.3783,-0.3038,-0.1788,0.0165,0.0267,0.0169,0.0,0.0,0.0,0.0,0.0217,0.0326,0.0328,0.0547,0.0657,0.0657,0.0657,0.0766,0.0912,0.0912,0.1022,0.1168,0.0985,0.1022,0.1171,0.0788,0.0757,0.095,-1.0957,-1.085,-1.0728,-1.0831,-1.0766,-1.0695,-1.0695,-1.0695,-1.0695,-1.0695,-1.0679,-1.0668,-1.0668,-1.0585,-1.0544,-1.0544,-1.044,-1.0297,-1.021,-1.0068,-0.9894,-0.972,-0.9589,-0.9427,-0.9307,-0.9038,-0.88,-0.859,-0.859,-0.859,-0.859,-0.859,-0.859,-0.859,-0.859,-0.859,-0.859,-0.859,-0.859,-0.859,-0.859,-0.859,-0.859,-0.859,-0.859,-0.859,-0.859,-0.859,-0.859,-0.859,-0.859,-0.859,-0.859,-0.859,-0.859,-0.859,-0.859,-0.8556,-0.8256,-0.8189,-0.8089,-0.776,-0.766,-0.766,-0.766,-0.766,-0.766,-0.766,-0.766,-0.776,-0.8123,-0.8189,-0.8146,-0.8111,-0.8083,-0.7924,-0.7397,-0.7457,-0.7573,-0.7573,-0.7796,-0.8028,-0.8132,-0.8296,-0.8339,-0.8181,-0.6986,-0.6225,-0.6154,-0.4898,-0.3127,-0.0744,-0.0444,-0.0208,0.0,0.0,0.0,0.0,0.0,-0.0109,-0.0328,-0.0109,-0.0109,-0.0328,-0.0109,0.0182,0.0511,0.0511,0.0584,0.0657,0.0547,0.0584,0.0624,0.015,0.0227,0.0495,-1.1301,-1.0998,-1.0701,-1.0722,-1.0706,-1.0695,-1.0695,-1.0695,-1.0695,-1.0695,-1.065,-1.0626,-1.0626,-1.0389,-1.0259,-1.0259,-1.0144,-1.0112,-1.0199,-0.9953,-0.9807,-0.9714,-0.9589,-0.9427,-0.9307,-0.9038,-0.88,-0.859,-0.859,-0.859,-0.859,-0.859,-0.859,-0.859,-0.859,-0.859,-0.859,-0.859,-0.859,-0.859,-0.859,-0.859,-0.859,-0.859,-0.859,-0.859,-0.859,-0.859,-0.859,-0.859,-0.859,-0.859,-0.859,-0.859,-0.859,-0.859,-0.859,-0.859,-0.8523,-0.8523,-0.8523,-0.8456,-0.8423,-0.8423,-0.8423,-0.8423,-0.8423,-0.8423,-0.8423,-0.8456,-0.8523,-0.8523,-0.8437,-0.8143,-0.8083,-0.7952,-0.7516,-0.7676,-0.7848,-0.7848,-0.8122,-0.8339,-0.8361,-0.8394,-0.8443,-0.8503,-0.8202,-0.7511,-0.6398,-0.6127,-0.5325,-0.3855,-0.2481,-0.1216,0.0,0.0,0.0,0.0,0.0,-0.0693,-0.1893,-0.0583,-0.0693,-0.1857,-0.0583,0.0036,0.0109,0.0109,-0.062,-0.1638,-0.0401,-0.066,-0.1631,-0.0452,0.0038,0.0077,-1.1029,-1.0862,-1.0695,-1.0695,-1.0695,-1.0695,-1.0695,-1.0695,-1.0695,-1.0695,-1.0628,-1.0599,-1.0599,-1.0346,-1.0204,-1.0204,-1.009,-0.9975,-0.997,-0.9845,-0.9693,-0.9616,-0.9454,-0.9302,-0.9082,-0.8973,-0.88,-0.859,-0.859,-0.859,-0.859,-0.859,-0.859,-0.859,-0.859,-0.859,-0.859,-0.859,-0.859,-0.859,-0.859,-0.859,-0.859,-0.859,-0.859,-0.859,-0.859,-0.859,-0.859,-0.859,-0.859,-0.859,-0.859,-0.859,-0.859,-0.859,-0.859,-0.859,-0.859,-0.859,-0.859,-0.859,-0.859,-0.859,-0.859,-0.859,-0.859,-0.859,-0.859,-0.859,-0.859,-0.859,-0.8492,-0.8198,-0.8126,-0.8006,-0.7741,-0.7832,-0.7952,-0.8051,-0.8274,-0.8443,-0.8503,-0.8508,-0.853,-0.8584,-0.86,-0.836,-0.7733,-0.7704,-0.7458,-0.6989,-0.4708,-0.3171,-0.2526,-0.2526,-0.2535,-0.255,-0.255,-0.2912,-0.3567,-0.2839,-0.2912,-0.3567,-0.2839,-0.255,-0.255,-0.255,-0.2948,-0.353,-0.2803,-0.2422,-0.223,-0.1506,-0.0725,0.0,-1.0862,-1.0779,-1.0695,-1.0695,-1.0695,-1.0695,-1.0695,-1.0695,-1.0695,-1.0695,-1.0628,-1.0588,-1.056,-1.0329,-1.0193,-1.0166,-1.0074,-0.9921,-0.9769,-0.9715,-0.9654,-0.9492,-0.9372,-0.9204,-0.8962,-0.893,-0.8811,-0.8628,-0.86,-0.859,-0.859,-0.859,-0.859,-0.859,-0.859,-0.859,-0.859,-0.859,-0.859,-0.859,-0.859,-0.859,-0.859,-0.859,-0.859,-0.859,-0.859,-0.859,-0.859,-0.859,-0.859,-0.859,-0.859,-0.859,-0.859,-0.859,-0.859,-0.859,-0.859,-0.859,-0.859,-0.859,-0.859,-0.859,-0.859,-0.859,-0.8595,-0.8622,-0.8606,-0.8595,-0.8656,-0.8606,-0.8508,-0.8242,-0.8155,-0.8083,-0.7963,-0.7968,-0.8035,-0.822,-0.8378,-0.8535,-0.8622,-0.8655,-0.8671,-0.8671,-0.8758,-0.8812,-0.8812,-0.8812,-0.891,-0.9092,-0.6573,-0.5056,-0.4693,-0.4693,-0.4693,-0.4693,-0.4693,-0.4875,-0.5238,-0.4875,-0.4911,-0.5201,-0.4838,-0.4693,-0.4693,-0.4693,-0.4911,-0.5201,-0.4838,-0.393,-0.2797,-0.2449,-0.1337,0.0,-1.1445,-1.0987,-1.0695,-1.0695,-1.0695,-1.0695,-1.0695,-1.0695,-1.0695,-1.0695,-1.0628,-1.0555,-1.0411,-1.028,-1.0155,-1.0047,-1.0025,-0.9921,-0.9736,-0.9709,-0.9654,-0.9492,-0.9372,-0.9247,-0.9087,-0.8973,-0.8854,-0.8792,-0.8677,-0.859,-0.859,-0.859,-0.859,-0.859,-0.859,-0.859,-0.859,-0.859,-0.859,-0.859,-0.859,-0.859,-0.859,-0.859,-0.859,-0.859,-0.859,-0.859,-0.859,-0.859,-0.859,-0.859,-0.859,-0.859,-0.859,-0.859,-0.859,-0.859,-0.859,-0.859,-0.859,-0.859,-0.859,-0.859,-0.859,-0.859,-0.8622,-0.877,-0.8699,-0.8622,-0.877,-0.8699,-0.8508,-0.8242,-0.8193,-0.8182,-0.8088,-0.8138,-0.8226,-0.8356,-0.8606,-0.8781,-0.8792,-0.8856,-0.8892,-0.8892,-0.8897,-0.8903,-0.8903,-0.8903,-0.8962,-0.9092,-0.7621,-0.6145,-0.4729,-0.4693,-0.4693,-0.4693,-0.4693,-0.5456,-0.6797,-0.5347,-0.5492,-0.6761,-0.531,-0.4693,-0.4693,-0.4693,-0.5528,-0.6688,-0.5274,-0.4614,-0.4336,-0.2834,-0.1306,0.0,-1.107,-1.082,-1.0695,-1.0695,-1.0695,-1.0695,-1.0695,-1.0695,-1.071,-1.0634,-1.0626,-1.0522,-1.0291,-1.0231,-1.0155,-0.9991,-0.991,-0.984,-0.972,-0.9633,-0.9503,-0.9378,-0.9329,-0.9253,-0.9103,-0.8979,-0.8859,-0.8803,-0.8683,-0.859,-0.859,-0.859,-0.859,-0.859,-0.859,-0.859,-0.859,-0.859,-0.859,-0.859,-0.859,-0.859,-0.859,-0.859,-0.859,-0.859,-0.859,-0.859,-0.859,-0.859,-0.859,-0.859,-0.859,-0.859,-0.859,-0.859,-0.859,-0.859,-0.859,-0.859,-0.859,-0.859,-0.859,-0.859,-0.859,-0.859,-0.8622,-0.8781,-0.877,-0.8736,-0.8861,-0.878,-0.8705,-0.8584,-0.8443,-0.8356,-0.8416,-0.8426,-0.8497,-0.8622,-0.878,-0.8849,-0.8849,-0.8892,-0.8919,-0.8919,-0.8989,-0.9033,-0.9033,-0.9098,-0.9125,-0.9098,-0.8668,-0.814,-0.7562,-0.7562,-0.7562,-0.7562,-0.7562,-0.7851,-0.8394,-0.7815,-0.792,-0.8528,-0.7842,-0.7597,-0.7682,-0.7584,-0.7887,-0.8357,-0.7779,-0.6982,-0.6049,-0.5531,-0.3666,-0.1437,-1.1029,-1.082,-1.0695,-1.0695,-1.0663,-1.0693,-1.069,-1.063,-1.0612,-1.0604,-1.0566,-1.0468,-1.0226,-1.0204,-1.0155,-0.9991,-0.9905,-0.9829,-0.9714,-0.9519,-0.9389,-0.9307,-0.9302,-0.9269,-0.9152,-0.9,-0.8876,-0.8829,-0.8666,-0.859,-0.859,-0.859,-0.859,-0.859,-0.859,-0.859,-0.859,-0.859,-0.859,-0.859,-0.859,-0.859,-0.859,-0.859,-0.859,-0.859,-0.859,-0.859,-0.859,-0.859,-0.859,-0.859,-0.859,-0.859,-0.859,-0.859,-0.859,-0.859,-0.859,-0.859,-0.859,-0.859,-0.859,-0.8595,-0.8638,-0.8677,-0.8721,-0.8851,-0.8856,-0.8861,-0.8952,-0.8876,-0.8829,-0.8829,-0.8693,-0.8578,-0.8693,-0.8704,-0.8731,-0.8818,-0.8903,-0.8973,-0.8973,-0.9006,-0.9027,-0.9027,-0.9103,-0.9152,-0.9152,-0.9264,-0.9269,-0.9152,-0.9264,-0.9302,-0.9302,-0.9302,-0.9302,-0.9302,-0.9302,-0.9302,-0.9307,-0.9345,-0.9405,-0.9487,-0.9438,-0.9465,-0.9536,-0.941,-0.9362,-0.9356,-0.9318,-0.8353,-0.7014,-0.7136,-0.5439,-0.3047,-1.1486,-1.1029,-1.0695,-1.0695,-1.0634,-1.0637,-1.0674,-1.0536,-1.0468,-1.0582,-1.0495,-1.034,-1.0215,-1.0204,-1.0155,-0.9991,-0.998,-0.9921,-0.972,-0.9438,-0.9307,-0.9302,-0.9302,-0.9302,-0.9302,-0.9038,-0.8919,-0.8914,-0.8704,-0.859,-0.859,-0.859,-0.859,-0.859,-0.859,-0.859,-0.859,-0.859,-0.859,-0.859,-0.859,-0.859,-0.859,-0.859,-0.859,-0.859,-0.859,-0.859,-0.859,-0.859,-0.859,-0.859,-0.859,-0.859,-0.859,-0.859,-0.859,-0.859,-0.859,-0.859,-0.859,-0.859,-0.859,-0.8622,-0.8776,-0.8808,-0.884,-0.9049,-0.9,-0.8957,-0.9076,-0.9,-0.8919,-0.8919,-0.8919,-0.8914,-0.8914,-0.8919,-0.8919,-0.8919,-0.9027,-0.9098,-0.9098,-0.9237,-0.9302,-0.9302,-0.9302,-0.9302,-0.9302,-0.9302,-0.9302,-0.9302,-0.9302,-0.9302,-0.9302,-0.9302,-0.9302,-0.9302,-0.9302,-0.9302,-0.9307,-0.9432,-0.9487,-0.9497,-0.9654,-0.9709,-0.9698,-0.9536,-0.9487,-0.947,-0.9351,-0.8353,-0.7051,-0.7173,-0.6198,-0.4583,-1.157,-1.1278,-1.107,-1.0779,-1.0634,-1.0609,-1.0648,-1.0481,-1.0367,-1.0313,-1.0356,-1.0307,-1.0095,-1.015,-1.0155,-0.9991,-0.9905,-0.9791,-0.9557,-0.947,-0.9394,-0.9307,-0.9302,-0.9269,-0.9152,-0.8995,-0.8876,-0.8823,-0.8666,-0.859,-0.859,-0.859,-0.859,-0.859,-0.859,-0.859,-0.859,-0.859,-0.859,-0.859,-0.859,-0.859,-0.859,-0.859,-0.859,-0.859,-0.859,-0.859,-0.859,-0.859,-0.859,-0.859,-0.859,-0.859,-0.859,-0.859,-0.859,-0.859,-0.859,-0.859,-0.8606,-0.8727,-0.8748,-0.8759,-0.8798,-0.8834,-0.8881,-0.8957,-0.9011,-0.9082,-0.9231,-0.9125,-0.9044,-0.9044,-0.8938,-0.8823,-0.8823,-0.8865,-0.8919,-0.8919,-0.9092,-0.9253,-0.9253,-0.9285,-0.9302,-0.9302,-0.9302,-0.9302,-0.9302,-0.9302,-0.9302,-0.9302,-0.9302,-0.9302,-0.9302,-0.9302,-0.9302,-0.9302,-0.9302,-0.9302,-0.9307,-0.9432,-0.9536,-0.9654,-0.9693,-0.9709,-0.9698,-0.9536,-0.9438,-0.9356,-0.9318,-0.9034,-0.8649,-0.8877,-0.7904,-0.6429,-1.1741,-1.1452,-1.1146,-1.0689,-1.0498,-1.0473,-1.0522,-1.0346,-1.0231,-1.0204,-1.0226,-1.0182,-1.0036,-1.0085,-1.0101,-1.0025,-0.9867,-0.9721,-0.9574,-0.9514,-0.9432,-0.9307,-0.9302,-0.9269,-0.9168,-0.9049,-0.893,-0.884,-0.872,-0.8667,-0.859,-0.859,-0.859,-0.859,-0.859,-0.859,-0.859,-0.859,-0.859,-0.859,-0.859,-0.859,-0.859,-0.859,-0.859,-0.859,-0.859,-0.859,-0.859,-0.859,-0.859,-0.859,-0.859,-0.859,-0.859,-0.859,-0.8656,-0.8694,-0.8694,-0.8694,-0.8687,-0.8812,-0.8769,-0.8759,-0.8818,-0.8865,-0.8941,-0.9038,-0.9114,-0.9184,-0.9291,-0.9247,-0.9163,-0.9163,-0.9041,-0.8932,-0.8976,-0.8973,-0.9006,-0.9049,-0.9215,-0.9302,-0.9302,-0.9302,-0.9302,-0.9302,-0.9302,-0.9302,-0.9302,-0.9302,-0.9302,-0.9302,-0.9302,-0.9302,-0.9302,-0.9351,-0.9351,-0.9302,-0.9351,-0.9378,-0.9383,-0.9552,-0.9666,-0.9737,-0.9737,-0.9764,-0.9791,-0.9574,-0.947,-0.9438,-0.934,-0.9302,-0.9334,-0.9616,-0.906,-0.8139,-1.2012,-1.1569,-1.1091,-1.0567,-1.0326,-1.0242,-1.0351,-1.0172,-1.0018,-1.0172,-1.009,-0.998,-0.998,-0.998,-0.998,-0.998,-0.9878,-0.9807,-0.9731,-0.9574,-0.9449,-0.9323,-0.9307,-0.9302,-0.9291,-0.9152,-0.9027,-0.8887,-0.8818,-0.8743,-0.859,-0.859,-0.859,-0.859,-0.859,-0.859,-0.859,-0.859,-0.859,-0.859,-0.859,-0.859,-0.859,-0.859,-0.859,-0.859,-0.859,-0.859,-0.859,-0.859,-0.859,-0.859,-0.859,-0.859,-0.859,-0.859,-0.8699,-0.8792,-0.8803,-0.8803,-0.8802,-0.8887,-0.874,-0.8666,-0.8865,-0.8935,-0.9006,-0.9247,-0.9296,-0.9302,-0.9302,-0.9296,-0.9291,-0.9302,-0.9163,-0.9125,-0.9275,-0.9163,-0.9136,-0.9275,-0.9296,-0.9302,-0.9302,-0.9302,-0.9302,-0.9302,-0.9302,-0.9302,-0.9302,-0.9302,-0.9302,-0.9302,-0.9302,-0.9307,-0.9318,-0.9432,-0.9432,-0.9323,-0.9443,-0.9503,-0.9508,-0.9699,-0.9796,-0.9796,-0.9813,-0.9872,-0.9937,-0.9639,-0.96,-0.9665,-0.9394,-0.9302,-0.9334,-0.9616,-0.9698,-0.9457,-1.2338,-1.1956,-1.158,-1.097,-1.0485,-1.021,-1.0237,-1.0117,-0.9991,-1.0057,-1.0036,-0.998,-0.998,-0.998,-0.998,-0.998,-0.9959,-0.9888,-0.9769,-0.9693,-0.9611,-0.9454,-0.9356,-0.9264,-0.9136,-0.9114,-0.8946,-0.8666,-0.877,-0.8743,-0.859,-0.859,-0.859,-0.859,-0.859,-0.859,-0.859,-0.859,-0.859,-0.859,-0.859,-0.859,-0.859,-0.859,-0.859,-0.859,-0.859,-0.859,-0.859,-0.859,-0.859,-0.859,-0.859,-0.859,-0.859,-0.859,-0.8606,-0.8683,-0.8776,-0.8803,-0.8802,-0.8887,-0.884,-0.8769,-0.8881,-0.906,-0.9215,-0.9147,-0.9242,-0.9302,-0.9302,-0.9231,-0.9163,-0.9291,-0.9092,-0.9,-0.9119,-0.9114,-0.9109,-0.913,-0.9253,-0.9302,-0.9302,-0.9302,-0.9302,-0.9302,-0.9302,-0.9302,-0.9302,-0.9302,-0.9302,-0.9302,-0.9302,-0.9351,-0.9449,-0.9476,-0.9476,-0.9449,-0.9611,-0.9665,-0.9671,-0.9775,-0.9796,-0.9807,-0.9899,-0.9905,-0.9823,-0.9699,-0.9627,-0.9514,-0.9362,-0.9302,-0.9334,-0.9616,-0.9649,-0.9335,-1.2303,-1.2109,-1.1835,-1.1223,-1.0746,-1.0392,-1.0392,-1.018,-0.998,-0.998,-0.998,-0.998,-0.998,-0.998,-0.998,-0.998,-0.998,-0.9943,-0.9769,-0.9704,-0.9627,-0.941,-0.934,-0.9253,-0.9103,-0.9152,-0.9035,-0.871,-0.8796,-0.8764,-0.859,-0.859,-0.859,-0.859,-0.859,-0.859,-0.859,-0.859,-0.859,-0.859,-0.859,-0.859,-0.859,-0.859,-0.859,-0.859,-0.859,-0.859,-0.859,-0.859,-0.859,-0.859,-0.859,-0.859,-0.859,-0.859,-0.8661,-0.8721,-0.8787,-0.8812,-0.8872,-0.8903,-0.8914,-0.8959,-0.8989,-0.9054,-0.9114,-0.9168,-0.9264,-0.9302,-0.9302,-0.9258,-0.9237,-0.9296,-0.9119,-0.9044,-0.9163,-0.913,-0.9119,-0.9174,-0.9269,-0.9302,-0.9302,-0.9302,-0.9302,-0.9302,-0.9302,-0.9302,-0.9302,-0.9302,-0.9302,-0.9302,-0.9362,-0.9421,-0.9487,-0.9595,-0.9655,-0.9655,-0.972,-0.9748,-0.9753,-0.9834,-0.9888,-0.9883,-0.9873,-0.9845,-0.978,-0.959,-0.9492,-0.9476,-0.9351,-0.9302,-0.9329,-0.9514,-0.9612,-0.9409,-1.2226,-1.2121,-1.1932,-1.1481,-1.0952,-1.0602,-1.0602,-1.0253,-0.998,-0.998,-0.998,-0.998,-0.998,-0.998,-0.998,-0.998,-0.9964,-0.9905,-0.9709,-0.9698,-0.9583,-0.9345,-0.9313,-0.9253,-0.9103,-0.9226,-0.9106,-0.8803,-0.8859,-0.8795,-0.859,-0.859,-0.859,-0.859,-0.859,-0.859,-0.859,-0.859,-0.859,-0.859,-0.859,-0.859,-0.859,-0.859,-0.859,-0.859,-0.859,-0.859,-0.859,-0.859,-0.859,-0.859,-0.859,-0.859,-0.859,-0.859,-0.8694,-0.8776,-0.8798,-0.8861,-0.8924,-0.8941,-0.9027,-0.9103,-0.9125,-0.9049,-0.9033,-0.9264,-0.9302,-0.9302,-0.9302,-0.9291,-0.928,-0.9302,-0.9174,-0.9136,-0.9291,-0.919,-0.9163,-0.9291,-0.9302,-0.9302,-0.9302,-0.9302,-0.9302,-0.9302,-0.9302,-0.9302,-0.9302,-0.9302,-0.9302,-0.9302,-0.94,-0.9476,-0.9519,-0.9709,-0.9791,-0.9829,-0.9829,-0.9829,-0.9834,-0.9937,-0.998,-1.0008,-0.9813,-0.9769,-0.9775,-0.9497,-0.9416,-0.9476,-0.9351,-0.9302,-0.9318,-0.9416,-0.9617,-0.9605,-1.2485,-1.2246,-1.2056,-1.1869,-1.1146,-1.0602,-1.0602,-1.0253,-0.998,-0.998,-0.998,-0.998,-0.998,-0.998,-0.998,-0.998,-0.9883,-0.9813,-0.978,-0.9622,-0.9497,-0.9465,-0.9362,-0.9253,-0.9103,-0.9114,-0.903,-0.8803,-0.8859,-0.8795,-0.859,-0.859,-0.859,-0.859,-0.859,-0.859,-0.859,-0.859,-0.859,-0.859,-0.859,-0.859,-0.859,-0.859,-0.859,-0.859,-0.859,-0.859,-0.859,-0.859,-0.859,-0.859,-0.859,-0.859,-0.859,-0.859,-0.86,-0.8667,-0.8776,-0.8861,-0.8941,-0.9049,-0.9087,-0.9125,-0.9258,-0.9269,-0.9264,-0.9296,-0.9302,-0.9302,-0.9302,-0.919,-0.9152,-0.9291,-0.9174,-0.9136,-0.9291,-0.9291,-0.9285,-0.9302,-0.9302,-0.9302,-0.9302,-0.9302,-0.9302,-0.9302,-0.9302,-0.9302,-0.9302,-0.9302,-0.9302,-0.9302,-0.9318,-0.9432,-0.9682,-0.9714,-0.9796,-0.9953,-0.9953,-0.9953,-0.9959,-0.9975,-0.998,-0.998,-0.9987,-0.9883,-0.9786,-0.9682,-0.9605,-0.9476,-0.9351,-0.9302,-0.9307,-0.9323,-0.9546,-0.9747,-1.2515,-1.24,-1.231,-1.2244,-1.1727,-1.134,-1.134,-1.0758,-1.033,-1.033,-1.0136,-0.998,-0.998,-0.9921,-0.9878,-0.9878,-0.9813,-0.9715,-0.9644,-0.9546,-0.9454,-0.9389,-0.9334,-0.928,-0.9231,-0.9231,-0.9111,-0.8872,-0.8856,-0.8758,-0.859,-0.859,-0.859,-0.859,-0.859,-0.859,-0.859,-0.859,-0.859,-0.859,-0.859,-0.859,-0.859,-0.859,-0.859,-0.859,-0.859,-0.859,-0.859,-0.859,-0.859,-0.859,-0.859,-0.859,-0.859,-0.859,-0.8667,-0.8738,-0.8792,-0.891,-0.9033,-0.9087,-0.9147,-0.9242,-0.9291,-0.9302,-0.9302,-0.9302,-0.9302,-0.9302,-0.9302,-0.9264,-0.9247,-0.9296,-0.9264,-0.9247,-0.9296,-0.9302,-0.9302,-0.9302,-0.9302,-0.9302,-0.9302,-0.9302,-0.9302,-0.9302,-0.9302,-0.9302,-0.9302,-0.9302,-0.9334,-0.9405,-0.947,-0.959,-0.9764,-0.9829,-0.9916,-0.998,-0.998,-0.998,-0.998,-0.998,-0.998,-1.0014,-0.9883,-0.9796,-0.9731,-0.9541,-0.9432,-0.9378,-0.9323,-0.9302,-0.9302,-0.9302,-0.9449,-0.9633]},{"header":{"parameterUnit":"m.s-1","parameterCategory":1,"la1":30.6,"la2":28.766,"lo1":-90.7593,"lo2":-88.6598,"dy":0.0162,"dx":0.0183,"nx":116,"ny":114,"refTime":"2023-04-23T06:00:00:Z","depth":0,"parameterNumber":3,"parameterNumberName":"V-component_of_WINDS"},"data":[0.0,0.0,0.0,0.0,0.0,0.0,0.0,0.0,0.0,0.0,0.0,0.0,0.0,0.0,0.0,0.0,0.0,0.0,0.0,0.0,0.0,0.0,0.0,0.0,0.0,0.0,0.0,0.0,0.0,0.0,0.0,0.0,0.0,0.0,0.0,0.0,0.0,0.0,0.0,0.0,0.0,0.0,0.0,0.0,0.0,0.0,0.0,0.0,0.0,0.0,0.0,0.0,0.0,0.0,0.0,0.0,0.0,0.0,0.0,0.0,0.0,0.0,0.0,0.0,0.0,0.0,0.0,0.0,0.0,0.0,0.0,0.0,0.0,0.0,0.0,0.0,0.0,0.0,0.0,0.0,0.0,0.0,0.0,0.0,0.0,0.0,0.0,0.0,0.0,0.0,0.0,0.0,0.0,0.0,0.0,0.0,0.0,0.0,0.0,0.0,0.0,0.0,0.0,0.0,0.0,0.0,0.0,0.0,0.0,0.0,0.0,0.0,0.0,0.0,0.0,0.0,0.0,0.0,0.0,0.0,0.0,0.0,0.0,0.0,0.0,0.0,0.0,0.0,0.0,0.0,0.0,0.0,0.0,0.0,0.0,0.0,0.0,0.0,0.0,0.0,0.0,0.0,0.0,0.0,0.0,0.0,0.0,0.0,0.0,0.0,0.0,0.0,0.0,0.0,0.0,0.0,0.0,0.0,0.0,0.0,0.0,0.0,0.0,0.0,0.0,0.0,0.0,0.0,0.0,0.0,0.0,0.0,0.0,0.0,0.0,0.0,0.0,0.0,0.0,0.0,0.0,0.0,0.0,0.0,0.0,0.0,0.0,0.0,0.0,0.0,0.0,0.0,0.0,0.0,0.0,0.0,0.0,0.0,0.0,0.0,0.0,0.0,0.0,0.0,0.0,0.0,0.0,0.0,0.0,0.0,0.0,0.0,0.0,0.0,0.0,0.0,0.0,0.0,0.0,0.0,0.0,0.0,0.0,0.0,0.0,0.0,0.0,0.0,0.0,0.0,0.0,0.0,0.0,0.0,0.0,0.0,0.0,0.0,0.0,0.0,0.0,0.0,0.0,0.0,0.0,0.0,0.0,0.0,0.0,0.0,0.0,0.0,0.0,0.0,0.0,0.0,0.0,0.0,0.0,0.0,0.0,0.0,0.0,0.0,0.0,0.0,0.0,0.0,0.0,0.0,0.0,0.0,0.0,0.0,0.0,0.0,0.0,0.0,0.0,0.0,0.0,0.0,0.0,0.0,0.0,0.0,0.0,0.0,0.0,0.0,0.0,0.0,0.0,0.0,0.0,0.0,0.0,0.0,0.0,0.0,0.0,0.0,0.0,0.0,0.0,0.0,0.0,0.0,0.0,0.0,0.0,0.0,0.0,0.0,0.0,0.0,0.0,0.0,0.0,0.0,0.0,0.0,0.0,0.0,0.0,0.0,0.0,0.0,0.0,0.0,0.0,0.0,0.0,0.0,0.0,0.0,0.0,0.0,0.0,0.0,0.0,0.0,0.0,0.0,0.0,0.0,0.0,0.0,0.0,0.0,0.0,0.0,0.0,0.0,0.0,0.0,0.0,0.0,0.0,0.0,0.0,0.0,0.0,0.0,0.0,0.0,0.0,0.0,0.0,0.0,0.0,0.0,0.0,0.0,0.0,0.0,0.0,0.0,0.0,0.0,0.0,0.0,0.0,0.0,0.0,0.0,0.0,0.0,0.0,0.0,0.0,0.0,0.0,0.0,0.0,0.0,0.0,0.0,0.0,0.0,0.0,0.0,0.0,0.0,0.0,0.0,0.0,0.0,0.0,0.0,0.0,0.0,0.0,0.0,0.0,0.0,0.0,0.0,0.0,0.0,0.0,0.0,0.0,0.0,0.0,0.0,0.0,0.0,0.0,0.0,0.0,0.0,0.0,0.0,0.0,0.0,0.0,0.0,0.0,0.0,0.0,0.0,0.0,0.0,0.0,0.0,0.0,0.0,0.0,0.0,0.0,0.0,0.0,0.0,0.0,0.0,0.0,0.0,0.0,0.0,0.0,0.0,0.0,0.0,0.0,0.0,0.0,0.0,0.0,0.0,0.0,0.0,0.0,0.0,0.0,0.0,0.0,0.0,0.0,0.0,0.0,0.0,0.0,0.0,0.0,0.0,0.0,0.0,0.0,0.0,0.0,0.0,0.0,0.0,0.0,0.0,0.0,0.0,0.0,0.0,0.0,0.0,0.0,0.0,0.0,0.0,0.0,0.0,0.0,0.0,0.0,0.0,0.0,0.0,0.0,0.0,0.0,0.0,0.0,0.0,0.0,0.0,0.0,0.0,0.0,0.0,0.0,0.0,0.0,0.0,0.0,0.0,0.0,0.0,0.0,0.0,0.0,0.0,0.0,0.0,0.0,0.0,0.0,0.0,0.0,0.0,0.0,0.0,0.0,0.0,0.0,0.0,0.0,0.0,0.0,0.0,0.0,0.0,0.0,0.0,0.0,0.0,0.0,0.0,0.0,0.0,0.0,0.0,0.0,0.0,0.0,0.0,0.0,0.0,0.0,0.0,0.0,0.0,0.0,0.0,0.0,0.0,0.0,0.0,0.0,0.0,0.0,0.0,0.0,0.0,0.0,0.0,0.0,0.0,0.0,0.0,0.0,0.0,0.0,0.0,0.0,0.0,0.0,0.0,0.0,0.0,0.0,0.0,0.0,0.0,0.0,0.0,0.0,0.0,0.0,0.0,0.0,0.0,0.0,0.0,0.0,0.0,0.0,0.0,0.0,0.0,0.0,0.0,0.0,0.0,0.0,0.0,0.0,0.0,0.0,0.0,0.0,0.0,0.0,0.0,0.0,0.0,0.0,0.0,0.0,0.0,0.0,0.0,0.0,0.0,0.0,0.0,0.0,0.0,0.0,0.0,0.0,0.0,0.0,0.0,0.0,0.0,0.0,0.0,0.0,0.0,0.0,0.0,0.0,0.0,0.0,0.0,0.0,0.0,0.0,0.0,0.0,0.0,0.0,0.0,0.0,0.0,0.0,0.0,0.0,0.0,0.0,0.0,0.0,0.0,0.0,0.0,0.0,0.0,0.0,0.0,0.0,0.0,0.0,0.0,0.0,0.0,0.0,0.0,0.0,0.0,0.0,0.0,0.0,0.0,0.0,0.0,0.0,0.0,0.0,0.0,0.0,0.0,0.0,0.0,0.0,0.0,0.0,0.0,0.0,0.0,0.0,0.0,0.0,0.0,0.0,0.0,0.0,0.0,0.0,0.0,0.0,0.0,0.0,0.0,0.0,0.0,0.0,0.0,0.0,0.0,0.0,0.0,0.0,0.0,0.0,0.0,0.0,0.0,0.0,0.0,0.0,0.0,0.0,0.0,0.0,0.0,0.0,0.0,0.0,0.0,0.0,0.0,0.0,0.0,0.0,0.0,0.0,0.0,0.0,0.0,0.0,0.0,0.0,0.0,0.0,0.0,0.0,0.0,0.0,0.0,0.0,0.0,0.0,0.0,0.0,0.0,0.0,0.0,0.0,0.0,0.0,0.0,0.0,0.0,0.0,0.0,0.0,0.0,0.0,0.0,0.0,0.0,0.0,0.0,0.0,0.0,0.0,0.0,0.0,0.0,0.0,0.0,0.0,0.0,0.0,0.0,0.0,0.0,0.0,0.0,0.0,0.0,0.0,0.0,0.0,0.0,0.0,0.0,0.0,0.0,0.0,0.0,0.0,0.0,0.0,0.0,0.0,0.0,0.0,0.0,0.0,0.0,0.0,0.0,0.0,0.0,0.0,0.0,0.0,0.0,0.0,0.0,0.0,0.0,0.0,0.0,0.0,0.0,0.0,0.0,0.0,0.0,0.0,0.0,0.0,0.0,0.0,0.0,0.0,0.0,0.0,0.0,0.0,0.0,0.0,0.0,0.0,0.0,0.0,0.0,0.0,0.0,0.0,0.0,0.0,0.0,0.0,0.0,0.0,0.0,0.0,0.0,0.0,0.0,0.0,0.0,0.0,0.0,0.0,0.0,0.0,0.0,0.0,0.0,0.0,0.0,0.0,0.0,0.0,0.0,0.0,0.0,0.0,0.0,0.0,0.0,0.0,0.0,0.0,0.0,0.0,0.0,0.0,0.0,0.0,0.0,0.0,0.0,0.0,0.0,0.0,0.0,0.0,0.0,0.0,0.0,0.0,0.0,0.0,0.0,0.0,0.0,0.0,0.0,0.0,0.0,0.0,0.0,0.0,0.0,0.0,0.0,0.0,0.0,0.0,0.0,0.0,0.0,0.0,0.0,0.0,0.0,0.0,0.0,0.0,0.0,0.0,0.0,0.0,0.0,0.0,0.0,0.0,0.0,0.0,0.0,0.0,0.0,0.0,0.0,0.0,0.0,0.0,0.0,0.0,0.0,0.0,0.0,0.0,0.0,0.0,0.0,0.0,0.0,0.0,0.0,0.0,0.0,0.0,0.0,0.0,0.0,0.0,0.0,0.0,0.0,0.0,0.0,0.0,0.0,0.0,0.0,0.0,0.0,0.0,0.0,0.0,0.0,0.0,0.0,0.0,0.0,0.0,0.0,0.0,0.0,0.0,0.0,0.0,0.0,0.0,0.0,0.0,0.0,0.0,0.0,0.0,0.0,0.0,0.0,0.0,0.0,0.0,0.0,0.0,0.0,0.0,0.0,0.0,0.0,0.0,0.0,0.0,0.0,0.0,0.0,0.0,0.0,0.0,0.0,0.0,0.0,0.0,0.0,0.0,0.0,0.0,0.0,0.0,0.0,0.0,0.0,0.0,0.0,0.0,0.0,0.0,0.0,0.0,0.0,0.0,0.0,0.0,0.0,0.0,0.0,0.0,0.0,0.0,0.0,0.0,0.0,0.0,0.0,0.0,0.0,0.0,0.0,0.0,0.0,0.0,0.0,0.0,0.0,0.0,0.0,0.0,0.0,0.0,0.0,0.0,0.0,0.0,0.0,0.0,0.0,0.0,0.0,0.0,0.0,0.0,0.0,0.0,0.0,0.0,0.0,0.0,0.0,0.0,0.0,0.0,0.0,0.0,0.0,0.0,0.0,0.0,0.0,0.0,0.0,0.0,0.0,0.0,0.0,0.0,0.0,0.0,0.0,0.0,0.0,0.0,0.0,0.0,0.0,0.0,0.0,0.0,0.0,0.0,0.0,0.0,0.0,0.0,0.0,0.0,0.0,0.0,0.0,0.0,0.0,0.0,0.0,0.0,0.0,0.0,0.0,0.0,0.0,0.0,0.0,0.0,0.0,0.0,0.0,0.0,0.0,0.0,0.0,0.0,0.0,0.0,0.0,0.0,0.0,0.0,0.0,0.0,0.0,0.0,0.0,0.0,0.0,0.0,0.0,0.0,0.0,0.0,0.0,0.0,0.0,0.0,0.0,0.0,0.0,0.0,0.0,0.0,0.0,0.0,0.0,0.0,0.0,0.0,0.0,0.0,0.0,0.0,0.0,0.0,0.0,0.0,0.0,0.0,0.0,0.0,0.0,0.0,0.0,0.0,0.0,0.0,0.0,0.0,0.0,0.0,0.0,0.0,0.0,0.0,0.0,0.0,0.0,0.0,0.0,0.0,0.0,0.0,0.0,0.0,0.0,0.0,0.0,0.0,0.0,0.0,0.0,0.0,0.0,0.0,0.0,0.0,0.0,0.0,0.0,0.0,0.0,0.0,0.0,0.0,0.0,0.0,0.0,0.0,0.0,0.0,0.0,0.0,0.0,0.0,0.0,0.0,0.0,0.0,0.0,0.0,0.0,0.0,0.0,0.0,0.0,0.0,0.0,0.0,0.0,0.0,0.0,0.0,0.0,0.0,0.0,0.0,0.0,0.0,0.0,0.0,0.0,0.0,0.0,0.0,0.0,0.0,0.0,0.0,0.0,0.0,0.0,0.0,0.0,0.0,0.0,0.0,0.0,0.0,0.0,0.0,0.0,0.0,0.0,0.0,0.0,0.0,0.0,0.0,0.0,0.0,0.0,0.0,0.0,0.0,0.0,0.0,0.0,0.0,0.0,0.0,0.0,0.0,0.0,0.0,0.0,0.0,0.0,0.0,0.0,0.0,0.0,0.0,0.0,0.0,0.0,0.0,0.0,0.0,0.0,4.4573,4.3619,0.0,0.0,0.0,0.0,0.0,0.0,0.0,0.0,0.0,0.0,0.0,0.0,0.0,0.0,0.0,0.0,0.0,0.0,0.0,0.0,0.0,0.0,0.0,0.0,0.0,0.0,0.0,0.0,0.0,0.0,0.0,0.0,0.0,0.0,0.0,0.0,0.0,0.0,4.5983,4.6412,4.6801,4.6801,4.6607,4.6217,0.0,0.0,0.0,0.0,0.0,0.0,0.0,0.0,0.0,0.0,0.0,0.0,0.0,0.0,0.0,0.0,0.0,0.0,0.0,0.0,0.0,0.0,0.0,0.0,0.0,0.0,0.0,0.0,0.0,0.0,0.0,0.0,0.0,0.0,0.0,0.0,0.0,0.0,0.0,0.0,0.0,0.0,0.0,0.0,0.0,0.0,0.0,0.0,0.0,0.0,0.0,0.0,0.0,0.0,0.0,0.0,0.0,0.0,0.0,0.0,0.0,0.0,0.0,0.0,0.0,0.0,0.0,0.0,0.0,0.0,4.6582,4.5255,0.0,0.0,0.0,0.0,0.0,0.0,0.0,0.0,0.0,0.0,0.0,0.0,0.0,0.0,0.0,0.0,0.0,0.0,0.0,0.0,0.0,0.0,0.0,4.2315,4.2354,4.251,4.3172,4.3367,0.0,0.0,0.0,0.0,0.0,0.0,0.0,4.5827,4.6217,4.6217,4.6801,4.762,4.8631,4.8945,4.8594,4.7737,4.684,0.0,0.0,0.0,0.0,0.0,0.0,0.0,0.0,0.0,0.0,0.0,0.0,0.0,0.0,0.0,0.0,0.0,0.0,0.0,0.0,0.0,0.0,0.0,0.0,0.0,0.0,0.0,0.0,0.0,0.0,0.0,0.0,0.0,0.0,0.0,0.0,0.0,0.0,0.0,0.0,0.0,0.0,0.0,0.0,0.0,0.0,0.0,0.0,0.0,0.0,0.0,0.0,0.0,0.0,0.0,0.0,0.0,0.0,0.0,0.0,0.0,0.0,0.0,5.2532,5.2926,5.3334,5.3449,5.3601,5.354,4.9772,4.8028,4.7763,4.6967,0.0,0.0,0.0,0.0,0.0,0.0,0.0,0.0,0.0,0.0,0.0,0.0,0.0,0.0,0.0,0.0,0.0,0.0,0.0,0.0,0.0,4.2315,4.2588,4.3367,4.3523,4.3875,4.4502,0.0,0.0,0.0,0.0,0.0,4.6022,4.6139,4.6217,4.6217,4.9177,5.1476,5.3071,5.4595,5.4868,5.3812,4.9333,4.8126,4.9333,0.0,0.0,0.0,0.0,0.0,0.0,0.0,0.0,0.0,0.0,0.0,0.0,0.0,0.0,0.0,0.0,0.0,0.0,0.0,0.0,0.0,0.0,0.0,0.0,0.0,0.0,0.0,0.0,0.0,0.0,0.0,0.0,0.0,0.0,0.0,0.0,0.0,0.0,0.0,0.0,0.0,4.7319,4.6604,0.0,0.0,0.0,0.0,0.0,0.0,0.0,0.0,0.0,0.0,0.0,0.0,0.0,5.1881,5.2873,5.4996,5.5913,5.5653,5.7734,5.8122,5.7023,5.7582,5.8273,5.8874,5.6816,0.0,4.9507,4.8711,0.0,0.0,0.0,0.0,0.0,0.0,0.0,0.0,0.0,0.0,0.0,0.0,0.0,0.0,0.0,0.0,0.0,0.0,0.0,0.0,0.0,4.4343,4.5163,4.5085,4.7694,4.8318,4.5788,4.7425,0.0,0.0,0.0,4.6217,4.6217,4.6217,4.7152,4.906,5.2058,5.4357,5.6074,5.7323,5.7947,5.7944,5.5178,5.2489,4.9917,4.8826,0.0,0.0,0.0,0.0,0.0,0.0,0.0,0.0,0.0,0.0,0.0,0.0,0.0,0.0,0.0,0.0,0.0,0.0,0.0,0.0,0.0,0.0,0.0,0.0,0.0,0.0,0.0,0.0,0.0,0.0,0.0,0.0,0.0,0.0,0.0,0.0,0.0,0.0,0.0,4.7846,4.8398,4.6971,4.7831,4.7657,0.0,0.0,0.0,0.0,0.0,0.0,0.0,0.0,0.0,5.3491,5.5202,5.6677,5.8007,5.9574,6.092,6.1978,6.3041,6.3484,6.3328,6.3628,6.3688,6.353,6.2805,6.0128,5.6092,5.284,5.0523,4.8932,0.0,0.0,0.0,0.0,4.8432,4.8584,0.0,0.0,0.0,0.0,0.0,0.0,0.0,0.0,0.0,0.0,0.0,0.0,4.4733,4.6839,4.8165,4.8165,5.1476,5.1824,4.7776,4.9294,4.9177,4.6646,4.6334,4.6217,4.6217,4.7074,4.941,5.3268,5.5877,5.8139,6.0012,6.1103,6.1999,6.2545,6.1685,5.8061,5.2567,5.1242,4.9566,4.7776,0.0,0.0,0.0,0.0,0.0,0.0,0.0,0.0,0.0,0.0,0.0,0.0,0.0,0.0,0.0,0.0,0.0,0.0,0.0,0.0,0.0,0.0,0.0,0.0,0.0,0.0,0.0,0.0,0.0,0.0,0.0,0.0,0.0,0.0,0.0,0.0,0.0,4.9416,5.0074,4.7829,4.9816,5.0035,0.0,0.0,0.0,0.0,0.0,0.0,5.45,5.6119,5.7489,5.862,6.0289,6.185,6.3289,6.4181,6.5675,6.7732,6.7707,6.8143,6.9061,6.9019,6.8507,6.7732,6.7478,6.571,6.2619,5.7476,5.4228,5.2406,5.1351,5.0902,5.0978,5.142,5.1875,5.2368,0.0,0.0,0.0,0.0,0.0,0.0,0.0,0.0,0.0,0.0,0.0,4.3875,4.8086,4.9333,5.0852,5.3305,5.2993,5.2214,5.1125,4.8943,4.762,4.7425,4.6646,4.6217,4.6217,4.9372,5.3541,5.8609,6.1218,6.3789,6.6281,6.8,6.8819,6.8819,6.7959,6.4644,5.9464,5.4554,5.2409,5.198,4.8748,0.0,0.0,0.0,0.0,0.0,0.0,0.0,0.0,0.0,0.0,0.0,0.0,0.0,0.0,0.0,0.0,0.0,0.0,0.0,0.0,0.0,0.0,0.0,0.0,0.0,0.0,0.0,0.0,0.0,0.0,0.0,0.0,0.0,0.0,0.0,0.0,0.0,0.0,4.9652,5.4055,0.0,0.0,0.0,0.0,5.3503,5.5147,5.7166,5.9687,6.1401,6.3077,6.4698,6.6374,6.766,6.8498,6.9374,7.0331,7.1324,7.1199,7.1709,7.2733,7.253,7.2037,7.1298,7.0419,6.9014,6.6996,6.1933,5.8401,5.5964,5.4334,5.3687,5.361,5.2887,5.361,5.4905,0.0,0.0,0.0,0.0,0.0,0.0,0.0,0.0,4.1382,4.2198,4.4265,4.6644,4.9294,5.2801,5.5336,5.6269,5.7594,5.7321,5.4829,5.2762,5.1125,4.9995,4.8087,4.8087,5.0268,5.4203,5.7983,6.149,6.5195,6.7767,6.9245,7.0962,7.1741,7.1741,7.1427,6.9673,6.652,6.0204,5.6308,5.3968,5.0502,4.8592,0.0,0.0,0.0,0.0,0.0,0.0,0.0,0.0,0.0,0.0,0.0,0.0,0.0,0.0,0.0,0.0,0.0,0.0,0.0,0.0,0.0,0.0,0.0,0.0,0.0,0.0,0.0,0.0,0.0,0.0,0.0,0.0,0.0,0.0,0.0,0.0,0.0,5.6039,5.9645,0.0,5.7032,5.7828,5.9147,6.0559,6.2068,6.4038,6.6634,6.8319,6.9997,7.1765,7.3436,7.4458,7.4763,7.5068,7.5124,7.4884,7.4323,7.4226,7.463,7.4523,7.4047,7.3271,7.2931,7.1816,7.0145,6.8322,6.5061,6.1119,5.9984,5.9565,5.9527,5.9246,5.9512,5.9969,0.0,0.0,0.0,0.0,0.0,0.0,0.0,0.0,4.1499,4.2588,4.5787,4.9023,5.1867,5.6544,5.97,6.0243,6.1373,6.0711,5.7557,5.4632,5.237,5.093,4.9527,5.0657,5.4671,5.8957,6.2737,6.5894,6.9637,7.1741,7.2365,7.3765,7.4427,7.4427,7.4427,7.396,7.283,6.7063,6.1802,5.7046,5.358,5.1867,5.0893,0.0,0.0,0.0,0.0,0.0,0.0,0.0,0.0,0.0,0.0,0.0,0.0,0.0,0.0,0.0,0.0,0.0,0.0,0.0,0.0,0.0,0.0,0.0,0.0,0.0,0.0,0.0,0.0,0.0,0.0,0.0,0.0,0.0,0.0,5.8488,6.1887,6.1872,6.5803,6.7321,6.4217,6.502,6.6308,6.7718,6.9153,7.0938,7.3276,7.4655,7.5953,7.7153,7.8252,7.871,7.8443,7.8443,7.7984,7.7144,7.6303,7.6044,7.6312,7.5777,7.5165,7.4622,7.4316,7.359,7.252,7.252,7.0514,6.718,6.5205,6.4443,6.4405,6.3817,6.3817,6.4038,0.0,0.0,0.0,0.0,0.0,0.0,0.0,4.1109,4.1732,4.3406,4.6759,5.0893,5.6039,6.0441,6.3672,6.5346,6.3906,6.1802,5.9232,5.4203,5.093,5.0112,5.1047,5.397,5.9116,6.3439,6.7686,7.1975,7.4544,7.583,7.583,7.6727,7.7116,7.7116,7.7116,7.7584,7.8165,7.4739,6.8972,6.1763,5.818,5.6702,5.6078,0.0,0.0,0.0,0.0,0.0,0.0,0.0,0.0,0.0,0.0,0.0,0.0,0.0,0.0,0.0,0.0,0.0,0.0,0.0,0.0,0.0,0.0,0.0,0.0,0.0,0.0,0.0,0.0,0.0,0.0,0.0,0.0,0.0,5.8042,6.4217,6.8345,6.6881,7.2437,7.4785,7.0655,7.2351,7.4014,7.4763,7.6074,7.7602,7.9331,8.0171,8.0582,8.0621,8.0621,8.0248,7.9445,7.9407,7.8949,7.8061,7.7182,7.7182,7.7946,7.635,7.5586,7.5471,7.466,7.4269,7.4231,7.4269,7.4269,7.3858,6.9731,6.8058,6.7828,6.6178,6.6063,6.6743,0.0,0.0,0.0,0.0,0.0,0.0,4.0992,4.1615,4.259,4.4306,4.9177,5.397,5.7908,6.2698,6.6086,6.7177,6.4608,6.2348,6.0984,5.4866,5.1476,5.1863,5.5684,5.9932,6.4488,6.8154,7.1856,7.5558,7.7503,7.8477,7.8477,7.9334,7.9763,7.9763,7.9763,7.988,7.9997,7.8438,7.583,7.2128,6.4919,6.0906,5.8882,0.0,0.0,0.0,0.0,0.0,0.0,0.0,0.0,0.0,0.0,0.0,0.0,0.0,0.0,0.0,0.0,0.0,0.0,0.0,0.0,0.0,0.0,0.0,0.0,0.0,0.0,0.0,0.0,0.0,0.0,0.0,6.3281,6.6807,6.5087,6.9291,7.3307,7.5409,7.8908,8.0432,7.8637,7.9447,8.0052,8.0023,8.0255,8.085,8.1929,8.2197,8.2617,8.3219,8.3257,8.3152,8.2923,8.1729,8.0697,7.9818,7.8328,7.7755,7.8022,7.8184,7.7573,7.6379,7.68,7.6265,7.5204,7.5768,7.5997,7.5768,7.3399,7.1718,7.0503,6.9425,6.8394,6.7744,0.0,0.0,0.0,0.0,0.0,0.0,4.0485,4.1538,4.3057,4.5165,5.0696,5.576,5.9155,6.414,6.7294,6.745,6.4956,6.2426,6.0129,5.5217,5.3266,5.5217,5.9542,6.4257,6.9284,7.2752,7.6025,7.9142,8.0857,8.1286,8.0623,8.187,8.2026,8.1364,8.2104,8.2416,8.2377,8.1519,8.0584,7.9181,7.3411,6.9128,6.5738,6.1337,5.9737,5.9462,5.6775,5.6308,5.6583,5.4244,0.0,0.0,0.0,0.0,0.0,0.0,0.0,0.0,0.0,0.0,0.0,0.0,0.0,0.0,0.0,0.0,0.0,0.0,0.0,0.0,0.0,0.0,0.0,0.0,7.0595,7.4982,7.5269,7.7447,7.9917,8.2268,8.4482,8.5607,8.4995,8.5134,8.5095,8.4786,8.4239,8.4098,8.4556,8.4375,8.4505,8.5003,8.5003,8.485,8.4467,8.3381,8.2416,8.1538,8.0238,7.978,8.0086,7.9904,7.9436,7.8825,7.8978,7.8481,7.7611,7.7726,7.7802,7.7602,0.0,0.0,0.0,0.0,7.1374,7.0648,0.0,0.0,0.0,0.0,0.0,0.0,3.9901,4.1382,4.3408,4.5983,5.1593,5.6578,5.9815,6.4761,6.7489,6.6631,6.4956,6.2231,5.8102,5.5918,5.6269,5.9583,6.3283,6.7842,7.3414,7.6843,7.9883,8.2536,8.4095,8.4134,8.2848,8.4406,8.4289,8.2887,8.4445,8.5182,8.5221,8.4328,8.3939,8.3666,8.1945,7.8672,7.4155,6.7803,6.6748,6.7956,6.3166,6.0635,5.9388,5.818,0.0,0.0,0.0,0.0,0.0,0.0,0.0,0.0,0.0,0.0,0.0,0.0,0.0,0.0,0.0,0.0,0.0,0.0,0.0,0.0,0.0,0.0,0.0,0.0,7.774,8.288,8.639,8.7014,8.7248,8.7481,8.8962,8.9792,8.9444,8.9233,8.8931,8.8593,8.7607,8.7025,8.691,8.6551,0.0,0.0,0.0,8.5827,8.4986,8.4543,8.3955,8.3152,8.2302,8.2302,8.2961,8.1538,8.1232,8.1767,8.1079,8.0659,8.043,7.9827,7.9598,7.9407,7.7449,7.6685,7.6532,7.5033,7.4422,7.4278,0.0,0.0,0.0,0.0,0.0,0.0,4.0641,4.2276,4.4304,4.6918,5.2491,5.7011,5.9038,6.3867,6.6592,6.5735,6.4101,6.188,5.896,5.9581,6.1334,6.4023,6.9479,7.3609,7.6181,7.8906,8.1945,8.526,8.5572,8.6274,8.7287,8.7598,8.7598,8.7287,8.7598,8.8144,8.8767,8.7871,8.7092,8.6312,8.4637,8.1364,7.7233,7.4505,7.2908,7.1817,6.9442,6.9715,7.0609,6.6985,6.5894,6.5312,6.0984,5.7009,0.0,0.0,0.0,0.0,0.0,0.0,0.0,0.0,0.0,0.0,0.0,0.0,0.0,0.0,0.0,0.0,0.0,0.0,0.0,7.7113,8.3075,8.8222,9.1732,9.3369,9.3015,8.9703,9.0209,9.0458,8.9493,8.998,8.994,8.8966,8.8695,8.8272,8.757,8.8098,8.8095,8.7392,8.7354,8.7193,8.6803,8.5343,8.4423,8.4021,8.319,0.0,8.2999,8.3381,8.2913,8.1843,8.2311,8.1738,8.0544,8.1079,8.1308,8.1003,7.7908,7.6685,7.6647,7.6341,7.5806,7.5318,0.0,0.0,0.0,0.0,0.0,0.0,3.9667,4.1965,4.4382,4.6568,5.1322,5.5022,5.6308,5.9893,6.1685,6.0397,5.954,5.904,5.9057,6.2295,6.5918,6.9736,7.4468,7.8405,8.143,8.273,8.4883,8.7963,8.7963,8.7924,8.7924,8.835,8.8077,8.7259,8.7687,8.8389,8.9169,8.874,8.8302,8.7819,8.7004,8.5354,8.3078,8.0039,7.8636,7.8012,7.6337,7.5713,7.5324,7.271,7.0998,6.9364,6.5894,6.215,5.8371,0.0,0.0,0.0,0.0,0.0,0.0,0.0,0.0,0.0,0.0,0.0,0.0,0.0,0.0,6.5974,6.9907,0.0,7.9571,8.5611,8.9469,9.2469,9.4655,9.5668,9.5236,9.2664,9.2742,9.2721,9.2024,9.1571,9.1207,9.0906,9.0073,8.9415,8.8983,8.9119,8.8998,8.8571,8.8571,8.8505,8.837,8.6904,8.6076,8.5795,8.4904,8.4412,8.425,8.4709,8.4441,8.3677,8.4098,8.3563,8.2378,8.1958,8.1538,8.0964,7.9283,7.8596,7.8557,7.8137,7.7764,7.7382,0.0,0.0,0.0,0.0,0.0,0.0,0.0,4.1499,4.4031,4.5944,4.9648,5.2452,5.3305,5.5688,5.6587,5.5063,5.5576,5.7145,5.989,6.5086,7.0156,7.4943,7.8674,8.2226,8.5671,8.5929,8.7268,8.9915,8.9915,8.9333,8.8319,8.9021,8.8592,8.7302,8.8004,8.8706,8.9372,8.9372,8.9242,8.91,8.91,8.8887,8.8154,8.4689,8.3672,8.3897,8.1987,7.9646,7.7389,7.6688,7.4388,7.1586,6.9983,6.7255,6.375,5.9232,5.7791,0.0,0.0,0.0,0.0,0.0,0.0,0.0,0.0,0.0,6.3867,6.6748,7.0102,7.408,7.9104,8.2844,8.7017,9.2785,9.4538,9.5473,9.6327,9.66,9.6366,9.5512,9.5123,9.484,9.4611,9.3303,9.2609,9.2961,9.1663,9.0733,9.0378,9.0141,8.9926,8.9732,8.9732,8.9712,8.9634,8.8554,8.7884,8.764,8.6738,8.6197,8.5904,8.5751,8.5675,8.5665,8.5628,8.5246,8.4481,8.276,8.1614,8.0964,8.0621,8.0506,8.043,7.9789,7.9522,7.9407,0.0,0.0,0.0,0.0,0.0,0.0,0.0,0.0,4.3369,4.5866,4.8646,5.0674,5.1515,5.3904,5.5083,5.4147,5.6897,6.0096,6.343,6.9187,7.4106,7.7711,8.1948,8.4457,8.492,8.5627,8.7268,8.9915,8.9915,9.0579,9.1908,9.2025,9.1947,9.179,9.1869,9.1986,9.2064,9.2064,9.1632,9.0924,9.0924,8.9972,8.8542,8.8074,8.7433,8.6468,8.3974,8.1442,7.9217,7.91,7.7815,7.6103,7.5129,7.2986,6.979,6.4725,6.0594,5.7089,5.424,5.4435,5.5994,5.8061,5.9932,6.3088,0.0,7.2128,7.3999,7.8087,8.1714,8.4559,8.5962,8.904,9.1885,9.3447,9.5006,9.6366,9.7223,9.8003,9.8197,9.7301,9.5824,9.4882,9.4863,9.4668,9.431,9.3667,9.3434,9.2616,9.1089,9.1693,9.1704,9.0925,9.0925,9.0815,9.0571,8.9652,8.9093,8.8794,8.7936,8.749,8.7417,8.6637,8.6282,8.6307,8.6052,8.5873,8.5664,8.3685,8.2808,8.2579,8.1079,8.0506,8.0506,8.0391,8.0353,8.0238,0.0,0.0,0.0,0.0,0.0,0.0,0.0,0.0,0.0,4.3798,4.6222,4.7788,4.7595,4.9005,4.983,4.945,5.4433,5.9038,6.2533,7.0259,7.6464,8.0406,8.3783,8.6246,8.7755,8.7651,8.8593,9.0701,9.0194,9.0311,9.1052,9.1052,9.1325,9.1794,9.1286,9.1872,9.3199,9.2223,9.2136,9.2632,9.1618,9.0735,8.9952,8.8977,8.7085,8.4715,8.265,8.0542,0.0,7.7038,7.6064,7.5402,7.5051,7.283,6.9637,6.5933,6.2893,0.0,6.0049,6.0514,6.1644,6.3709,6.7413,7.1661,7.5869,7.9065,8.1948,8.4715,8.8066,9.1031,9.2859,9.4807,9.6561,9.7964,9.8353,9.8431,9.8275,9.812,9.734,9.5512,9.5512,9.5863,9.6366,9.5512,9.4967,9.5123,9.4265,9.3369,9.2664,9.2469,9.2232,9.1881,9.1842,9.1813,9.1707,9.0811,9.0251,8.9964,8.86,8.7859,8.7667,8.681,8.6384,8.6377,8.6286,8.6228,8.6129,8.4604,8.373,8.3175,8.1784,8.0964,8.0506,8.0506,8.0506,8.043,0.0,0.0,0.0,0.0,0.0,0.0,0.0,0.0,0.0,0.0,4.4467,4.5412,4.5268,4.5823,4.622,4.6187,5.1868,5.7141,6.1073,6.9772,7.6874,8.1641,8.4821,8.7557,8.9885,8.9587,9.0023,9.1311,9.0687,9.0376,9.0376,9.0376,9.0921,9.1936,9.1077,9.1858,9.3693,9.2248,9.2319,9.3322,9.1839,9.0915,9.0131,8.7752,8.4652,8.1463,8.0198,7.7893,7.5048,7.244,7.1544,7.1544,7.1544,7.018,6.8115,6.5777,6.3711,6.2387,6.3244,6.4608,6.6476,6.9398,7.4466,7.9376,8.1789,8.5494,8.9001,9.095,9.3521,9.6019,9.7886,9.8938,9.9678,10.0185,9.999,9.9444,9.8548,9.7496,9.6019,9.3954,9.435,9.5133,9.5991,9.5594,9.5512,9.6136,9.5084,9.4265,9.4032,9.321,9.2742,9.2742,9.2544,9.2388,9.2388,9.1531,9.1011,9.0805,8.9055,8.8123,8.7885,8.7026,8.6638,8.6632,8.6529,8.6492,8.6435,8.5294,8.4419,8.37,8.2394,8.1487,8.083,8.0664,8.056,8.0506,0.0,0.0,0.0,0.0,0.0,0.0,0.0,0.0,0.0,0.0,0.0,0.0,0.0,4.6229,4.6279,4.6228,5.0269,5.4998,6.0093,6.7762,7.4752,8.0667,8.5055,8.8187,8.9945,9.0804,9.1233,9.1311,9.1272,9.1272,9.1272,9.1272,9.2131,9.3693,9.2795,9.2951,9.3732,9.2834,9.2482,9.2482,9.1624,9.0245,8.8232,8.4019,8.0218,7.7183,7.7133,7.3334,6.7917,6.5307,6.4413,6.4413,6.4413,6.5501,6.6437,6.4725,6.2387,6.0555,6.1451,6.414,6.8073,7.3999,7.9376,8.4325,8.8534,9.2158,9.5356,9.7964,9.925,9.9912,9.999,10.0691,10.0497,9.8003,9.8314,9.8548,9.7652,9.6058,9.4655,9.3798,9.2263,9.1616,9.2477,9.4751,9.6175,9.6214,9.6136,9.5746,9.4928,9.4109,9.3642,9.3642,9.2859,9.2388,9.2388,9.1531,9.1102,9.1059,8.9306,8.8484,8.8442,8.7585,8.7195,8.7149,8.6903,8.6782,8.6684,8.5557,8.493,8.4486,8.2824,8.1994,8.1699,8.1102,8.0703,8.0506,0.0,0.0,0.0,0.0,0.0,0.0,0.0,0.0,0.0,0.0,0.0,0.0,0.0,0.0,0.0,0.0,4.9677,5.3306,5.6793,6.4246,7.0725,7.5648,8.1117,8.5065,8.7368,8.8266,8.9006,8.9555,8.9006,8.9281,9.0413,8.9867,9.1077,9.3732,9.2326,9.2795,9.4512,9.2561,9.2365,9.3107,8.9982,8.8332,8.7338,8.3005,7.7411,7.1532,0.0,6.5583,6.2498,5.9917,5.9055,5.9365,6.1066,6.0828,5.9817,5.9271,6.1257,6.414,6.6169,7.0842,7.6373,8.1286,8.6433,9.107,9.4184,9.6678,9.8587,9.9483,9.7613,9.6019,9.6561,9.6448,9.5987,9.5115,9.7142,9.8318,9.6902,9.671,9.5114,9.0821,9.1805,9.1811,8.9276,9.182,9.414,9.5313,9.5913,9.5824,9.4967,9.4655,9.4237,9.3715,9.2854,9.2386,9.2386,9.1529,9.1087,9.1063,8.9313,8.8183,8.7637,8.7326,8.7209,8.7205,8.7117,8.7055,8.7001,8.6462,8.5508,8.4368,8.3604,8.2579,8.1458,8.1249,8.1105,8.102,0.0,0.0,0.0,0.0,0.0,0.0,0.0,0.0,0.0,0.0,0.0,0.0,0.0,0.0,0.0,0.0,0.0,5.1279,5.4186,5.9877,6.5379,7.0346,7.4525,7.796,8.0537,8.0849,8.1552,8.2723,8.2762,8.4011,8.6314,8.6666,8.8501,9.1466,9.0062,9.0687,9.2639,9.0062,8.9242,8.9358,8.5337,8.2988,8.1377,7.6379,7.0829,0.0,6.0789,5.8134,5.6295,5.4053,5.3891,5.4903,5.6256,5.6794,5.7141,5.8041,6.2327,6.7709,7.1853,7.7311,8.3,8.799,9.2162,9.5742,9.8301,9.9506,9.9934,9.9307,9.6267,9.3461,9.2759,9.1951,9.1415,9.1427,9.3503,9.5192,9.5332,9.4789,9.3309,9.0345,9.0859,9.0594,8.8448,8.9952,9.2003,9.437,9.5599,9.5976,9.5433,9.5394,9.517,9.4646,9.3476,9.2849,9.2849,9.1406,9.0378,8.9719,8.8579,8.7754,8.7209,8.7209,8.7209,8.7209,8.7209,8.7209,8.7202,8.7019,8.6237,8.5107,8.4339,8.3292,8.2174,8.1651,8.1447,8.1436,0.0,0.0,0.0,0.0,0.0,0.0,0.0,0.0,0.0,0.0,0.0,0.0,0.0,0.0,0.0,0.0,0.0,0.0,5.2235,5.4927,5.8987,6.4804,6.6053,6.7771,7.0307,6.9645,7.0076,7.1714,7.3354,7.5891,7.9248,8.1669,8.4167,8.6586,8.569,8.6275,8.7759,8.5181,8.3151,8.1394,7.7921,7.4525,7.0972,6.5116,6.1213,5.8362,5.4226,5.1609,4.9847,4.8226,4.9502,5.1609,5.0869,5.4096,5.8724,6.1341,6.5868,7.141,7.8178,8.3215,8.7975,9.3744,9.6472,9.8336,10.0681,10.0518,9.9271,9.7471,9.4894,9.197,0.0,8.7393,8.6972,8.7147,8.81,8.9988,9.3426,9.1125,8.9918,0.0,0.0,0.0,0.0,0.0,9.0218,9.3507,9.5296,9.6232,9.631,9.6352,9.6355,9.6318,9.4599,9.3702,9.3702,9.1166,8.9044,8.7301,8.7228,8.7212,8.7212,8.7209,8.7209,8.7212,8.7212,8.7212,8.7215,8.7176,8.6974,8.654,8.4913,8.4088,8.3635,8.2228,8.1682,8.1616,0.0,0.0,0.0,0.0,0.0,0.0,0.0,0.0,0.0,0.0,0.0,0.0,0.0,0.0,0.0,0.0,0.0,0.0,4.8797,5.1921,5.4967,5.7817,6.1798,6.457,6.5898,6.6952,6.7694,6.8124,6.9215,7.0504,7.2026,7.269,7.4056,7.5891,7.5032,7.5577,7.71,7.5148,7.4055,7.3352,6.9918,6.7615,6.5898,6.2384,5.9065,5.602,5.4303,5.2116,5.0122,5.0344,5.2986,5.6373,5.7427,6.043,6.429,6.8154,7.3848,7.9856,8.4188,8.9884,9.5187,9.7372,9.8734,9.9551,9.9539,9.7352,9.4658,9.2315,8.7242,8.2367,7.9557,8.0422,8.2423,8.5019,8.885,9.2722,9.6173,9.5941,0.0,9.2743,0.0,9.2553,9.1109,9.189,9.3096,9.4614,9.5127,9.5611,9.6274,9.6937,9.6987,9.6383,9.4666,9.3768,9.3768,9.1213,8.9016,8.7292,8.7262,8.7289,8.7286,8.7222,8.7225,8.7289,8.7289,8.7262,8.72,8.6579,8.59,8.5208,8.4113,8.3273,8.2585,8.2191,8.1658,8.1184,0.0,0.0,0.0,0.0,0.0,0.0,0.0,0.0,0.0,0.0,0.0,0.0,0.0,0.0,0.0,0.0,0.0,0.0,0.0,4.8838,5.0673,5.2352,5.4537,5.6255,5.7466,5.77,5.8363,5.9456,6.0744,6.2345,6.4337,6.5468,6.6756,6.8044,6.7537,6.8083,6.9255,6.7496,6.6325,0.0,0.0,6.0316,5.8988,5.6723,5.4927,5.3522,5.3014,5.3131,5.3833,5.6249,5.8428,6.0567,6.345,6.6961,7.0941,7.5625,8.1089,8.6435,9.0265,9.5222,9.9358,9.9473,9.959,9.8922,9.6175,9.3403,9.0084,8.5278,8.0911,7.6932,7.3616,7.5382,7.8396,8.1487,8.5982,9.0713,9.533,9.5371,9.4708,0.0,9.4395,0.0,9.3068,9.3458,9.4317,9.5567,9.5974,9.6388,9.6897,9.7753,9.7839,9.6993,9.5276,9.3636,9.2153,9.0257,8.8645,8.7358,8.7292,8.7317,8.7317,8.7262,8.7262,8.7317,8.7317,8.7286,8.726,8.6756,8.6093,8.5237,8.4415,8.3557,8.2738,8.2348,8.1646,8.098,0.0,0.0,0.0,0.0,0.0,0.0,0.0,0.0,0.0,0.0,0.0,0.0,0.0,0.0,0.0,0.0,0.0,0.0,0.0,0.0,4.6884,4.8252,4.7002,4.6964,4.8447,4.7042,4.7393,4.9616,5.1219,5.3523,5.6489,5.8869,6.0392,6.1134,6.1134,6.1603,6.2307,6.0665,5.9103,5.7542,5.5201,5.3367,5.1883,0.0,5.0476,5.1258,5.1609,5.4225,5.8247,6.3283,6.4766,6.5349,6.9868,7.4156,7.8489,8.3566,8.786,9.1804,9.5836,9.9236,10.1502,10.0681,9.9548,9.7318,9.2184,8.9175,8.5311,7.793,7.5432,7.3403,6.9465,7.1509,7.495,7.837,8.2323,8.725,9.3732,9.3224,9.3302,9.6384,9.5293,9.463,9.5371,9.4747,9.4981,9.6619,9.7558,9.7948,9.7714,9.8533,9.8494,9.7401,9.5645,9.3226,9.0025,8.907,8.8201,8.7382,8.7358,8.7307,8.7307,8.7302,8.7302,8.7307,8.7307,8.7307,8.7312,8.7195,8.6648,8.5751,8.4934,8.4113,8.3254,8.2357,8.1577,8.0911,0.0,0.0,0.0,0.0,0.0,0.0,0.0,0.0,0.0,0.0,4.4031,4.333,0.0,0.0,0.0,0.0,0.0,0.0,0.0,0.0,0.0,4.5674,4.6066,4.6457,4.673,4.6457,4.6535,4.6963,4.7978,4.8797,4.9383,5.0516,5.1102,5.1258,5.1258,5.1765,5.2506,5.1453,5.0867,5.0477,4.9383,4.8758,4.8524,4.8876,0.0,0.0,5.2779,5.4498,5.7036,6.5625,7.0348,7.3588,7.9247,8.3539,8.7326,9.1778,9.4628,9.6814,9.9041,10.111,10.2398,10.1502,9.9041,9.5682,9.123,8.5568,0.0,7.405,7.0461,6.7728,6.5582,6.7965,7.2768,8.0376,8.4009,8.9008,9.7909,9.7675,9.7089,0.0,9.7636,9.7089,9.7245,9.7128,9.744,9.8453,9.9353,9.9236,9.7792,9.8533,9.7948,9.5606,9.3851,9.2016,9.0025,8.9122,8.8261,8.7401,8.7382,8.7371,8.7371,8.7312,8.7314,8.7371,8.7371,8.7382,8.7319,8.6616,8.5797,8.4938,8.4042,8.322,8.2401,8.1544,8.1114,8.088,0.0,0.0,0.0,0.0,0.0,0.0,0.0,4.4766,4.5774,4.6184,4.5907,4.4961,4.3176,4.2644,4.2579,0.0,0.0,0.0,0.0,0.0,0.0,0.0,4.5168,4.5636,4.5636,4.6066,4.6301,4.6301,0.0,4.6924,4.6924,4.7315,4.751,4.751,4.751,4.7744,4.8095,4.7666,4.751,4.7471,4.7081,4.7432,4.8251,0.0,0.0,0.0,0.0,5.5708,5.8832,6.4766,7.113,7.7648,8.3621,8.8227,9.2014,9.5449,9.7675,9.9431,10.111,10.2515,10.2906,10.0681,9.7597,9.3107,8.5652,0.0,0.0,6.7381,6.5351,6.4298,6.258,6.6172,7.105,7.6125,7.9834,8.526,9.4356,9.4512,9.502,9.8571,9.8221,9.7714,9.7714,9.7714,9.8065,9.8922,9.9822,9.9744,9.8455,9.7907,9.6855,9.5137,9.3421,9.1703,9.0025,8.9125,8.8266,8.7406,8.7397,8.7393,8.7393,8.7382,8.7384,8.7393,8.7393,8.7399,8.7367,8.6937,8.6275,8.5377,8.4519,8.366,8.2801,8.1981,8.1396,8.089,0.0,0.0,0.0,0.0,0.0,0.0,0.0,4.6205,4.7409,4.7969,4.7575,4.6428,4.4389,4.3268,4.2499,0.0,0.0,0.0,0.0,0.0,0.0,0.0,0.0,0.0,4.5284,0.0,0.0,4.6301,4.6301,0.0,0.0,0.0,0.0,0.0,4.6301,4.6301,4.6301,4.6301,4.6301,0.0,0.0,4.7471,0.0,0.0,0.0,0.0,0.0,5.6294,5.9808,6.3166,6.9607,7.7179,8.2877,8.885,9.4239,9.6503,9.8768,10.0915,10.2398,10.3296,10.2984,9.982,9.5955,9.0452,8.0888,7.5462,0.0,6.2306,6.1486,6.1876,6.0861,6.4531,6.8747,7.1792,7.5424,8.1007,9.0023,9.0843,9.2717,9.8571,9.8338,0.0,9.7948,9.7792,9.8065,9.8922,9.947,9.9627,9.9312,9.7284,9.5801,9.5137,9.307,9.1313,9.0025,8.8969,8.8069,8.7406,8.7406,8.7406,8.7406,8.7406,8.7406,8.7406,8.7406,8.7406,8.7406,8.7406,8.6781,8.5768,8.5064,8.4167,8.3152,8.2332,8.1708,8.1122,0.0,0.0,0.0,0.0,0.0,0.0,0.0,4.5698,4.7176,4.9567,4.7808,4.6234,4.599,4.4476,4.2887,0.0,0.0,0.0,0.0,0.0,0.0,0.0,0.0,0.0,0.0,0.0,0.0,4.6301,4.6301,0.0,0.0,0.0,0.0,0.0,0.0,4.6301,4.6301,4.6301,0.0,0.0,0.0,0.0,0.0,0.0,0.0,0.0,0.0,5.4771,5.6646,6.2385,6.6405,6.984,7.4369,8.4089,9.4005,9.502,0.0,0.0,10.2515,10.2906,10.2281,9.9664,9.463,8.8463,8.1239,0.0,6.82,6.2695,6.0431,5.9884,6.1328,6.2031,6.4764,7.2025,7.4798,7.9601,8.9867,9.1858,9.4239,9.9548,0.0,0.0,9.8805,9.8143,9.8065,9.8922,9.8338,9.8572,10.0095,9.7011,9.5176,9.5098,9.1938,9.0142,8.9986,8.8344,8.7484,8.7406,8.7406,8.7406,8.7406,8.7406,8.7406,8.7406,8.7406,8.7406,8.7406,8.7406,8.643,8.4907,8.4829,8.3814,8.2293,8.1435,8.1552,8.1942,0.0,0.0,0.0,0.0,0.0,0.0,4.4994,4.6166,4.7772,4.9841,4.9176,4.8352,4.7824,4.6222,4.4062,4.1359,0.0,0.0,0.0,0.0,0.0,0.0,0.0,0.0,0.0,0.0,4.5753,4.6301,4.6301,0.0,0.0,0.0,0.0,0.0,0.0,4.6301,4.6301,4.6301,0.0,0.0,0.0,0.0,0.0,0.0,0.0,0.0,0.0,0.0,5.7115,5.9026,6.2384,6.5858,6.6014,7.3158,8.2643,8.8696,9.3146,9.6857,10.029,10.2008,10.2086,9.8963,9.2873,8.5963,7.96,0.0,6.5157,6.0977,5.9181,5.8675,5.9923,6.0548,6.2462,6.7107,6.8436,7.195,8.0733,8.2684,8.6314,9.463,9.5449,9.6308,9.8766,9.8688,9.8846,9.9705,9.947,9.9353,9.9509,9.6191,9.4552,9.5098,9.2758,9.1001,9.0025,8.932,8.8422,8.7406,8.7406,8.7406,8.7406,8.7406,8.7406,8.7406,8.7406,8.7406,8.7406,8.7406,8.6976,8.6313,8.5807,8.487,8.3697,8.284,8.2411,8.2137,0.0,0.0,0.0,0.0,0.0,4.5325,4.4699,4.6299,4.8027,4.9177,4.9334,4.9101,4.8472,4.6634,4.4476,4.2094,4.1384,0.0,0.0,0.0,0.0,0.0,0.0,0.0,0.0,0.0,4.5558,4.5909,4.6183,4.6301,0.0,0.0,4.6301,4.6301,0.0,0.0,0.0,0.0,0.0,0.0,0.0,0.0,0.0,0.0,0.0,0.0,0.0,0.0,0.0,0.0,0.0,6.2073,6.0199,6.4179,7.14,8.1122,8.7486,9.2404,9.7089,9.9978,10.0915,9.7714,9.1272,8.4128,0.0,0.0,6.3322,5.9806,5.8402,5.805,5.8947,5.9807,6.1174,6.3517,6.4532,6.7499,7.4448,7.6828,8.1044,8.9594,9.1389,9.3261,9.6738,9.8494,9.9627,10.029,9.9822,9.9392,9.9,9.5449,9.381,9.4708,9.3029,9.1469,9.0025,8.9751,8.8852,8.7406,8.7406,8.7406,8.7406,8.7406,8.7406,8.7406,8.7406,8.7406,8.7406,8.7406,8.725,8.6937,8.6353,8.5416,8.4323,8.3738,8.2996,8.2176,0.0,0.0,0.0,0.0,0.0,0.0,4.3724,4.5948,4.7597,4.7537,4.7538,4.7539,4.7494,4.5265,4.3703,4.3667,4.2087,0.0,0.0,0.0,0.0,0.0,0.0,0.0,0.0,0.0,4.587,4.5011,4.587,4.6301,4.6301,4.6301,4.6301,4.6301,0.0,0.0,0.0,0.0,0.0,0.0,0.0,0.0,0.0,0.0,0.0,0.0,0.0,0.0,0.0,0.0,0.0,0.0,0.0,5.9065,6.2579,7.2886,8.2022,8.9477,9.2912,9.6384,9.8414,9.5762,8.9945,8.3229,7.7181,6.9841,6.3322,5.9806,5.8402,5.805,5.8947,5.9807,6.0978,6.2735,6.5118,6.8592,7.3861,7.7531,8.1278,8.5651,8.6937,8.8811,9.2248,9.7245,10.029,10.029,9.869,9.8104,9.8961,9.4864,9.2912,9.381,9.2209,9.0882,9.0025,8.9125,8.8266,8.7406,8.7406,8.7406,8.7406,8.7406,8.7406,8.7406,8.7406,8.7406,8.7406,8.7406,8.6898,8.6119,8.608,8.5026,8.3504,8.3504,8.2996,8.2176,0.0,0.0,0.0,0.0,0.0,0.0,0.0,4.4388,4.5366,4.6546,4.6157,4.6002,4.6593,4.4915,4.3704,4.3703,4.2108,0.0,0.0,0.0,0.0,0.0,0.0,0.0,0.0,0.0,4.4966,4.587,4.6767,4.6885,4.6301,4.6924,4.6885,4.6301,4.6301,4.6301,0.0,0.0,0.0,0.0,0.0,0.0,5.1882,0.0,0.0,0.0,0.0,0.0,0.0,0.0,0.0,0.0,0.0,0.0,0.0,6.3985,7.1792,7.9873,8.3933,8.6705,8.7798,8.5221,8.073,7.5812,7.1519,6.6366,6.1681,5.8792,5.7972,5.7894,5.8168,5.9417,6.1369,6.4297,6.5936,6.8007,7.1441,7.5891,8.0381,8.4714,9.1192,9.6191,9.8418,9.9666,10.029,10.029,9.9236,9.818,9.7282,9.4786,9.3497,9.381,9.2717,9.143,9.0025,8.9712,8.8852,8.7406,8.7406,8.7406,8.7406,8.7406,8.7406,8.7406,8.7406,8.7406,8.7406,8.7406,8.6898,8.608,8.608,8.5026,8.3504,8.3504,8.2606,8.1356,0.0,0.0,0.0,0.0,0.0,0.0,0.0,4.3295,4.3958,4.4738,4.4347,4.4464,4.5675,4.3958,4.3138,4.4114,4.2612,0.0,0.0,0.0,0.0,0.0,0.0,0.0,0.0,4.3865,4.5041,4.6807,4.7626,4.7938,4.7744,4.829,4.7938,4.6807,4.6807,4.6612,0.0,0.0,0.0,0.0,0.0,0.0,5.196,0.0,0.0,0.0,0.0,0.0,0.0,0.0,0.0,0.0,0.0,0.0,0.0,0.0,6.4297,7.0426,7.6086,7.9562,8.1122,7.9209,7.5499,0.0,6.8318,6.4022,6.0157,5.8207,5.7817,5.7817,5.7817,5.8948,6.0744,6.3243,6.4609,6.6405,6.9292,7.4447,7.999,8.5612,9.2365,9.7206,9.8926,10.0095,10.0485,9.9861,9.9002,9.7753,9.5996,9.4278,9.3302,9.3302,9.2795,9.1703,9.0025,8.9986,8.9125,8.7406,8.7406,8.7406,8.7406,8.7406,8.7406,8.7406,8.7406,8.7406,0.0,8.7406,8.6898,8.608,8.608,8.4831,8.3035,8.3035,8.2176,8.0968,0.0,0.0,0.0,0.0,0.0,0.0,0.0,4.2475,4.3178,4.2473,4.2356,4.2903,4.4542,4.2554,4.2087,4.4584,0.0,0.0,0.0,0.0,0.0,0.0,0.0,0.0,4.2499,4.4061,4.5783,4.7587,4.8408,4.9227,5.0007,5.0085,4.9226,4.7587,4.7587,4.7158,0.0,0.0,0.0,0.0,0.0,0.0,0.0,0.0,0.0,0.0,0.0,0.0,0.0,0.0,0.0,0.0,0.0,0.0,0.0,0.0,0.0,0.0,0.0,7.4058,7.6986,7.6047,7.2885,6.9294,6.6757,6.2501,0.0,5.7894,5.7778,5.7817,5.7894,5.8558,5.9455,6.0588,6.211,6.4414,6.7888,7.3822,8.0615,8.8071,9.1389,9.3655,9.5137,9.9004,10.0681,9.9117,9.8143,9.6855,9.5098,9.3421,9.2484,9.2484,9.2445,9.1625,9.0025,8.9947,8.9047,8.7406,8.7406,8.7406,8.7406,8.7406,8.7406,8.7406,8.7406,8.7406,8.7406,8.7328,8.6781,8.6002,8.5885,8.4362,8.2292,8.2175,8.1591,8.0771,0.0,0.0,0.0,0.0,0.0,0.0,0.0,0.0,0.0,0.0,4.181,4.1577,4.1967,4.1473,4.1636,0.0,0.0,0.0,0.0,0.0,0.0,0.0,0.0,0.0,4.3386,4.3815,4.519,4.7587,4.8408,4.8915,4.9111,4.9773,4.9226,4.7587,4.7587,4.7509,0.0,0.0,0.0,0.0,0.0,0.0,0.0,0.0,0.0,0.0,5.2781,5.3562,0.0,0.0,0.0,0.0,0.0,0.0,0.0,0.0,5.7777,5.8793,6.0628,0.0,6.5271,6.371,6.3086,6.2306,0.0,5.9495,5.8674,5.719,5.7387,5.8011,5.8674,5.8947,6.0274,6.3789,6.4726,6.6405,7.0504,7.9092,8.6627,9.1077,9.5684,9.8104,9.7167,9.9197,10.0095,9.9078,9.7556,9.5957,9.42,9.3068,9.2484,9.2484,9.1897,9.1077,9.0025,8.932,8.8461,8.7406,8.7406,8.7406,8.7406,8.7406,8.7406,8.7406,8.7406,8.7406,8.7367,8.6666,8.5885,8.4985,8.3699,8.284,8.2136,8.081,8.0185,7.9873,0.0,0.0,0.0,0.0,0.0,0.0,0.0,0.0,0.0,0.0,0.0,4.1109,4.1109,4.1119,0.0,0.0,0.0,0.0,0.0,0.0,0.0,0.0,0.0,4.2296,4.3655,4.4045,4.5734,4.8757,4.9188,4.9813,5.0595,5.1063,5.0165,4.8134,4.7353,4.7236,0.0,0.0,0.0,0.0,5.1062,0.0,0.0,0.0,0.0,0.0,5.1921,5.2664,0.0,5.442,5.5279,5.6059,0.0,0.0,0.0,0.0,5.6918,5.7231,5.7231,5.9143,6.086,5.9924,5.9768,5.9573,5.8597,5.8166,5.7698,5.68,5.6957,5.7387,5.7854,5.8244,5.9651,6.3241,6.4804,6.8083,7.5149,8.1942,8.8226,9.3654,9.6777,9.8924,9.9939,10.0212,9.9783,9.8494,9.6777,9.5059,9.3302,9.2756,9.2484,9.2484,9.1311,9.0492,8.9986,8.9125,8.8266,8.7406,8.7406,8.7406,8.7406,8.7406,8.7406,8.7406,8.7406,8.7406,8.7328,8.6471,8.5573,8.4673,8.3347,8.2371,8.1591,8.0654,8.0029,7.9639,0.0,0.0,0.0,0.0,0.0,0.0,0.0,0.0,0.0,0.0,0.0,0.0,0.0,0.0,0.0,0.0,0.0,0.0,0.0,0.0,0.0,0.0,4.2003,4.2806,4.3892,4.4554,4.6477,4.9733,5.0124,5.1062,5.2508,5.2781,5.1415,4.8759,4.7432,4.7237,0.0,0.0,0.0,0.0,5.1101,0.0,0.0,0.0,0.0,0.0,0.0,0.0,0.0,5.3561,5.4459,5.5397,5.602,0.0,0.0,0.0,0.0,0.0,5.6878,5.8636,6.0315,5.9924,5.9378,5.8869,5.8752,5.762,5.6605,5.6605,5.6605,5.6761,5.7269,5.7933,5.9378,6.2383,6.5507,7.0855,8.0263,8.4245,8.8616,9.5213,9.6814,9.8533,10.15,10.0798,9.9392,9.7636,9.5879,9.42,9.2601,9.2367,9.2326,9.2326,9.0688,8.9791,8.9791,8.893,8.8149,8.7406,8.7406,8.7406,8.7406,8.7406,8.7406,8.7406,8.725,8.7211,8.7133,8.6119,8.526,8.4517,8.3504,8.2254,8.0968,8.0694,8.0146,7.9483,0.0,0.0,0.0,0.0,0.0,0.0,0.0,0.0,0.0,0.0,0.0,0.0,0.0,0.0,0.0,0.0,0.0,0.0,0.0,0.0,0.0,4.3239,4.2668,4.3135,4.4762,4.4918,4.5977,4.7977,5.0125,5.1336,5.1648,5.3093,5.1999,4.8837,4.9305,4.9188,4.8681,0.0,0.0,0.0,5.1336,0.0,0.0,0.0,0.0,0.0,0.0,0.0,0.0,5.2859,5.3952,5.5202,5.4576,0.0,0.0,0.0,0.0,0.0,5.8127,5.9534,5.9885,5.7738,5.7582,5.7816,5.7151,5.6761,5.6605,5.6605,5.6605,5.7464,6.0392,6.1016,6.2656,6.7459,7.2847,7.8272,8.3463,8.8967,9.2871,9.4044,9.8729,10.0603,9.7673,9.8493,9.8493,9.6736,9.4981,9.3576,9.2562,9.1858,9.1467,9.1467,8.9789,8.8891,8.8891,8.803,8.7523,8.7406,8.7406,8.7406,8.7406,8.7406,8.7406,8.7367,8.6627,8.6314,8.6158,8.4558,8.3816,8.3543,8.1981,8.1241,8.0811,7.9328,7.8703,7.8508,0.0,0.0,0.0,0.0,0.0,0.0,0.0,0.0,0.0,0.0,0.0,0.0,0.0,0.0,0.0,0.0,0.0,0.0,0.0,0.0,4.4524,4.4989,4.4218,4.413,4.4949,4.5868,4.7422,4.9656,5.0828,5.2117,5.3483,5.2897,5.1491,4.95,4.9422,4.9189,4.8876,4.9734,0.0,0.0,0.0,0.0,0.0,0.0,0.0,0.0,0.0,0.0,0.0,0.0,5.3562,5.4537,5.4147,0.0,0.0,0.0,0.0,0.0,5.6723,5.8011,5.8948,5.8714,5.93,5.9572,5.8244,5.7932,5.7932,5.7932,5.7932,5.8869,6.1836,6.3516,6.6756,7.3822,7.9248,8.3582,8.651,8.9711,9.2795,9.5567,9.7518,9.8768,9.9119,9.8221,9.7243,9.6463,9.4356,9.2717,9.1897,9.1507,9.1077,9.0609,8.9359,8.8696,8.8696,8.7835,8.7406,8.7406,8.6937,8.6937,8.7406,8.7406,8.7133,8.6666,8.6275,8.5846,8.5299,8.4011,8.323,8.2723,8.1474,8.1007,8.085,7.9561,7.9405,7.9562,0.0,0.0,0.0,0.0,0.0,0.0,0.0,0.0,0.0,0.0,0.0,0.0,0.0,0.0,0.0,0.0,0.0,0.0,0.0,0.0,4.5038,4.6094,4.5526,4.5383,4.5781,4.7294,4.9194,5.1388,5.2238,5.3639,5.5553,5.3366,5.1648,5.0398,4.993,4.9501,4.9189,5.0242,5.0983,0.0,0.0,0.0,0.0,0.0,0.0,0.0,0.0,0.0,0.0,0.0,0.0,0.0,0.0,0.0,0.0,5.4459,5.4615,5.5163,5.5982,5.6997,5.8168,5.9729,6.0432,6.0821,6.0899,6.0431,6.0314,6.1289,6.1368,6.1953,6.4375,6.7537,7.226,7.9678,8.4675,8.8266,9.0218,9.1428,9.3654,9.7792,9.7128,9.744,10.0292,9.8065,9.6228,9.5838,9.3576,9.1936,9.1311,9.0921,9.0374,8.9712,8.8852,8.8383,8.8383,8.7523,8.7211,8.7406,8.6705,8.6744,8.7406,8.7172,8.6744,8.608,8.5651,8.5104,8.4439,8.3582,8.2879,8.2214,8.1552,8.1161,8.089,8.0029,8.0107,8.042,0.0,0.0,0.0,0.0,0.0,0.0,0.0,0.0,0.0,0.0,0.0,0.0,0.0,0.0,0.0,0.0,0.0,0.0,0.0,0.0,4.4321,4.5952,4.5996,4.6763,4.8405,4.9412,5.039,5.1406,5.4631,5.6332,5.6488,5.5474,5.3679,5.1336,5.2078,5.1531,5.0124,5.1804,5.2078,5.1453,0.0,0.0,0.0,0.0,0.0,0.0,0.0,0.0,0.0,0.0,0.0,0.0,0.0,0.0,5.4225,5.5006,5.4693,5.4771,5.7971,5.8324,5.8011,5.8947,5.8636,5.9495,6.5001,6.4414,6.3867,6.7849,6.8005,6.8004,6.98,7.4875,8.0029,8.3814,8.8696,9.2912,9.5488,9.7282,9.8805,9.9978,10.0017,9.9392,9.8104,9.7011,9.5721,9.4122,9.2365,9.135,9.1311,8.9789,8.8852,8.8813,8.7952,8.7484,8.7484,8.6627,8.6588,8.7406,8.7328,8.7328,8.7367,8.6549,8.6158,8.6002,8.4401,8.366,8.3543,8.2723,8.2331,8.2292,8.2214,8.1708,8.089,8.0029,7.9756,7.9756,0.0,0.0,0.0,0.0,0.0,0.0,0.0,0.0,0.0,0.0,0.0,0.0,0.0,0.0,0.0,0.0,0.0,0.0,0.0,4.4028,4.5092,4.6785,4.6896,4.7462,4.8595,5.0072,5.2055,5.4515,5.6363,5.6717,5.5624,5.4257,5.2808,5.1323,5.1151,5.071,5.0163,5.1375,5.1687,5.1492,5.2352,0.0,0.0,0.0,0.0,0.0,0.0,0.0,0.0,0.0,5.1804,5.2664,5.2468,5.3483,5.4655,5.3913,5.3834,5.4263,5.559,5.684,5.8128,5.9573,6.008,6.1252,6.5116,6.6092,6.7264,7.105,7.1948,7.2768,7.5071,7.9522,8.3658,8.6039,9.0765,9.4473,9.5449,9.7558,9.8922,9.8729,9.8182,9.7831,9.7714,9.5918,9.4511,9.3849,9.2248,9.0843,8.975,8.9047,8.8461,8.7913,8.7562,8.7406,8.7406,8.6549,8.6275,8.6588,8.6588,8.6588,8.6588,8.6236,8.5495,8.4441,8.3777,8.323,8.2723,8.245,8.1981,8.1474,8.1474,8.0966,8.0146,7.9834,8.0029,8.0341,0.0,0.0,0.0,0.0,0.0,0.0,0.0,0.0,0.0,0.0,0.0,0.0,0.0,0.0,0.0,0.0,0.0,0.0,4.3103,4.3932,4.504,4.6516,4.7097,4.8015,4.9376,5.0873,5.2927,5.5567,5.6992,5.6805,5.5089,5.3662,5.2693,5.207,5.1243,5.0917,5.0983,5.1843,5.1882,5.1492,5.2352,5.2196,0.0,0.0,0.0,0.0,0.0,0.0,0.0,0.0,5.1101,5.196,5.2468,5.3678,5.4694,5.3796,5.3756,5.399,5.399,5.5279,5.7035,5.8753,6.0861,6.3477,6.7145,6.8902,7.1127,7.5929,7.6944,7.7492,7.9287,8.245,8.5454,8.7484,9.1897,9.5293,9.584,9.7206,9.7946,9.7362,9.6777,9.6542,9.6855,9.5254,9.3966,9.3419,9.1858,9.0257,8.8774,8.8422,8.803,8.7406,8.7406,8.7289,8.6976,8.6392,8.5963,8.569,8.569,8.569,8.569,8.5416,8.4636,8.3504,8.323,8.2801,8.2292,8.2292,8.1942,8.1396,8.1396,8.0888,8.0107,8.0107,8.0302,8.042,0.0,0.0,0.0,0.0,0.0,0.0,0.0,0.0,0.0,0.0,0.0,0.0,0.0,0.0,0.0,0.0,0.0,0.0,4.2158,4.3005,4.3896,4.4753,4.6421,4.8519,5.1083,5.1979,5.2863,5.3791,5.6391,5.6765,5.5048,5.4264,5.3854,5.3828,5.2969,5.2613,5.2743,5.36,5.2975,5.1492,5.2352,5.2196,0.0,0.0,0.0,0.0,0.0,0.0,0.0,0.0,5.0827,5.071,5.4186,5.4693,5.4186,5.5045,5.4693,5.4029,5.399,5.4029,5.4458,5.6215,6.051,6.5937,7.1947,7.3352,7.5538,8.3229,8.3502,8.2331,8.2331,8.3697,8.5688,8.8266,9.2287,9.5684,9.7401,9.6933,9.6384,9.6384,9.6384,9.6035,9.5176,9.5098,9.4356,9.2601,9.0923,8.9634,8.8735,8.7874,8.7406,8.7406,8.7406,8.6976,8.608,8.608,8.5651,8.479,8.479,8.479,8.4751,8.3894,8.3465,8.3426,8.2645,8.2292,8.2292,8.2292,8.2292,8.2292,8.2292,8.1747,8.1007,8.0968,8.042,7.9717,0.0,0.0,0.0,0.0,0.0,0.0,0.0,0.0,0.0,0.0,0.0,0.0,0.0,0.0,0.0,0.0,0.0,0.0,4.2194,4.3005,4.3896,4.4753,4.7007,4.8017,4.7553,4.9573,5.1964,5.4644,5.4798,5.431,5.3178,5.2376,5.1985,5.1974,5.179,5.1719,5.1754,5.1425,5.1296,5.1492,5.2352,5.2196,5.1531,0.0,0.0,0.0,0.0,0.0,0.0,0.0,0.0,0.0,5.2937,5.4576,5.5629,5.4654,5.4654,5.4655,5.3406,5.442,5.6371,5.8714,6.3633,6.9295,7.4759,7.6438,7.8741,8.5298,8.6235,8.5883,8.5883,8.6781,8.7798,8.8579,9.178,9.4161,9.4044,9.541,9.5723,9.3888,9.42,9.4473,9.42,9.3615,9.2834,9.1741,9.0649,8.9359,8.7874,8.7523,8.7133,8.651,8.651,8.608,8.5181,8.4597,8.4128,8.3894,8.3308,8.3034,8.3034,8.2762,8.1981,8.0849,8.12,8.1396,8.1435,8.2059,8.2292,8.2253,8.163,8.0849,8.0029,7.9406,7.9405,7.96,0.0,0.0,0.0,0.0,0.0,0.0,0.0,0.0,0.0,0.0,0.0,0.0,0.0,0.0,0.0,0.0,0.0,0.0,0.0,4.3005,4.3896,4.4753,4.6929,4.79,4.7553,5.0081,5.1904,5.295,5.3109,5.2759,5.1901,5.1732,5.1886,5.2308,5.2637,5.2499,5.1908,5.1735,5.1569,5.1492,5.2352,5.2391,5.2038,0.0,0.0,0.0,0.0,0.0,0.0,0.0,0.0,0.0,5.2313,5.3523,5.4458,5.4108,5.3873,5.3757,5.3757,5.5123,5.7465,6.1056,6.6483,7.2573,7.8741,8.1356,8.3738,8.8069,8.8382,8.803,8.8383,8.8579,8.8813,8.9164,9.1507,9.3107,9.2562,9.3849,9.4278,9.2679,9.2951,9.3419,9.3771,9.2717,9.1663,9.0843,8.9672,8.8227,8.6469,8.6352,8.5961,8.5104,8.5065,8.4675,8.3814,8.3308,8.3035,8.3035,8.2528,8.2137,8.1786,8.2137,8.1552,8.0263,8.1122,8.1513,8.1552,8.2098,8.2292,8.2253,8.1708,8.0966,8.0146,7.964,7.9561,7.9639,0.0,0.0,0.0,0.0,0.0,0.0,0.0,0.0,0.0,0.0,0.0,0.0,0.0,0.0,0.0,0.0,0.0,0.0,0.0,0.0,4.3974,4.4753,4.646,4.825,4.9962,5.2138,5.206,4.9651,5.1361,5.1785,5.1086,5.1913,5.2812,5.3796,5.4544,5.4022,5.2631,5.3173,5.2585,5.1336,5.2157,5.2469,5.2469,5.2547,0.0,0.0,0.0,0.0,0.0,0.0,0.0,0.0,5.2196,5.2157,5.1843,5.3405,5.2741,5.2078,5.4616,5.6059,5.8128,6.3517,6.9645,7.6241,8.3502,8.7056,8.9242,9.0765,8.9984,8.9281,8.9986,8.9516,8.9242,8.9908,9.1391,9.2445,9.2289,9.2328,9.2367,9.2289,9.2289,9.2561,9.3263,9.1975,9.0687,8.9712,8.8188,8.6547,8.4907,8.479,8.4362,8.3426,8.3465,8.3074,8.2176,8.2253,8.2292,8.2292,8.2292,8.1786,8.0929,8.1786,8.1747,8.1046,8.1825,8.2214,8.2292,8.2292,8.2292,8.2292,8.2215,8.1708,8.1007,8.0929,8.042,7.9795,0.0,0.0,0.0,0.0,0.0,0.0,0.0,0.0,0.0,0.0,0.0,0.0,0.0,0.0,0.0,0.0,0.0,0.0,0.0,0.0,4.4598,4.4792,4.7045,4.9143,5.0891,5.0114,4.9104,4.7861,4.9573,5.035,5.0198,5.1069,5.1947,5.2804,5.3032,5.2578,5.156,4.9747,4.9539,5.0398,5.0593,5.0671,5.0749,5.1414,5.1022,0.0,0.0,0.0,0.0,0.0,0.0,0.0,5.2352,5.2586,5.2508,5.2859,5.2703,5.2859,5.4772,5.6918,6.0274,6.7537,7.589,8.3307,8.7017,8.8813,8.9634,8.932,9.0531,9.1546,9.1116,9.1389,9.1313,9.0181,9.1391,9.2055,9.0727,9.1116,9.1311,9.061,9.0532,9.0337,8.9867,8.9477,8.8618,8.7056,8.6588,8.5924,8.4868,8.479,8.4127,8.2606,8.3152,8.2801,8.1278,8.1942,8.2292,8.2292,8.2292,8.1474,8.0029,8.0888,8.1161,8.1007,8.12,8.1669,8.2292,8.2292,8.2292,8.2214,8.1552,8.1161,8.0929,8.0224,8.0302,8.0615,0.0,0.0,0.0,0.0,0.0,0.0,0.0,0.0,0.0,0.0,0.0,0.0,0.0,0.0,0.0,0.0,0.0,0.0,0.0,0.0,4.4909,4.654,4.9066,5.027,4.9959,4.9881,4.8794,4.6696,4.8017,4.8874,4.9304,5.0155,5.127,5.2555,5.2571,5.1913,5.0695,4.9352,4.9304,5.0124,5.0554,5.071,5.0788,5.1219,5.0594,4.9422,4.8954,0.0,0.0,0.0,0.0,0.0,0.0,0.0,5.1609,5.2469,5.2391,5.2703,5.5709,5.8675,6.3241,7.2649,7.995,8.5376,8.7562,8.8735,8.9242,8.8774,9.0413,9.1663,9.0843,9.104,9.1001,9.0142,9.0727,9.1001,9.0103,9.0376,9.0492,9.0064,8.9634,8.9359,8.932,8.8188,8.7095,8.6158,8.5338,8.448,8.3658,8.358,8.2838,8.1122,8.1864,8.1669,8.0381,8.1239,8.1669,8.1669,8.1669,8.0966,7.9717,7.9756,8.0421,8.1591,8.1161,8.1474,8.2292,8.2292,8.2292,8.2253,8.1786,8.163,8.1552,8.1122,8.1239,8.1552,0.0,0.0,0.0,0.0,0.0,0.0,0.0,0.0,0.0,0.0,0.0,0.0,0.0,0.0,0.0,0.0,0.0,0.0,0.0,0.0,0.0,4.8444,5.0619,5.0814,4.8874,4.9959,4.9104,4.6232,4.6812,4.7667,4.8835,4.9567,5.0898,5.2591,5.2301,5.1402,5.0085,4.9616,4.9538,4.9733,5.0437,5.075,5.075,5.075,0.0,4.8603,4.8603,4.8681,4.8915,4.9812,0.0,0.0,0.0,0.0,5.0398,5.2,5.1843,5.2078,5.6255,6.0783,6.6756,7.6945,8.2059,8.4985,8.6586,8.7642,8.8227,8.8071,8.9633,9.0804,8.9947,8.9908,8.9908,8.9595,8.9791,8.983,8.94,8.9478,8.9439,8.9127,8.8618,8.8422,8.8854,8.7056,8.5768,8.5456,8.3972,8.284,8.2331,8.2176,8.1396,7.9951,8.0615,8.0576,7.9717,8.042,8.0771,8.0771,8.0616,8.0263,7.9678,7.8508,7.9287,8.1591,8.0849,8.0966,8.163,8.1786,8.1942,8.2098,8.2253,8.2292,8.2292,8.2292,8.2292,8.2292,0.0,0.0,0.0,0.0,0.0,0.0,0.0,0.0,0.0,0.0,0.0,0.0,0.0,0.0,0.0,0.0,0.0,0.0,0.0,0.0,0.0,4.8522,4.891,4.9301,4.9729,4.8483,4.7587,4.712,4.6502,4.7398,4.9732,4.9887,5.0902,5.2552,5.1091,5.0308,4.9967,4.7744,4.7237,4.7938,4.8056,4.8095,4.8095,0.0,0.0,0.0,4.7743,4.8212,4.8915,4.9812,5.0085,0.0,0.0,0.0,5.028,5.1297,5.0944,5.1062,5.4655,6.2501,7.1089,7.7062,8.1122,8.3933,8.4907,8.5807,8.6236,8.5493,8.7915,8.9908,8.9047,8.9478,8.9517,8.7991,8.9008,8.9205,8.6939,8.7251,8.7172,8.5688,8.6041,8.5885,8.4519,8.4753,8.4361,8.2918,8.1903,8.163,8.2253,8.1591,8.1083,8.0811,8.0929,8.0576,7.9717,7.9834,7.9873,7.9873,7.9092,7.9092,7.9639,7.722,7.7142,7.8899,7.8781,7.882,7.8977,7.9756,8.0498,8.1239,8.202,8.2292,8.2292,8.2292,8.2292,8.2292,0.0,0.0,0.0,0.0,0.0,0.0,0.0,0.0,0.0,0.0,0.0,0.0,0.0,0.0,0.0,0.0,0.0,0.0,0.0,0.0,0.0,4.7087,4.7628,4.8055,4.8444,4.7703,4.7043,4.6579,4.6193,4.7592,0.0,5.0677,5.1609,5.3164,5.0991,5.0077,4.9917,4.7339,4.6784,4.7587,4.7587,4.7587,0.0,0.0,0.0,0.0,0.0,0.0,4.7549,4.8407,4.8718,4.8836,4.9696,0.0,0.0,0.0,5.0749,5.2233,5.8598,6.4687,7.0815,7.7453,8.0615,8.2567,8.44,8.5103,8.526,8.4868,8.6002,8.6978,8.6588,8.7212,8.7407,8.6157,8.6588,8.6861,8.6197,8.6002,8.5844,8.5573,8.5456,8.5065,8.4284,8.4128,8.3777,8.3035,8.2215,8.1903,8.2292,8.1942,8.1278,8.0302,8.0732,8.0343,7.8975,7.9444,7.9444,7.8975,7.8077,7.7882,7.8194,7.7062,7.722,7.8352,7.7882,7.7962,7.843,7.8819,7.9483,8.0263,8.0146,8.0693,8.1552,8.1552,8.1864,8.2292,0.0,0.0,0.0,0.0,0.0,0.0,0.0,0.0,0.0,0.0,0.0,0.0,0.0,0.0,0.0,0.0,0.0,0.0,0.0,0.0,0.0,4.565,4.6307,4.6771,4.6968,4.6968,4.6657,4.5999,4.5999,0.0,5.1199,5.1199,5.2375,0.0,5.1985,5.0752,0.0,0.0,0.0,0.0,0.0,0.0,0.0,0.0,0.0,0.0,0.0,0.0,0.0,0.0,4.7587,4.7743,4.8564,4.8798,0.0,0.0,0.0,5.2663,6.0003,6.4023,6.7888,7.5266,7.839,8.0341,8.2916,8.3853,8.4166,8.4166,8.4166,8.4088,8.3894,8.4909,8.5573,8.4907,8.479,8.4868,8.5104,8.4558,8.4244,8.4441,8.4089,8.3736,8.3541,8.3113,8.284,8.284,8.2098,8.1823,8.2292,8.1669,8.0927,8.0068,8.0029,7.9366,7.8079,7.8272,7.8038,7.7415,7.675,7.6438,7.6438,7.6242,7.6477,7.7101,7.6867,7.714,7.7766,7.7962,7.8585,7.9326,7.8897,7.9406,8.0382,8.085,8.1278,8.1706,0.0,0.0,0.0,0.0,0.0,0.0,0.0,0.0,0.0,0.0,0.0,0.0,0.0,4.1993,4.0946,4.0907,0.0,0.0,0.0,0.0,0.0,4.4831,4.4909,0.0,4.6038,4.6077,4.6038,4.5999,4.5999,0.0,5.1199,5.1199,5.2992,5.6074,5.4388,5.2719,5.1139,0.0,0.0,0.0,0.0,0.0,0.0,0.0,0.0,0.0,0.0,0.0,0.0,0.0,0.0,0.0,0.0,4.8798,4.8798,0.0,0.0,0.0,5.4733,5.8247,6.2267,6.8397,7.3043,7.6751,7.9366,8.1238,8.2448,8.2448,8.2448,8.2176,8.1356,8.3191,8.4868,8.479,8.479,8.4244,8.2721,8.2448,8.1823,8.0224,8.0732,8.0888,8.0068,8.0654,8.1124,8.1124,8.0341,8.0576,8.2214,7.9951,7.9328,8.089,7.8585,7.7257,7.7179,7.5579,7.4759,7.4681,7.4642,7.4642,7.4603,7.386,7.3508,7.3664,7.519,7.5893,7.601,7.6828,7.7687,7.8547,7.9326,7.917,7.8742,8.0382,8.0498,8.0068,0.0,0.0,0.0,0.0,0.0,0.0,0.0,0.0,0.0,0.0,0.0,0.0,0.0,4.2114,4.1492,4.0946,4.0907,0.0,0.0,0.0,0.0,4.3896,4.3974,4.4598,4.596,4.5999,4.5999,4.5999,4.5999,4.7514,5.0389,5.093,5.2445,5.4549,5.2875,5.1818,5.1041,4.829,0.0,0.0,0.0,0.0,0.0,0.0,0.0,0.0,0.0,0.0,0.0,0.0,0.0,0.0,0.0,0.0,0.0,4.786,4.9422,5.1569,5.4499,5.7387,6.0744,6.5702,6.9762,7.308,7.5109,7.7765,7.9795,7.9795,8.0224,8.0537,8.0224,8.1356,8.2176,8.163,8.1511,8.1513,8.1474,8.0966,8.0615,8.0537,8.081,8.089,8.0576,8.0811,8.1239,8.1786,8.0498,7.9951,8.0615,7.9756,7.8741,7.7688,7.6751,7.5463,7.3822,7.3197,7.2885,7.2885,7.3471,7.3743,7.3743,7.3978,7.4056,7.4095,7.4681,7.4681,7.4251,7.5071,7.593,7.6751,7.7064,7.7688,7.8469,7.9094,7.9483,7.9795,0.0,0.0,0.0,0.0,0.0,0.0,0.0,0.0,0.0,0.0,0.0,0.0,0.0,0.0,4.1531,4.0946,4.0907,4.0907,4.0907,4.0907,4.1684,4.343,4.3508,4.4287,4.596,4.5727,4.5727,4.5999,4.5727,4.6932,4.9496,5.0076,5.1241,5.2798,5.1086,5.097,0.0,0.0,0.0,4.7418,0.0,0.0,4.6846,0.0,0.0,0.0,0.0,0.0,0.0,0.0,0.0,0.0,0.0,0.0,0.0,0.0,0.0,5.0633,5.2936,5.5201,5.8128,6.3046,6.6208,6.8863,7.1752,7.4408,7.6478,7.7337,7.8001,7.8585,7.917,7.9248,7.9367,7.9639,7.9717,7.9717,7.9678,7.9209,7.8819,7.8819,7.8819,7.8819,7.8819,7.8819,7.917,8.0068,7.9053,7.8663,7.9248,7.8702,7.7335,7.5032,7.4408,7.3275,7.1597,7.1285,7.1128,7.1128,7.1714,7.2142,7.2454,7.2963,7.3393,7.3627,7.3354,7.3393,7.3743,7.429,7.4993,7.5814,7.5814,7.6517,7.761,7.8196,7.8585,7.8897,0.0,0.0,0.0,0.0,0.0,0.0,0.0,0.0,0.0,4.2192,0.0,0.0,0.0,0.0,0.0,4.0985,4.0985,4.0946,4.0907,4.0907,4.1684,4.343,0.0,0.0,4.596,4.5222,4.5222,4.5999,4.5222,4.6113,4.8522,4.8561,4.9493,5.1044,4.9376,5.0467,5.3468,0.0,5.0647,4.9806,0.0,4.7574,4.794,0.0,0.0,0.0,5.1101,5.0866,0.0,4.9189,0.0,0.0,0.0,0.0,0.0,0.0,0.0,0.0,0.0,0.0,0.0,5.9884,6.2109,6.4179,6.9175,7.105,7.2456,7.5034,7.558,7.6166,7.7923,7.6908,7.6595,7.9131,7.9561,7.8975,7.7257,7.7023,7.6399,7.4681,7.4525,7.4525,7.4525,7.4525,7.4915,7.5775,7.5775,7.6478,7.8157,7.6556,7.4877,7.3235,7.1517,7.0619,7.058,6.9762,6.9334,6.9334,6.9334,6.9801,7.0619,7.0659,7.1128,7.187,7.1011,7.2065,7.4369,7.4408,7.4954,7.5736,7.5775,7.5814,7.6049,7.7727,7.7843,7.7335,0.0,0.0,0.0,0.0,0.0,0.0,4.1509,4.2354,4.2928,0.0,0.0,0.0,4.2231,4.2539,4.277,4.277,4.277,4.2265,4.0985,4.0907,4.1684,4.343,4.3508,4.4287,4.596,4.5766,4.5766,4.5999,4.5766,4.6038,4.6737,4.7356,4.825,4.9337,4.9457,5.0078,5.0786,4.8474,0.0,4.8976,4.7922,4.8281,0.0,0.0,0.0,0.0,0.0,5.1648,5.1922,0.0,5.1063,5.0047,0.0,0.0,0.0,0.0,0.0,0.0,4.7978,0.0,0.0,0.0,0.0,0.0,6.1056,6.3516,6.6405,6.9567,7.0738,7.191,7.4251,7.4798,7.511,7.5813,7.593,7.5774,7.5305,7.5227,7.5032,7.4564,7.5073,7.5424,7.5424,7.5424,7.5814,7.6672,7.5579,7.4837,7.472,7.2456,7.0974,7.0504,6.9411,6.8513,6.7888,6.7655,6.7538,6.7538,6.8161,6.8591,6.8824,6.9489,6.9879,7.0115,6.984,7.0152,7.0894,7.2182,7.3197,7.4095,7.5346,7.6205,7.6789,7.7296,7.7296,7.7179,0.0,0.0,0.0,0.0,0.0,4.4093,4.2733,4.3394,4.3743,0.0,0.0,0.0,4.3318,4.4054,4.4404,4.4054,4.4052,4.3316,4.157,4.1454,4.2073,4.343,4.3508,4.4287,4.596,4.5688,4.565,4.5999,4.565,4.5688,4.5999,4.6502,4.7045,4.7553,0.0,0.0,0.0,0.0,0.0,0.0,4.8203,0.0,0.0,5.1245,5.1818,0.0,0.0,0.0,5.4655,5.3601,5.2664,0.0,0.0,0.0,0.0,0.0,0.0,0.0,0.0,0.0,0.0,0.0,0.0,0.0,5.7466,5.9104,6.1408,6.5194,6.6678,6.8163,7.1128,7.1753,7.1948,7.23,7.2065,7.2339,7.3783,7.4017,7.3861,7.351,7.3588,7.3666,7.3666,7.3355,7.3472,7.4369,7.3158,7.2339,7.222,7.0426,6.9412,6.9412,6.82,6.7303,6.6796,6.6796,6.6796,6.6796,6.7303,6.7732,6.8121,6.863,6.9059,6.9373,6.902,6.8864,6.8942,6.9957,7.1324,7.2885,7.4212,7.5501,7.6594,7.6984,7.7101,7.7062,0.0,0.0,4.4831,4.4909,4.5688,4.5999,4.5181,4.522,4.5103,0.0,4.4207,4.4557,4.5414,4.6077,4.6155,4.5416,4.5181,4.4329,4.258,4.2386,4.2736,4.3624,4.3624,4.4365,4.596,4.53,4.53,4.5999,4.53,4.53,4.5999,4.5999,4.5999,4.5999,0.0,0.0,0.0,0.0,0.0,4.8692,4.8798,4.9962,0.0,0.0,5.5226,5.5514,5.6216,5.7035,5.7426,5.4966,5.3444,0.0,0.0,0.0,0.0,0.0,4.7159,0.0,0.0,0.0,0.0,0.0,0.0,0.0,5.6451,5.6606,5.7348,6.1447,6.2892,6.4454,6.7772,6.7927,6.7771,6.8435,6.82,6.9097,7.2415,7.2884,7.2571,7.1792,7.1011,7.0541,7.0541,6.984,6.9723,7.0502,6.9762,6.9606,7.0385,6.9489,6.8983,6.8983,6.7382,6.6562,6.6679,6.6679,6.6718,6.6796,6.6796,6.7224,6.7966,6.7966,6.8396,6.9061,6.8279,6.7966,6.7966,6.7966,6.9489,7.1948,7.2923,7.433,7.5893,7.6789,7.7101,7.6984,0.0,0.0,4.4989,4.565,4.7048,4.7784,4.6926,4.8017,4.8835,4.868,4.8641,4.8991,4.9843,4.9457,4.9071,4.8913,4.7628,4.6113,4.4404,4.3627,4.3627,4.452,4.4559,4.4986,4.596,4.5844,4.5844,4.5999,4.5844,4.5844,4.5999,4.5999,4.5999,4.5999,4.5999,4.5999,0.0,0.0,0.0,4.8689,4.9421,5.1221,5.346,5.4018,5.5129,5.6294,5.5747,5.6529,5.7505,5.567,5.3522,5.1648,0.0,0.0,0.0,4.911,0.0,0.0,0.0,0.0,0.0,0.0,0.0,0.0,5.2819,5.3053,5.4304,5.7231,5.7972,5.8948,6.1642,6.3164,6.3828,6.328,6.5351,6.7772,6.9879,7.0152,7.0113,6.9919,6.9762,6.9645,6.9645,6.949,6.9451,6.9645,6.8864,6.8435,6.859,6.7185,6.6327,6.6327,6.5313,6.5118,6.5819,6.5819,6.617,6.6796,6.6796,6.6874,6.707,6.707,6.7148,6.7304,6.7148,6.707,6.707,6.707,6.8591,7.1127,7.2689,7.433,7.5893,7.6789,7.7101,7.6984,0.0,0.0,4.5805,4.7087,4.8369,4.9263,4.9257,5.0348,5.1011,5.0584,5.0894,5.1166,5.1199,5.1163,5.0622,4.9379,4.8444,4.7045,4.4948,4.4404,4.4326,4.4792,4.4792,4.5375,4.6618,4.6232,4.6193,4.6657,4.6193,4.5999,4.5999,4.5999,4.5999,4.5999,4.5999,4.5999,4.6038,0.0,4.7395,4.8688,4.9579,0.0,5.3961,5.4839,5.5779,5.6552,5.6536,5.684,5.7074,5.6216,5.5083,0.0,5.2976,5.2118,5.1336,0.0,5.0164,4.95,0.0,0.0,0.0,5.0751,0.0,0.0,0.0,5.1726,5.2273,5.5318,5.4927,5.4927,5.7933,5.887,5.93,5.969,6.1564,6.3555,6.5312,6.7771,6.9412,6.9412,6.8631,6.8085,6.8085,6.7732,6.7498,6.7498,6.7888,6.7537,6.6288,6.5819,6.539,6.4961,6.4532,6.4493,6.4961,6.4961,6.5157,6.5547,6.5977,6.6209,6.6209,6.6601,6.6796,6.6796,6.6796,6.6796,6.6796,6.6796,6.8083,7.0191,7.1478,7.304,7.472,7.5969,7.6711,7.6906,0.0,0.0,4.6543,4.8289,4.9301,5.0234,5.128,5.2135,5.2407,5.1785,5.2523,5.2834,5.2015,0.0,0.0,0.0,0.0,4.7731,0.0,4.5484,4.5098,4.5258,4.5103,4.5647,4.7004,4.6349,4.6349,4.7043,4.6349,4.5999,4.5999,4.5999,4.5999,4.5999,4.5999,4.6077,4.631,0.0,0.0,4.9182,5.004,5.167,5.3752,5.55,5.6318,5.6601,5.7479,5.7275,5.6616,5.6764,5.6722,5.6254,5.4304,5.4538,0.0,0.0,0.0,0.0,0.0,0.0,0.0,0.0,0.0,5.2156,0.0,0.0,0.0,5.3717,5.2507,5.1804,5.4809,5.4771,5.4694,5.5864,5.7348,5.8869,6.0274,6.4492,6.7537,6.7888,6.6678,6.5898,6.6055,6.5468,6.5155,6.5351,6.6444,6.6288,6.4415,6.4804,6.4765,6.4064,6.3907,6.3868,6.4064,6.4064,6.422,6.4571,6.5077,6.5507,6.5858,6.6172,6.6484,6.6796,6.664,6.6679,6.6796,6.6796,6.7616,6.9022,7.023,7.1869,7.3703,7.5229,7.6361,7.6867,4.5999,4.5999,0.0,4.8289,4.9301,5.0428,5.2018,5.2992,5.3536,5.342,5.4857,5.5514,0.0,0.0,0.0,0.0,0.0,0.0,5.1347,0.0,0.0,4.6965,4.6268,4.596,4.6155,4.6038,4.6038,4.6155,4.6038,4.5999,4.5999,4.5999,4.5999,4.5999,4.5999,4.6427,4.7159,4.7276,4.8713,5.0969,5.1785,5.2329,5.282,5.4564,5.5773,5.66,5.7478,5.7252,5.6639,5.74,5.7192,5.6683,0.0,5.6879,5.6255,5.5163,0.0,0.0,0.0,0.0,0.0,0.0,5.3796,0.0,5.1062,0.0,5.0202,5.0592,0.0,4.9462,5.0632,0.0,0.0,4.993,5.3133,5.5787,5.5982,5.848,6.0821,6.2383,6.2383,6.2578,6.336,6.336,6.3633,6.4376,6.3906,6.3789,6.4259,6.3672,6.3243,6.3164,6.2383,6.2383,6.3125,6.3164,6.3906,6.5429,6.4766,6.5235,6.6601,6.5235,6.5391,6.6757,6.6053,6.6131,6.6796,6.6796,6.6913,6.7343,6.9762,7.2181,7.4486,7.5424,7.6361,7.6867,4.5999,4.6427,0.0,0.0,4.9726,5.1202,5.2915,5.4313,5.5207,5.5207,5.5867,5.6175,0.0,0.0,0.0,0.0,0.0,5.1176,0.0,0.0,0.0,4.8053,4.724,4.7007,4.7514,4.6504,4.6232,4.6735,4.6232,4.5999,4.5999,4.5999,4.6271,4.6735,4.6757,4.7223,4.813,4.9084,4.9864,5.0584,5.241,5.2869,5.2736,5.5519,5.6832,5.7179,5.7029,5.6754,5.6435,5.6287,5.6367,5.6517,0.0,0.0,0.0,5.5553,0.0,0.0,0.0,0.0,0.0,0.0,0.0,0.0,5.2078,0.0,5.0241,5.0749,0.0,0.0,0.0,0.0,0.0,0.0,5.161,5.3601,5.3093,5.4381,5.6957,6.1211,6.0353,5.9768,6.0665,6.1174,6.1447,6.1291,6.2345,6.2501,6.133,6.2384,6.2774,6.2265,6.1875,6.1875,6.2226,6.2265,6.2617,6.3358,6.3477,6.3906,6.457,6.4376,6.4961,6.6092,6.5741,6.6053,6.6796,6.6796,6.7109,6.7693,6.9333,7.0894,7.2534,7.4369,7.5266,7.5501,0.0,0.0,0.0,0.0,4.9648,5.1125,5.3031,5.443,5.5398,5.5864,5.5942,0.0,5.6589,5.6812,0.0,0.0,5.557,5.4252,0.0,0.0,4.975,0.0,0.0,0.0,0.0,4.7004,4.654,4.6929,4.631,4.6116,4.6349,4.6116,4.6463,4.7315,4.7564,4.8152,4.9066,5.0751,5.1417,5.1477,5.3303,5.3808,5.3707,5.6045,5.7079,5.7231,5.6636,5.6402,5.6313,5.5937,5.6429,5.7067,5.6442,5.6875,5.7415,0.0,0.0,0.0,5.604,0.0,0.0,0.0,0.0,0.0,0.0,0.0,0.0,0.0,4.9929,0.0,0.0,0.0,0.0,0.0,0.0,5.1765,5.114,5.1375,5.3523,5.8635,5.8207,5.7816,5.8674,5.9339,5.9417,5.8791,6.0315,6.0627,5.9181,6.0899,6.1875,6.1719,6.1719,6.1719,6.1719,6.1719,6.1836,6.207,6.2461,6.2891,6.336,6.3517,6.4179,6.5234,6.5234,6.5702,6.6484,6.6718,6.7185,6.7849,6.8708,6.9567,7.066,7.3236,7.433,7.4486,4.7082,4.6618,0.0,0.0,0.0,4.9532,5.2057,5.2484,5.3145,5.4812,5.5045,0.0,0.0,0.0,0.0,0.0,0.0,5.7538,5.8316,0.0,5.0596,0.0,0.0,4.8197,0.0,0.0,4.6851,4.6038,4.5999,4.6427,4.7237,4.6388,4.6463,4.7354,4.8172,4.9027,4.9962,5.1668,5.3339,5.4851,5.4929,5.5437,5.6113,5.5417,5.5667,5.6341,5.641,5.6376,5.6445,5.7335,5.8209,5.891,5.8871,5.9499,5.9853,5.8131,0.0,0.0,5.7929,5.8281,5.828,5.5915,5.4654,5.3326,5.0787,5.0124,5.0358,0.0,0.0,0.0,0.0,0.0,0.0,0.0,0.0,0.0,0.0,4.9422,4.9931,5.2664,5.5162,5.6957,5.7777,5.7856,5.7856,5.7856,5.7192,5.7464,5.9025,5.9181,6.0001,6.1641,6.1719,6.1719,6.1719,6.1719,6.2109,6.2969,6.2148,6.2618,6.4181,6.254,6.2735,6.4337,6.4337,6.4844,6.5702,6.6484,6.6835,6.6913,6.781,6.8669,6.9762,7.2376,7.3821,7.4408,0.0,0.0,0.0,0.0,0.0,5.0312,5.2876,5.4213,5.5944,5.881,5.9638,0.0,0.0,6.4778,6.5371,0.0,0.0,6.1439,6.122,5.7438,0.0,0.0,0.0,5.0668,0.0,0.0,0.0,4.6851,4.6851,4.7004,4.7276,4.6427,4.6776,4.8211,4.9043,4.9888,5.0894,5.3693,5.4935,5.4974,5.5621,5.6372,5.7078,5.6227,5.606,5.6304,5.6311,5.6314,5.6445,5.7341,5.7825,5.818,5.8765,5.9188,5.9336,5.875,5.8788,5.9065,5.9354,5.9669,5.9402,5.7421,5.6286,5.4995,5.2397,5.1804,5.157,5.071,0.0,0.0,0.0,0.0,0.0,0.0,0.0,0.0,0.0,4.8173,4.8758,5.0749,5.3795,5.563,5.5318,5.5279,5.5044,5.446,5.4693,5.5121,5.5707,5.7854,5.9377,5.9962,6.1094,6.1719,6.1719,6.1719,6.1836,6.2148,6.1836,6.1992,6.2579,6.1953,6.2343,6.3438,6.3438,6.4258,6.5624,6.5897,6.6327,6.6874,6.7771,6.8279,6.8864,7.148,7.2612,7.2807,4.9454,0.0,0.0,0.0,4.964,5.1343,5.2974,5.5426,5.7997,6.0511,6.2616,6.5148,6.8505,0.0,7.0031,0.0,6.8282,6.5611,6.2669,6.0708,0.0,5.5006,5.437,0.0,0.0,0.0,0.0,0.0,4.8047,4.8211,4.8211,4.7007,4.724,4.8638,4.9473,5.0115,5.0875,5.466,5.5708,5.4999,5.5929,5.6644,5.7072,5.6528,5.6489,5.6761,5.6761,5.6761,5.6877,5.7732,5.8213,5.8584,5.9129,5.9372,5.9379,5.9379,5.9379,5.9504,6.0118,6.0241,5.9943,5.8581,5.7571,5.6325,5.4096,5.3817,5.3736,5.2627,5.2623,0.0,0.0,0.0,0.0,0.0,0.0,0.0,0.0,4.8094,4.8874,4.9967,5.2624,5.4148,5.36,5.3834,5.3366,5.1882,5.2585,5.321,5.3522,5.6527,5.8479,5.9064,6.0782,6.1719,6.1719,6.1719,6.1719,6.1719,6.1719,6.1719,6.1719,6.1719,6.1992,6.254,6.2852,6.3633,6.4726,6.5351,6.5897,6.6444,6.7303,6.7849,6.8394,7.0699,7.1714,7.1987,5.108,4.9888,4.9022,4.9914,5.1327,5.2389,5.2505,5.6078,5.911,6.0191,6.402,6.7329,6.911,7.2202,7.3502,7.1838,7.2297,6.986,6.3279,6.3511,0.0,0.0,5.678,5.6068,5.2709,0.0,0.0,0.0,0.0,4.9923,4.9923,4.8133,4.7781,4.8716,4.9573,4.9942,5.0141,5.4527,5.5845,5.5122,5.6006,5.6369,5.6372,5.6333,5.6838,5.758,5.7541,5.758,5.7732,5.8545,5.9399,6.0102,6.0137,6.0176,6.0176,6.0176,6.0176,6.0168,6.0248,6.0273,6.0058,5.9276,5.839,5.7347,5.5699,5.5976,5.6562,5.6581,5.5949,5.5598,0.0,0.0,0.0,0.0,0.0,0.0,0.0,4.8913,4.9928,5.0046,5.1492,5.2547,5.2703,5.3366,5.2779,5.028,5.0827,5.1648,5.2508,5.5123,5.7347,5.8947,6.0743,6.1719,6.1719,6.1719,6.1719,6.1719,6.1719,6.1719,6.1719,6.1719,6.1719,6.1758,6.2579,6.2969,6.3125,6.4843,6.5546,6.5663,6.6484,6.7342,6.8355,7.0073,7.1245,7.1987,5.1981,5.2165,5.2355,5.2598,5.1971,5.208,5.3977,5.7277,6.0816,6.4259,6.8906,7.3099,7.6067,7.7189,7.7492,7.7055,7.4889,0.0,0.0,0.0,0.0,6.1548,6.1214,5.98,5.7038,5.5785,0.0,5.2385,0.0,5.0169,5.0814,4.8402,4.8094,4.9612,5.0464,5.0781,5.0998,5.5348,5.7067,5.6866,5.7105,5.7204,5.7188,5.6567,5.6838,5.7502,5.6877,5.7033,5.7732,5.8545,5.9399,6.0215,6.0872,6.1066,6.1066,6.1066,6.1066,6.1073,6.1072,6.1081,6.0915,6.0092,5.9252,5.8332,5.7305,5.7239,5.7203,5.6587,5.6277,5.601,5.5625,5.4139,5.2612,0.0,0.0,0.0,0.0,0.0,4.7744,4.8993,4.954,5.0556,5.2508,5.1726,5.0826,5.0163,4.9695,4.9852,5.071,5.4497,5.68,5.723,6.0157,6.1719,6.1719,6.1719,6.1719,6.1719,6.1719,6.1719,6.1719,6.1719,6.1719,6.1719,6.1953,6.2383,6.3086,6.4181,6.5038,6.5663,6.6484,6.7733,6.9215,7.0307,7.1245,7.1987,5.2923,5.3839,5.4556,5.4189,5.4882,5.597,5.742,5.9555,6.2548,6.684,7.1501,7.5154,7.7094,7.8641,7.9221,7.8486,7.632,0.0,7.091,0.0,0.0,6.4952,6.4677,6.31,5.9757,5.7727,0.0,5.4199,0.0,5.1186,5.1683,4.9431,4.8735,4.9362,5.021,5.052,5.0685,5.4629,5.6745,5.7423,5.707,5.6968,0.0,5.6459,5.6815,5.7518,5.7026,5.7421,5.8315,5.9512,6.025,6.0759,6.126,6.1416,6.1416,6.1416,6.1416,6.1416,6.1416,6.1416,6.1278,6.0849,6.0355,5.9796,5.8997,5.8781,5.8556,5.7726,5.6913,5.6375,5.6318,5.4256,5.2225,0.0,0.0,0.0,0.0,0.0,0.0,0.0,4.915,5.0087,5.1961,5.0555,4.9227,4.8485,4.9032,4.9422,4.9539,5.3678,5.602,5.602,5.9728,6.1524,6.1133,6.2267,6.2461,6.1719,6.1719,6.1719,6.1719,6.1719,6.1719,6.1719,6.1719,6.1992,6.254,6.379,6.4571,6.5155,6.6328,6.7616,6.8942,6.9801,7.0933,7.1987,5.3913,5.5126,5.6015,5.5242,5.8526,6.1519,6.2252,6.3153,6.5136,6.8965,7.3143,7.5773,7.5773,7.8519,7.9685,7.8022,7.7177,7.5011,7.0949,7.2684,7.1756,6.692,6.7307,6.5721,6.1543,5.8871,5.6763,0.0,0.0,5.2161,5.2191,5.0445,4.9323,4.8783,4.9478,4.9944,5.0417,5.336,5.5556,5.699,5.6405,5.6176,5.6183,5.6216,5.6661,5.7367,5.7634,5.8269,5.9202,6.0717,6.1299,6.1416,6.1416,6.1416,6.1416,6.1416,6.1416,6.1416,6.1416,6.1416,6.1416,6.1416,6.1416,6.1214,6.0505,6.0373,6.0163,5.9458,5.7947,5.6896,5.7573,5.4714,5.1836,0.0,0.0,0.0,0.0,0.0,0.0,0.0,4.9391,0.0,5.0828,4.9735,4.8369,4.6924,4.8836,4.9734,4.8837,5.282,5.5124,5.5124,5.9181,6.1172,6.0744,6.2892,6.3321,6.2031,6.1797,6.1719,6.1719,6.1719,6.1719,6.1719,6.1719,6.1719,6.1836,6.3595,6.4415,6.4766,6.6211,6.7342,6.82,6.9098,7.0426,7.1831,5.4601,5.5947,5.7022,5.6897,5.9798,6.3594,6.7825,6.9788,7.133,7.28,7.6662,7.9293,7.9293,8.0492,8.0608,7.8912,7.8641,7.7326,0.0,0.0,0.0,6.9479,6.8854,6.6882,6.3328,6.0049,5.7938,0.0,0.0,5.127,5.1273,4.9556,4.9052,4.9598,4.9753,5.097,5.2945,5.3487,5.4312,5.532,5.5897,5.6149,5.6218,5.6187,5.6307,5.6625,5.8058,5.9142,5.9904,6.0215,6.0794,6.1416,6.1416,6.1416,6.1416,6.1416,6.1416,6.1416,6.1416,6.1416,6.1416,6.1416,6.1416,6.1345,6.1214,6.1178,6.1146,6.1016,5.958,5.8209,5.7708,5.3688,5.0604,5.1036,4.8619,4.6824,0.0,0.0,0.0,0.0,0.0,4.8824,4.8332,4.9227,4.9734,4.9461,4.985,4.9734,4.8837,5.2234,5.4225,5.4225,5.7698,6.0509,6.254,6.2304,6.2735,6.3829,6.2383,6.1719,6.1719,6.1719,6.1719,6.1719,6.1719,6.1719,6.1836,6.3595,6.5118,6.6406,6.6679,6.7342,6.82,6.9098,7.0035,7.101,5.667,5.7404,0.0,5.9721,6.3478,6.7617,7.1446,7.4966,7.6746,7.5353,7.6978,7.8061,7.7591,7.9138,7.9685,7.8448,7.7906,7.7132,7.5856,7.5005,7.3574,7.1452,7.0092,6.7849,6.445,6.1007,5.8656,5.7353,0.0,5.1424,5.1037,4.9716,4.8864,4.8476,4.9347,5.0917,5.2914,5.3819,5.44,5.4885,5.5693,5.6054,5.6117,5.6137,5.642,5.6936,5.7811,5.8697,5.9569,6.048,6.0759,6.0794,6.126,6.1416,6.1416,6.1416,6.1416,6.1416,6.1416,6.1416,6.1416,6.1416,6.1416,6.1416,6.1416,6.1416,6.126,6.0833,6.006,5.893,5.725,5.4925,5.2974,5.2104,5.0198,4.8833,0.0,0.0,4.8253,0.0,0.0,0.0,4.945,4.9876,4.9557,4.8214,4.9773,5.0203,4.8876,5.1258,5.3288,5.4615,5.7113,5.9456,6.1642,6.2579,6.3008,6.293,6.2109,6.1719,6.1719,6.1719,6.1719,6.1719,6.1719,6.1953,6.25,6.4258,6.5703,6.6796,6.6796,6.707,6.7576,6.8904,6.9684,7.0191,5.9184,5.9691,6.0774,6.3318,6.7694,7.164,7.4077,7.8442,8.053,7.7829,7.7326,7.7016,7.6508,7.7983,7.8718,7.8022,7.7177,7.6519,7.6171,7.5314,7.4071,7.2413,7.0672,6.8279,6.5069,6.1819,5.9145,0.0,5.3962,5.1854,5.0723,5.0026,4.8981,4.7816,4.9292,5.079,5.2302,5.3846,5.4619,5.4851,5.5659,5.6008,5.6012,5.6243,5.6763,5.7434,5.7858,5.835,5.9013,6.0805,6.083,6.0254,6.1144,6.1416,6.1416,6.1416,6.1416,6.1416,6.1416,6.1416,6.1416,6.1416,6.1416,6.1416,6.1416,6.1416,6.1222,6.0526,6.0215,5.9429,5.7225,5.6383,5.5394,5.3428,5.1918,5.0749,5.0085,0.0,0.0,0.0,0.0,0.0,5.0381,5.0077,4.8905,4.6705,4.9389,5.0516,4.915,5.0555,5.2429,5.4694,5.6724,5.8714,6.0666,6.2735,6.3243,6.2265,6.1875,6.1719,6.1719,6.1719,6.1719,6.1719,6.1914,6.2578,6.3672,6.5038,6.6053,6.6796,6.6796,6.6796,6.6992,6.8748,6.9412,6.9646,6.1732,6.3323,6.5185,6.7766,7.1175,7.4115,7.59,7.9183,8.1381,8.1072,8.0337,8.0105,8.0801,7.9763,7.895,7.8873,7.8061,7.69,7.5347,7.4458,7.3226,7.1485,6.9821,6.7694,6.5069,6.2356,5.9373,0.0,5.4271,5.2148,4.9827,4.9749,4.9633,4.9517,5.0399,5.1293,5.2264,5.3231,5.4078,5.4851,5.5659,5.6008,5.6085,5.6863,5.725,5.7529,5.9091,5.9228,5.8896,6.0717,6.0769,6.0254,6.1144,6.1416,6.1416,6.1416,6.1416,6.1416,6.1416,6.1416,6.1416,6.1416,6.1416,6.1416,6.1416,6.1416,6.1377,6.1299,6.0642,5.9791,5.8752,5.6696,5.5067,5.4804,5.2092,4.9995,4.9917,5.0534,5.0402,4.8911,0.0,0.0,4.7906,4.843,4.8516,4.746,4.9168,5.0163,5.0007,5.0866,5.1882,5.2898,5.61,5.9026,6.1563,6.1836,6.2657,6.4025,6.2461,6.1719,6.1719,6.1719,6.1719,6.1758,6.254,6.3828,6.5351,6.5546,6.6053,6.6796,6.6796,6.6796,6.6992,6.8748,6.9412,6.9646,6.6611,6.7114,6.839,7.1943,7.3723,7.5541,7.8254,8.0298,8.1497,8.1497,8.0724,8.0143,7.9995,7.8912,7.8022,7.7481,7.663,7.6088,7.5895,7.4154,7.2568,7.133,6.9705,6.7346,6.4295,6.2665,6.0224,5.6781,5.5084,5.3227,5.1181,5.0171,4.9974,5.0438,5.0747,5.1676,5.3037,5.3923,5.4465,5.4851,5.5659,5.6008,5.6085,5.6975,5.7284,5.7443,5.8695,5.8906,5.8802,6.0099,6.034,6.0261,6.1137,6.1416,6.1416,6.1416,6.1416,6.1416,6.1416,6.1416,6.1416,6.1416,6.1416,6.1416,6.1416,6.1416,6.1416,6.1416,6.1105,6.0604,5.9749,5.8311,5.6952,5.5942,5.4194,5.2601,5.1555,5.1689,0.0,4.9526,0.0,4.9194,4.8181,4.8001,4.8469,4.9765,4.9988,5.0085,5.0085,5.0437,5.1998,5.4966,5.5871,5.8022,6.1652,6.1691,6.2043,6.2746,6.2035,6.1719,6.1719,6.1719,6.1992,6.2578,6.3945,6.496,6.5624,6.6131,6.6523,6.6796,6.6796,6.7109,6.7732,6.8942,6.9723,7.0348,7.0711,7.0866,7.1905,7.5889,7.6585,7.7513,8.0182,8.111,8.142,8.1149,8.0376,7.9724,7.9376,7.8138,7.7177,7.6829,7.574,7.5347,7.5972,7.3883,7.222,7.133,6.9435,6.7075,6.414,6.2975,6.0843,5.7671,5.624,5.4658,5.2921,5.1486,5.1138,5.1676,5.1676,5.2492,5.3923,5.4542,5.4929,5.52,5.5776,5.6008,5.6085,5.6975,5.7284,5.7443,5.8566,5.8966,5.9125,6.0058,6.0363,6.0511,6.1189,6.1359,6.1363,6.1373,6.1416,6.1416,6.1416,6.1416,6.1416,6.1416,6.1416,6.1416,6.1416,6.1416,6.1416,6.1416,6.1416,6.1222,6.0604,5.9788,5.8622,5.6955,5.5942,5.4695,5.2666,5.2602,0.0,5.0406,4.9634,4.9171,4.8982,4.8004,4.8279,5.0425,5.0036,4.9903,5.0437,5.0476,5.2116,5.5707,5.5953,5.7754,6.1268,6.158,6.1697,6.1697,6.1686,6.1836,6.2109,6.2343,6.2813,6.3477,6.496,6.5741,6.6014,6.6562,6.6796,6.6796,6.6796,6.7185,6.7849,6.8981,6.9801,7.0465,7.3187,7.4496,7.6121,7.9525,8.0143,8.0453,8.1343,8.1497,8.1188,8.0337,7.9531,7.9299,8.0105,7.7945,7.6751,7.7597,7.6082,7.5115,7.5115,7.3535,7.222,7.133,6.8854,6.6727,6.503,6.3284,6.1157,5.8569,5.7709,5.6394,5.4735,5.3884,5.3463,5.3463,5.3463,5.3962,5.4774,5.4813,5.5277,5.6008,5.6008,5.6008,5.6085,5.6975,5.7284,5.7516,5.9261,5.9885,6.0005,6.0902,6.1186,6.1204,6.1295,6.1283,6.1329,6.1366,6.1416,6.1416,6.1416,6.1416,6.1416,6.1416,6.1416,6.1416,6.1416,6.1416,6.1416,6.1416,6.1416,6.1416,6.1377,6.0681,5.9558,5.7852,5.6838,5.5388,5.2787,5.3133,5.3042,5.1298,5.1053,5.0717,4.9866,4.829,4.769,4.8645,4.8737,4.9491,5.1299,5.1375,5.2195,5.399,5.6461,5.8613,6.0408,6.1268,6.1697,6.1697,6.1686,6.2148,6.3008,6.3868,6.4259,6.4337,6.5234,6.6053,6.6796,6.6796,6.6796,6.6796,6.6796,6.6796,6.7031,6.8748,6.9412,6.9646,7.6823,7.7597,7.8254,7.9911,8.0182,8.0111,7.984,7.9801,7.9685,7.9415,7.8641,7.8216,7.8486,7.7254,7.6519,7.679,7.5276,7.4496,7.5076,7.2955,7.1336,7.0446,6.9125,6.7036,6.4179,6.356,6.2051,5.9498,5.8604,5.7327,5.5621,5.5311,5.5505,5.6085,5.6085,5.6553,5.7409,5.7409,5.7525,5.7753,5.7753,5.7404,5.7052,5.8526,5.8328,5.7593,5.9919,6.0383,6.0039,6.0866,6.1137,6.115,6.1212,6.1271,6.1283,6.1333,6.1355,6.1416,6.1416,6.1416,6.1416,6.1416,6.1416,6.1416,6.1416,6.1416,6.1416,6.1416,6.1416,6.1416,6.1416,6.0695,5.9562,5.7884,5.73,5.5945,5.2854,5.2588,5.2091,5.0329,4.9621,4.915,4.885,4.8935,4.9374,5.0336,5.1002,5.1094,5.0528,5.1653,5.3371,5.5681,5.7135,5.8976,6.1244,6.1557,6.1713,6.1713,6.2292,6.3027,6.3917,6.4808,6.5194,6.5234,6.6053,6.6562,6.6796,6.6796,6.6796,6.6796,6.6796,6.7146,6.7849,6.8981,6.9762,7.0465,7.8564,7.8757,7.8873,7.9989,7.995,7.9569,7.9067,7.8989,7.8873,7.8564,7.8022,7.7564,7.7254,7.6713,7.6403,7.6403,7.5121,7.4574,7.5076,7.3032,7.1258,7.0059,6.8932,6.7036,6.4256,6.356,6.2433,6.0847,5.9653,5.8376,5.6979,5.6979,5.7288,5.7787,5.7787,5.8101,5.8608,5.8608,5.8608,5.8608,5.8608,5.8255,5.7907,5.899,5.872,5.8023,5.9957,6.0344,6.0035,6.0847,6.1118,6.1123,6.115,6.1212,6.1275,6.1295,6.1314,6.1376,6.1352,6.1355,6.1359,6.1373,6.1416,6.1416,6.1416,6.1416,6.1416,6.1416,6.1416,6.137,6.1359,6.0906,6.0002,5.827,5.7958,5.6722,5.3321,5.2824,5.2136,5.0389,5.0019,4.986,4.9861,5.0659,5.1195,5.1179,5.2614,5.2765,5.1132,5.2721,5.4588,5.6549,5.7767,5.9449,6.1677,6.2029,6.2185,6.2185,6.3392,6.409,6.4358,6.5523,6.5911,6.5638,6.6497,6.6807,6.6802,6.6802,6.68,6.6796,6.6801,6.7112,6.7772,6.8953,6.9735,7.0394,7.8564,7.8254,7.8177,7.9763,7.9415,7.8873,7.8834,7.8834,7.8525,7.7719,7.7597,7.7293,7.6481,7.6365,7.6326,7.6326,7.5508,7.5038,7.5038,7.3458,7.1717,6.9982,6.8429,6.6766,6.503,6.3362,6.2428,6.2312,6.0692,5.9498,5.8763,5.8724,5.8724,5.8763,5.8763,5.8763,5.8763,5.8763,5.8763,5.8763,5.8763,5.8724,5.8685,5.8763,5.8685,5.8724,5.9653,5.9962,6.0035,6.0847,6.1118,6.1118,6.1118,6.1146,6.1191,6.1281,6.1297,6.131,6.1306,6.1318,6.1326,6.1398,6.1409,6.1409,6.1409,6.1409,6.1409,6.1409,6.1409,6.1359,6.1322,6.1314,6.0717,5.8979,5.8696,5.7517,5.4076,5.3604,5.298,5.1276,5.1853,5.2411,5.2486,5.3189,5.3067,5.1569,5.3771,5.4513,5.3029,5.4687,5.6005,5.6751,5.8395,6.0076,6.1678,6.2576,6.3045,6.3201,6.4838,6.5225,6.4522,6.6162,6.6474,6.5733,6.6552,6.686,6.6813,6.6813,6.6808,6.68,6.6809,6.6808,6.7035,6.8773,6.9399,6.9664,7.7796,7.7829,7.7829,7.8216,7.8138,7.779,7.7138,7.7022,7.6945,7.6713,7.6713,7.6635,7.6403,7.5817,7.5425,7.5425,7.4651,7.4187,7.4187,7.2568,7.0866,6.9164,6.8694,6.7384,6.5069,6.3947,6.2743,6.1427,6.0383,6.0112,6.0499,5.988,5.9919,6.0499,6.0499,6.0499,6.0499,6.0499,6.0499,6.0499,6.0499,6.0151,5.9653,6.0267,5.9725,5.8802,6.0267,6.0422,6.0035,6.0847,6.1118,6.1118,6.1118,6.1123,6.1141,6.1191,6.1272,6.1301,6.1314,6.1314,6.1318,6.1326,6.133,6.133,6.133,6.133,6.133,6.133,6.133,6.1326,6.1318,6.1246,6.0687,5.8967,5.8647,5.7452,5.4068,5.3576,5.3131,5.2047,5.2701,5.3479,5.4145,5.4946,5.5289,5.5028,5.6131,5.6736,5.6497,5.8151,5.8943,5.8592,5.9568,6.0624,6.1679,6.2578,6.3672,6.5,6.5388,6.5855,6.6285,6.671,6.6786,6.6591,6.6825,6.6902,6.6861,6.6861,6.686,6.6898,6.686,6.686,6.7094,6.8777,6.9403,6.9635,7.7525,7.737,7.7216,7.7635,7.737,7.6945,7.6481,7.6403,7.6403,7.6403,7.6403,7.6403,7.6403,7.5624,7.5115,7.5115,7.4342,7.3728,7.3342,7.2065,7.0556,6.8888,6.8424,6.7384,6.561,6.4334,6.2863,6.1118,6.0654,6.0654,6.1079,6.0654,6.0692,6.1118,6.1118,6.1118,6.1118,6.1118,6.1118,6.1118,6.1118,6.0847,6.0499,6.0925,6.0538,5.9841,6.077,6.0809,6.0538,6.0963,6.1118,6.1118,6.1118,6.1118,6.1123,6.1146,6.1173,6.1204,6.126,6.1268,6.1272,6.1293,6.1301,6.1301,6.1301,6.1301,6.1301,6.1301,6.1301,6.1293,6.1272,6.1204,6.0528,5.8406,5.8015,5.6833,5.3456,5.3286,5.3308,5.2844,5.3884,5.5006,5.5853,5.7056,5.7486,5.6741,5.8234,5.8877,5.8197,5.9845,6.0677,6.0351,6.1132,6.1992,6.289,6.375,6.4844,6.6172,6.6171,6.6444,6.6913,6.6912,6.6911,6.6911,6.6911,6.691,6.6908,6.6908,6.6906,6.6904,6.6907,6.6906,6.7099,6.8784,6.941,6.9642,7.7353,7.6894,7.6635,7.737,7.6906,7.6403,7.6403,7.6403,7.6403,7.6403,7.6287,7.621,7.621,7.5314,7.4728,7.4728,7.3993,7.3264,7.2645,7.164,7.0402,6.8888,6.796,6.7075,6.6224,6.4566,6.2863,6.1118,6.1118,6.1118,6.1118,6.1118,6.1118,6.1118,6.1118,6.1118,6.1118,6.1118,6.1118,6.1118,6.1118,6.1118,6.1118,6.1118,6.1118,6.1118,6.1118,6.1118,6.1118,6.1118,6.1118,6.1118,6.1118,6.1118,6.1118,6.1118,6.1118,6.1123,6.1164,6.1173,6.1186,6.1268,6.1281,6.1281,6.1281,6.1281,6.1281,6.1281,6.1281,6.1268,6.1182,6.1173,6.0351,5.7714,5.7284,5.6162,5.2844,5.327,5.3884,5.3884,5.547,5.6897,5.7632,5.9029,5.9339,5.798,5.9867,6.0501,5.9173,6.0544,6.16,6.2027,6.2655,6.3476,6.4492,6.5234,6.6055,6.6914,6.6914,6.6875,6.6874,6.6875,6.6875,6.6874,6.6875,6.6914,6.6912,6.6912,6.6872,6.6872,6.6873,6.695,6.7263,6.8828,6.9492,6.9842,7.6474,7.6439,7.6442,7.6597,7.6481,7.6403,7.6403,7.6403,7.6403,7.6403,7.5779,7.5309,7.5309,7.3922,7.2993,7.2993,7.2181,7.1949,7.2568,7.1103,6.9783,6.8849,6.796,6.7075,6.6224,6.4566,6.2863,6.1118,6.1118,6.1118,6.1118,6.1118,6.1118,6.1118,6.1118,6.1118,6.1118,6.1118,6.1118,6.1118,6.1118,6.1118,6.1118,6.1118,6.1118,6.1118,6.1118,6.1118,6.1118,6.1118,6.1118,6.1118,6.1118,6.1118,6.1118,6.1118,6.1118,6.1118,6.1127,6.1127,6.1127,6.1137,6.1141,6.1141,6.1141,6.1141,6.1141,6.1141,6.1141,6.1137,6.1127,6.1127,6.0272,5.7709,5.7284,5.6356,5.3695,5.4619,5.5621,5.5621,5.7791,5.9339,5.9493,5.9725,6.0074,6.0499,6.0265,6.0355,6.0875,6.1178,6.2037,6.3594,6.3154,6.3699,6.539,6.5547,6.6055,6.6914,6.6914,6.6832,6.6731,6.6833,6.6832,6.6732,6.6833,6.6914,6.6914,6.6914,6.6833,6.6738,6.6874,6.7262,6.7949,6.9022,6.9883,7.0625,7.6356,7.638,7.6403,7.6403,7.6403,7.6403,7.6403,7.6403,7.6403,7.6403,7.5624,7.5115,7.5115,7.3612,7.2607,7.2607,7.1794,7.1258,7.1219,7.0054,6.897,6.8153,6.7268,6.6185,6.4875,6.4101,6.2863,6.1118,6.1118,6.1118,6.1118,6.1118,6.1118,6.1118,6.1118,6.1118,6.1118,6.1118,6.1118,6.1118,6.1118,6.1118,6.1118,6.1118,6.1118,6.1118,6.1118,6.1118,6.1118,6.1118,6.1118,6.1118,6.1118,6.1118,6.1118,6.1118,6.1118,6.1118,6.1118,6.1118,6.1118,6.1118,6.1118,6.1118,6.1118,6.1118,6.1118,6.1118,6.1118,6.1118,6.1118,6.1118,6.0422,5.8333,5.7593,5.6743,5.5084,5.5505,5.6356,5.7288,5.8874,6.0074,6.0499,6.0538,6.0692,6.1079,6.1195,6.1426,6.1862,6.1905,6.2722,6.4466,6.479,6.5274,6.6123,6.6123,6.6358,6.6748,6.6748,6.6694,6.6662,6.6697,6.6694,6.6662,6.6697,6.6748,6.6748,6.6748,6.6693,6.6664,6.6699,6.7261,6.8127,6.9007,6.9918,7.082,7.638,7.6392,7.6403,7.6403,7.6403,7.6403,7.6403,7.6403,7.6403,7.6403,7.5624,7.5038,7.4844,7.3496,7.2529,7.2336,7.1678,7.0871,6.9788,6.9125,6.8424,6.7539,6.6688,6.5489,6.4024,6.3792,6.2941,6.1389,6.1195,6.1118,6.1118,6.1118,6.1118,6.1118,6.1118,6.1118,6.1118,6.1118,6.1118,6.1118,6.1118,6.1118,6.1118,6.1118,6.1118,6.1118,6.1118,6.1118,6.1118,6.1118,6.1118,6.1118,6.1118,6.1118,6.1118,6.1118,6.1118,6.1118,6.1118,6.1118,6.1118,6.1118,6.1118,6.1118,6.1118,6.1118,6.1157,6.135,6.1234,6.1157,6.1345,6.1234,6.0538,5.8879,5.8023,5.7284,5.6433,5.6472,5.7172,5.8724,5.9846,6.0731,6.135,6.1582,6.1698,6.1698,6.2317,6.2704,6.2704,6.2704,6.34,6.4952,6.6001,6.6566,6.6592,6.6592,6.6592,6.6592,6.6592,6.6579,6.6552,6.6579,6.6577,6.6555,6.6582,6.6592,6.6592,6.6592,6.6577,6.6555,6.6582,6.7268,6.8341,6.9058,7.0026,7.1094,7.6295,7.6362,7.6403,7.6403,7.6403,7.6403,7.6403,7.6403,7.6403,7.6403,7.5624,7.4806,7.4077,7.3148,7.2258,7.1485,7.133,7.0595,6.9004,6.881,6.8424,6.7539,6.6688,6.5799,6.4914,6.4101,6.325,6.2312,6.15,6.1118,6.1118,6.1118,6.1118,6.1118,6.1118,6.1118,6.1118,6.1118,6.1118,6.1118,6.1118,6.1118,6.1118,6.1118,6.1118,6.1118,6.1118,6.1118,6.1118,6.1118,6.1118,6.1118,6.1118,6.1118,6.1118,6.1118,6.1118,6.1118,6.1118,6.1118,6.1118,6.1118,6.1118,6.1118,6.1118,6.1118,6.135,6.2158,6.1655,6.135,6.2158,6.1655,6.0538,5.8879,5.8531,5.8217,5.7323,5.7907,5.8763,5.9691,6.1234,6.2235,6.2312,6.3013,6.3521,6.3521,6.356,6.3598,6.3598,6.3598,6.4024,6.4952,6.5928,6.6474,6.659,6.6592,6.6592,6.6592,6.6592,6.6534,6.6411,6.6543,6.6531,6.6414,6.6546,6.6592,6.6592,6.6592,6.6528,6.6422,6.6549,6.7577,6.9043,6.9239,7.0417,7.1914,7.635,7.6386,7.6403,7.6403,7.6403,7.6403,7.6403,7.6403,7.6204,7.5662,7.5309,7.4574,7.3226,7.28,7.2258,7.1374,7.0794,7.0015,6.8888,6.8269,6.7617,6.6727,6.6379,6.5837,6.503,6.414,6.3289,6.239,6.1539,6.1118,6.1118,6.1118,6.1118,6.1118,6.1118,6.1118,6.1118,6.1118,6.1118,6.1118,6.1118,6.1118,6.1118,6.1118,6.1118,6.1118,6.1118,6.1118,6.1118,6.1118,6.1118,6.1118,6.1118,6.1118,6.1118,6.1118,6.1118,6.1118,6.1118,6.1118,6.1118,6.1118,6.1118,6.1118,6.1118,6.1118,6.135,6.2235,6.2158,6.2162,6.3052,6.2472,6.1693,6.1079,6.0074,5.9455,5.9643,5.9957,6.046,6.135,6.2472,6.3212,6.3212,6.3521,6.3715,6.3715,6.4217,6.4527,6.4527,6.4991,6.5185,6.4991,6.5838,6.6299,6.6367,6.6367,6.6367,6.6367,6.6367,6.6334,6.6267,6.6338,6.6601,6.7038,6.6571,6.6678,6.7101,6.6561,6.6329,6.6272,6.6342,6.7138,6.8287,6.884,6.9943,7.1196,7.6356,7.6386,7.6403,7.6403,7.6171,7.6088,7.6365,7.5939,7.5508,7.5154,7.4883,7.4187,7.2761,7.2607,7.2258,7.1374,7.0755,6.9938,6.8849,6.7733,6.6804,6.6224,6.6185,6.5953,6.5378,6.4295,6.3405,6.282,6.166,6.1118,6.1118,6.1118,6.1118,6.1118,6.1118,6.1118,6.1118,6.1118,6.1118,6.1118,6.1118,6.1118,6.1118,6.1118,6.1118,6.1118,6.1118,6.1118,6.1118,6.1118,6.1118,6.1118,6.1118,6.1118,6.1118,6.1118,6.1118,6.1118,6.1118,6.1118,6.1118,6.1118,6.1118,6.1157,6.1466,6.15,6.181,6.2975,6.3013,6.3052,6.3947,6.3405,6.282,6.282,6.1853,6.1277,6.1853,6.193,6.2124,6.2743,6.3598,6.4101,6.4101,6.4334,6.4488,6.4488,6.503,6.5378,6.5378,6.5915,6.5953,6.5378,6.5915,6.6185,6.6185,6.6185,6.6185,6.6185,6.6185,6.6185,6.6224,6.6495,6.692,6.7501,6.7152,6.7346,6.7849,6.6959,6.6611,6.6572,6.6301,6.6824,6.7802,6.8614,6.9592,7.0676,7.6288,7.6356,7.6403,7.6403,7.5662,7.5386,7.6249,7.4966,7.4187,7.4999,7.438,7.3574,7.2684,7.2607,7.2258,7.1374,7.1297,7.0595,6.8888,6.7152,6.6224,6.6185,6.6185,6.6185,6.6185,6.4566,6.3715,6.3676,6.193,6.1118,6.1118,6.1118,6.1118,6.1118,6.1118,6.1118,6.1118,6.1118,6.1118,6.1118,6.1118,6.1118,6.1118,6.1118,6.1118,6.1118,6.1118,6.1118,6.1118,6.1118,6.1118,6.1118,6.1118,6.1118,6.1118,6.1118,6.1118,6.1118,6.1118,6.1118,6.1118,6.1118,6.1118,6.135,6.2196,6.2428,6.2897,6.4643,6.4295,6.3985,6.4836,6.4295,6.3715,6.3715,6.3715,6.3676,6.3676,6.3715,6.3715,6.3715,6.4488,6.4991,6.4991,6.5721,6.6185,6.6185,6.6185,6.6185,6.6185,6.6185,6.6185,6.6185,6.6185,6.6185,6.6185,6.6185,6.6185,6.6185,6.6185,6.6185,6.6224,6.7114,6.7501,6.7578,6.8424,6.881,6.8733,6.7849,6.7501,6.7384,6.6533,6.6824,6.7798,6.861,6.9529,7.0515,7.6276,7.6319,7.635,7.6392,7.5662,7.5193,7.5463,7.4579,7.3767,7.338,7.369,7.3342,7.1833,7.222,7.2258,7.1374,7.0755,6.9667,6.8003,6.7384,6.6843,6.6224,6.6185,6.5953,6.5378,6.4256,6.3405,6.2781,6.166,6.1118,6.1118,6.1118,6.1118,6.1118,6.1118,6.1118,6.1118,6.1118,6.1118,6.1118,6.1118,6.1118,6.1118,6.1118,6.1118,6.1118,6.1118,6.1118,6.1118,6.1118,6.1118,6.1118,6.1118,6.1118,6.1118,6.1118,6.1118,6.1118,6.1118,6.1118,6.1234,6.1848,6.2003,6.208,6.2351,6.2859,6.3444,6.3985,6.4372,6.4875,6.5682,6.5185,6.4604,6.4604,6.3594,6.2781,6.2781,6.3328,6.3715,6.3715,6.4952,6.5837,6.5837,6.6069,6.6185,6.6185,6.6185,6.6185,6.6185,6.6185,6.6185,6.6185,6.6185,6.6185,6.6185,6.6185,6.6185,6.6185,6.6185,6.6185,6.6224,6.7114,6.7849,6.8424,6.8694,6.881,6.8733,6.7849,6.7152,6.6572,6.6301,6.638,6.6825,6.8292,6.9041,6.9547,7.5736,7.578,7.5707,7.5457,7.4695,7.4226,7.4574,7.3612,7.28,7.2607,7.2761,7.2452,7.1407,7.1756,7.1872,7.133,7.0484,6.944,6.8119,6.7694,6.7114,6.6224,6.6185,6.5953,6.5494,6.4643,6.3792,6.2897,6.2046,6.1423,6.1118,6.1118,6.1118,6.1118,6.1118,6.1118,6.1118,6.1118,6.1118,6.1118,6.1118,6.1118,6.1118,6.1118,6.1118,6.1118,6.1118,6.1118,6.1118,6.1118,6.1118,6.1118,6.1118,6.1118,6.1118,6.1118,6.1345,6.1616,6.1616,6.1616,6.1814,6.2704,6.2394,6.208,6.2743,6.3328,6.3869,6.4566,6.5107,6.561,6.6108,6.5799,6.5455,6.5455,6.4329,6.3555,6.3864,6.4101,6.4334,6.4643,6.5566,6.6185,6.6185,6.6185,6.6185,6.6185,6.6185,6.6185,6.6185,6.6185,6.6185,6.6185,6.6185,6.6185,6.6185,6.6533,6.6533,6.6185,6.6533,6.6727,6.6766,6.7965,6.8777,6.928,6.928,6.9473,6.9667,6.8119,6.7384,6.7152,6.6456,6.6185,6.6417,6.8153,6.882,6.9092,7.4783,7.4893,7.4768,7.4015,7.3181,7.2877,7.3651,7.2375,7.1568,7.2375,7.1794,7.1297,7.1297,7.1297,7.1297,7.1297,7.0562,6.9783,6.8965,6.8119,6.723,6.634,6.6224,6.6185,6.6108,6.5378,6.4488,6.3482,6.2743,6.1964,6.1118,6.1118,6.1118,6.1118,6.1118,6.1118,6.1118,6.1118,6.1118,6.1118,6.1118,6.1118,6.1118,6.1118,6.1118,6.1118,6.1118,6.1118,6.1118,6.1118,6.1118,6.1118,6.1118,6.1118,6.1118,6.1118,6.1655,6.2312,6.239,6.239,6.2627,6.3482,6.2438,6.166,6.3328,6.3831,6.4334,6.5799,6.6147,6.6185,6.6185,6.6147,6.6108,6.6185,6.5455,6.5185,6.5992,6.5455,6.5262,6.5992,6.6147,6.6185,6.6185,6.6185,6.6185,6.6185,6.6185,6.6185,6.6185,6.6185,6.6185,6.6185,6.6185,6.6224,6.6301,6.7114,6.7114,6.634,6.7191,6.7617,6.7655,6.9285,6.9982,6.9982,7.0098,7.0523,7.0987,6.8584,6.8037,6.8501,6.6843,6.6185,6.6417,6.8153,6.8733,6.8924,7.3978,7.4436,7.4693,7.3956,7.3159,7.2645,7.2839,7.1988,7.1374,7.1562,7.1407,7.1297,7.1297,7.1297,7.1297,7.1297,7.1142,7.0639,6.9788,6.897,6.8114,6.7268,6.6572,6.5915,6.5262,6.5107,6.3908,6.166,6.2158,6.1964,6.1118,6.1118,6.1118,6.1118,6.1118,6.1118,6.1118,6.1118,6.1118,6.1118,6.1118,6.1118,6.1118,6.1118,6.1118,6.1118,6.1118,6.1118,6.1118,6.1118,6.1118,6.1118,6.1118,6.1118,6.1118,6.1118,6.1234,6.1539,6.2196,6.239,6.2627,6.3482,6.2897,6.2394,6.3444,6.472,6.5566,6.5339,6.576,6.6185,6.6185,6.5682,6.5455,6.6108,6.4952,6.4295,6.5146,6.5107,6.5069,6.5223,6.5837,6.6185,6.6185,6.6185,6.6185,6.6185,6.6185,6.6185,6.6185,6.6185,6.6185,6.6185,6.6185,6.6533,6.723,6.7423,6.7423,6.723,6.8114,6.8501,6.854,6.9551,6.9982,7.0059,7.0717,7.0755,7.0175,6.9009,6.823,6.7694,6.6611,6.6185,6.6417,6.8153,6.8385,6.8034,7.3033,7.3343,7.3427,7.2654,7.2173,7.1949,7.1949,7.1584,7.1297,7.1297,7.1297,7.1297,7.1297,7.1297,7.1297,7.1297,7.1297,7.075,6.9512,6.9048,6.823,6.6959,6.6456,6.5837,6.503,6.5378,6.429,6.1732,6.2588,6.2356,6.1118,6.1118,6.1118,6.1118,6.1118,6.1118,6.1118,6.1118,6.1118,6.1118,6.1118,6.1118,6.1118,6.1118,6.1118,6.1118,6.1118,6.1118,6.1118,6.1118,6.1118,6.1118,6.1118,6.1118,6.1118,6.1118,6.1384,6.181,6.2274,6.2704,6.3129,6.3598,6.3676,6.3748,6.4217,6.4682,6.5107,6.5494,6.5915,6.6185,6.6185,6.5876,6.5721,6.6147,6.5146,6.4604,6.5455,6.5223,6.5146,6.5533,6.5953,6.6185,6.6185,6.6185,6.6185,6.6185,6.6185,6.6185,6.6185,6.6185,6.6185,6.6185,6.6611,6.7036,6.7501,6.8274,6.87,6.87,6.9164,6.9357,6.9396,7.0252,7.0639,7.0601,7.0247,7.0054,6.9865,6.8236,6.7539,6.7423,6.6533,6.6185,6.6379,6.7694,6.839,6.8852,7.2095,7.2192,7.2026,7.1229,7.1154,7.1207,7.1207,7.1258,7.1297,7.1297,7.1297,7.1297,7.1297,7.1297,7.1297,7.1297,7.1181,7.0479,6.9087,6.8733,6.7921,6.6495,6.6263,6.5837,6.503,6.5644,6.4793,6.239,6.3289,6.2825,6.1118,6.1118,6.1118,6.1118,6.1118,6.1118,6.1118,6.1118,6.1118,6.1118,6.1118,6.1118,6.1118,6.1118,6.1118,6.1118,6.1118,6.1118,6.1118,6.1118,6.1118,6.1118,6.1118,6.1118,6.1118,6.1118,6.1616,6.2196,6.2351,6.3052,6.3753,6.3869,6.4488,6.503,6.5185,6.4643,6.4527,6.5915,6.6185,6.6185,6.6185,6.6108,6.6031,6.6185,6.5533,6.5262,6.6108,6.5649,6.5455,6.6108,6.6185,6.6185,6.6185,6.6185,6.6185,6.6185,6.6185,6.6185,6.6185,6.6185,6.6185,6.6185,6.6882,6.7423,6.7733,6.9087,6.9943,7.0214,7.0214,7.0214,7.0252,7.0987,7.1297,7.1214,6.9821,6.9512,6.9827,6.7578,6.6998,6.7423,6.6533,6.6185,6.6301,6.6998,6.8429,7.0008,7.1258,7.1736,7.2045,7.1165,7.1124,7.1207,7.1207,7.1258,7.1297,7.1297,7.1297,7.1297,7.1297,7.1297,7.1297,7.1297,7.0601,7.0098,6.9865,6.8468,6.7578,6.7346,6.6611,6.5837,6.503,6.5107,6.4251,6.239,6.3289,6.2825,6.1118,6.1118,6.1118,6.1118,6.1118,6.1118,6.1118,6.1118,6.1118,6.1118,6.1118,6.1118,6.1118,6.1118,6.1118,6.1118,6.1118,6.1118,6.1118,6.1118,6.1118,6.1118,6.1118,6.1118,6.1118,6.1118,6.1195,6.1423,6.2196,6.3052,6.3869,6.4643,6.4914,6.5185,6.5876,6.5953,6.5915,6.6147,6.6185,6.6185,6.6185,6.5649,6.5378,6.6108,6.5533,6.5262,6.6108,6.6108,6.6069,6.6185,6.6185,6.6185,6.6185,6.6185,6.6185,6.6185,6.6185,6.6185,6.6185,6.6185,6.6185,6.6185,6.6301,6.7114,6.8617,6.8849,6.9705,7.1103,7.1103,7.1103,7.1142,7.1258,7.1297,7.1297,7.1059,7.0601,6.9904,6.8893,6.8076,6.7423,6.6533,6.6185,6.6224,6.634,6.7926,6.991,7.0975,7.1233,7.1407,7.1023,7.103,7.1093,7.1093,7.1184,7.1247,7.1247,7.1275,7.1297,7.1297,7.0871,7.0562,7.0562,6.9821,6.9125,6.8622,6.7926,6.7268,6.6804,6.6417,6.6031,6.5682,6.5682,6.4831,6.3129,6.3013,6.2317,6.1118,6.1118,6.1118,6.1118,6.1118,6.1118,6.1118,6.1118,6.1118,6.1118,6.1118,6.1118,6.1118,6.1118,6.1118,6.1118,6.1118,6.1118,6.1118,6.1118,6.1118,6.1118,6.1118,6.1118,6.1118,6.1118,6.1423,6.1926,6.2312,6.34,6.4527,6.4914,6.5339,6.576,6.6108,6.6185,6.6185,6.6185,6.6185,6.6185,6.6185,6.5915,6.5799,6.6147,6.5915,6.5799,6.6147,6.6185,6.6185,6.6185,6.6185,6.6185,6.6185,6.6185,6.6185,6.6185,6.6185,6.6185,6.6185,6.6185,6.6417,6.692,6.7384,6.8236,6.9473,6.9938,7.0556,7.1297,7.1297,7.1297,7.1297,7.1297,7.1297,7.1253,7.0324,6.9705,6.9241,6.7887,6.7114,6.6727,6.634,6.6185,6.6185,6.6185,6.723,6.8545]}]]